GFSGBSN_con_sbcape_000.txt.gz
CAPE
0 1 0 0 4 11 9 11 11 7 1 0 1 4 5 2 1 0 1 1 1 2 1 1 0 0 0 34 1 0 0 63 0 3 0 2 6 12 8 1 0 0 0 0 0 0 0
2 0 0 0 9 8 9 9 8 5 2 1 6 6 3 5 1 0 1 1 1 0 0 0 0 1 18 0 0 0 0 0 0 6 0 0 7 2 0 0 0 0 0 0 0 0 0
0 0 0 0 6 6 5 6 5 3 1 1 4 5 4 0 0 0 2 2 0 1 2 1 0 0 71 0 0 0 0 0 0 0 0 0 0 0 0 0 0 0 0 0 0 0 0
0 0 0 0 3 3 5 5 1 3 1 4 3 1 2 3 0 0 0 0 0 2 0 0 0 4 39 0 0 0 0 0 0 0 0 0 0 0 2 0 0 0 0 0 0 0 0
0 0 0 0 4 3 3 2 1 0 2 0 0 0 0 0 0 0 0 0 1 0 0 0 5 258 28 0 0 0 0 0 0 0 0 0 0 0 0 0 0 0 0 4 0 0 0
0 0 0 0 4 3 3 1 1 2 1 0 0 0 0 0 0 0 0 0 0 0 0 0 12 155 0 0 0 0 0 0 0 0 0 0 0 0 0 0 1 0 0 0 0 0 0
0 0 0 0 2 2 1 0 0 1 0 0 0 0 0 0 0 0 0 0 0 0 45 0 0 0 0 0 0 0 0 0 0 0 0 0 0 1 0 0 0 0 0 0 5 0 0
0 0 0 0 0 1 1 1 1 0 0 0 0 0 0 0 0 0 0 341 192 24 0 0 0 0 0 0 0 0 0 0 0 0 0 0 0 0 0 0 0 0 0 0 0 0 0
0 0 0 0 1 0 1 0 0 0 0 0 0 0 0 0 0 0 365 440 352 441 0 0 0 0 0 0 0 0 0 0 0 0 0 0 0 0 0 0 0 0 0 2 0 0 0
0 0 0 0 0 0 0 0 0 0 0 0 0 0 0 0 0 408 332 230 523 585 9 0 0 0 0 0 0 0 0 0 0 0 0 0 0 0 0 0 0 0 0 0 0 0 2
0 0 0 0 0 0 0 0 0 0 0 0 0 0 0 0 58 78 301 476 648 850 521 0 0 0 0 0 0 0 0 0 0 0 0 0 0 0 0 0 0 0 0 0 0 0 0
0 0 0 0 0 0 0 0 0 0 0 0 0 0 0 6 573 301 452 816 949 1305 271 0 0 0 0 0 0 0 0 0 0 0 0 0 0 0 0 0 0 0 0 2 6 28 395
0 0 0 0 0 0 0 0 0 0 0 0 0 0 0 469 583 711 1235 654 647 434 0 0 0 0 0 0 0 0 0 0 8 1 0 0 0 0 0 3 7 0 29 352 462 692 441
0 0 0 0 0 0 0 0 0 0 0 0 0 0 371 770 720 1375 973 248 288 0 0 0 0 0 0 0 0 0 0 0 0 6 6 17 5 0 0 0 0 0 0 342 101 334 153
0 0 0 0 0 0 0 0 0 0 0 0 0 1385 1202 1338 1454 1266 440 1956 361 0 0 0 0 0 0 0 0 0 0 0 0 0 0 6 1 0 0 0 0 4 0 0 0 10 14
0 0 0 0 0 0 0 0 0 0 0 0 93 55 86 985 1393 1164 1052 589 30 0 0 0 0 0 0 0 0 0 0 0 0 0 0 0 18 0 0 0 0 0 0 5 120 39 0
0 0 0 0 0 0 0 0 0 0 0 0 905 0 677 817 1006 33 1075 292 0 0 0 0 0 0 9 0 0 0 0 0 0 0 0 0 0 0 0 0 0 0 9 0 0 7 1
0 0 0 0 0 0 0 0 0 0 0 0 719 5 821 1278 7 24 600 2 0 0 0 0 0 0 0 0 0 0 0 0 0 0 0 0 0 70 0 0 0 0 0 0 25 0 85
0 0 0 0 0 0 0 0 0 0 0 228 25 329 422 835 443 1947 39 0 0 0 0 0 0 0 0 0 0 0 0 0 0 0 0 0 56 25 4 0 0 0 0 0 0 0 0
0 0 0 0 0 0 0 0 0 0 0 0 385 332 0 3 576 160 60 0 0 0 0 0 0 0 0 0 0 0 0 0 0 0 0 0 0 0 0 0 0 0 0 0 0 45 3
0 0 0 0 0 0 0 0 0 0 0 0 456 124 0 888 545 55 23 0 0 0 0 0 0 0 0 0 0 0 0 0 0 0 0 0 0 0 0 0 0 0 0 0 0 3 6
0 0 0 0 0 0 0 0 0 0 0 135 269 95 101 217 117 15 16 0 0 0 0 0 0 0 0 0 0 0 0 0 0 0 0 0 0 0 0 0 0 0 0 0 0 0 5
0 0 0 0 0 0 0 0 0 0 0 449 56 234 236 41 54 186 204 0 0 0 0 0 0 0 0 0 0 0 0 0 0 0 0 0 0 0 0 0 0 18 0 0 0 6 4
0 0 0 0 0 0 0 0 0 0 0 624 420 113 750 617 621 246 14 0 3 0 0 0 0 0 0 0 0 0 0 0 0 0 0 0 0 0 0 0 0 0 0 0 0 0 5
0 0 0 0 0 0 0 0 0 0 0 221 51 514 234 472 422 45 0 0 3 0 1 0 0 0 0 0 0 0 0 0 0 0 0 0 3 0 8 0 0 0 0 0 0 0 0
0 0 0 0 0 0 0 0 0 0 0 312 70 105 323 282 570 16 4 0 151 101 0 0 0 0 0 453 0 0 0 0 0 0 0 0 0 6 0 0 0 0 8 0 0 0 14
0 0 0 0 0 0 0 0 0 0 0 19 186 150 925 684 52 60 111 145 52 91 4 0 0 0 0 0 0 163 0 0 0 0 0 0 1 4 10 7 0 0 0 0 1 21 16
0 0 0 0 0 0 0 0 0 0 0 0 357 121 708 614 75 80 65 146 33 122 244 19 7 63 166 0 1 0 1 0 0 0 0 0 2 2 12 4 3 0 2 6 63 55 2
0 0 0 0 0 0 0 0 0 0 0 0 651 103 240 756 184 159 65 62 42 38 151 134 13 31 183 33 5 50 1 0 0 0 0 5 0 56 2 0 39 20 11 12 3 8 0

GFSGBSN_con_sbcape_003.txt.gz
CAPE
0 2 8 2 2 6 1 1 2 0 0 1 0 0 0 2 4 0 0 0 1 1 0 0 0 0 0 72 0 0 308 107 0 0 0 0 0 0 0 0 0 0 0 0 0 0 0
0 8 6 0 0 1 1 1 0 1 1 0 0 0 4 2 5 1 0 0 0 0 0 0 0 0 0 0 0 0 0 0 0 0 17 0 0 0 0 0 0 0 0 0 0 0 0
0 8 0 0 1 2 1 1 0 0 0 1 0 0 3 3 3 0 0 0 0 0 0 0 0 0 42 85 0 0 0 0 0 0 0 0 0 0 0 0 0 0 0 0 0 0 0
0 0 0 0 0 0 0 0 0 2 2 0 4 3 1 2 0 0 0 0 0 0 0 0 0 0 49 0 0 0 0 0 0 0 0 0 0 0 0 0 0 0 0 0 0 0 0
0 0 0 0 0 0 0 0 0 1 0 1 0 0 0 0 0 0 0 0 0 0 1 0 0 78 52 0 0 0 0 0 0 0 0 0 0 0 0 0 0 0 0 0 0 0 0
0 0 0 0 0 1 0 3 2 0 1 0 0 0 0 0 0 0 0 1 0 0 0 0 0 24 109 0 0 0 0 0 0 0 0 0 0 0 0 0 0 0 0 0 0 0 0
0 0 0 0 0 1 0 0 0 1 0 0 0 0 0 0 0 0 0 0 0 0 0 0 0 0 0 0 0 0 0 0 0 0 0 0 0 0 0 0 0 0 0 0 0 0 0
0 0 0 0 0 0 1 1 0 0 0 0 0 0 0 0 0 0 0 50 150 169 0 0 0 0 0 0 0 0 0 0 0 0 0 0 0 0 0 0 0 0 0 0 0 0 0
0 0 0 0 0 0 1 0 0 0 0 0 0 0 0 0 0 0 0 125 200 313 4 0 0 0 0 0 0 0 0 0 0 0 0 0 0 0 0 0 0 0 0 0 0 0 0
0 0 0 0 0 0 0 0 0 0 0 0 0 0 0 0 0 101 225 208 464 588 0 0 0 0 0 0 0 0 0 0 0 0 0 0 0 0 0 0 0 0 0 0 0 0 0
0 0 0 0 0 0 0 0 0 0 0 0 0 0 0 0 0 402 242 441 346 421 67 0 0 0 0 0 0 0 0 0 0 0 0 0 0 0 0 0 0 0 0 0 0 0 0
0 0 0 0 0 0 0 0 0 0 0 0 0 0 0 0 0 503 661 888 52 280 235 0 0 0 0 0 0 0 0 0 0 0 0 0 0 0 0 0 0 0 0 0 0 0 8
0 0 0 0 0 0 0 0 0 0 0 0 0 0 0 6 730 806 927 183 35 282 1 0 0 0 0 0 0 0 0 0 0 0 0 0 0 0 0 0 0 0 0 4 23 7 28
0 0 0 0 0 0 0 0 0 0 0 0 0 0 117 1341 1357 1128 788 224 74 52 0 0 0 0 0 0 0 0 0 0 0 0 0 0 0 0 0 0 0 0 0 0 1 0 0
0 0 0 0 0 0 0 0 0 0 0 0 0 337 1225 1101 1371 854 503 551 234 0 0 0 0 0 0 0 0 0 0 0 0 0 0 0 0 0 0 0 0 0 0 0 0 0 0
0 0 0 0 0 0 0 0 0 0 0 0 84 586 587 877 1189 637 350 636 141 0 0 0 0 0 0 0 0 0 0 0 0 0 0 0 0 0 0 0 0 0 0 0 0 0 0
0 0 0 0 0 0 0 0 0 0 0 0 189 0 473 893 410 6 211 432 0 0 0 0 0 0 1 0 0 0 0 0 0 0 0 0 0 0 0 0 0 0 0 0 0 0 0
0 0 0 0 0 0 0 0 0 0 0 0 203 0 594 465 0 0 61 408 0 0 0 0 0 0 0 0 1 0 0 0 0 0 0 0 0 0 0 0 0 0 0 0 0 0 0
0 0 0 0 0 0 0 0 0 0 0 44 49 221 427 716 0 139 259 0 0 0 0 0 0 0 0 0 0 0 0 0 0 0 0 0 0 0 0 0 0 0 0 0 0 0 0
0 0 0 0 0 0 0 0 0 0 0 0 236 0 67 33 181 362 80 0 0 0 0 0 0 0 0 0 0 0 0 0 0 0 0 0 0 0 0 0 0 0 0 0 0 0 0
0 0 0 0 0 0 0 0 0 0 0 0 123 1 0 0 0 22 115 0 0 0 0 0 0 0 0 0 0 0 0 0 0 0 0 0 0 0 0 0 0 0 0 0 0 0 0
0 0 0 0 0 0 0 0 0 0 0 9 199 160 0 3 0 1 1 0 0 0 0 0 0 0 0 0 0 0 0 0 0 0 0 0 0 0 0 0 0 0 0 0 0 0 0
0 0 0 0 0 0 0 0 0 0 0 90 27 105 290 88 2 10 1 0 1 0 0 0 0 0 0 0 0 0 0 0 0 0 0 0 0 0 0 0 0 0 0 0 0 0 0
0 0 0 0 0 0 0 0 0 0 0 174 242 420 0 0 365 84 73 0 0 0 0 0 0 0 0 0 0 0 0 0 0 0 0 0 0 0 0 0 0 0 0 0 0 0 0
0 0 0 0 0 0 0 0 0 0 0 54 60 568 7 0 362 27 0 0 0 0 0 0 0 0 0 0 0 0 0 0 0 0 0 0 0 0 0 0 0 0 0 0 0 0 0
0 0 0 0 0 0 0 0 0 0 0 80 23 35 92 28 233 133 2 0 0 0 0 0 0 0 0 0 0 0 0 0 0 0 0 0 0 0 0 0 0 0 0 0 0 0 0
0 0 0 0 0 0 0 0 0 0 0 2 74 83 636 55 17 44 7 2 0 0 0 0 0 0 0 0 0 0 0 0 0 0 0 0 0 0 0 0 0 0 0 0 0 0 0
0 0 0 0 0 0 0 0 0 0 0 15 138 55 574 41 10 61 47 2 28 0 0 0 0 0 0 0 0 0 0 0 0 0 0 0 0 0 0 0 0 0 0 0 0 0 0
0 0 0 0 0 0 0 0 0 0 0 0 519 103 178 149 91 59 18 0 3 18 18 0 0 26 1 0 0 0 0 0 0 0 0 0 0 0 0 0 0 0 0 0 0 0 0

GFSGBSN_con_sbcape_006.txt.gz
CAPE
0 0 0 0 6 5 5 1 1 2 1 2 1 0 1 0 0 3 0 0 0 0 0 1 1 0 0 36 0 0 37 215 65 0 0 0 0 0 0 0 0 0 0 0 0 0 0
0 0 0 6 7 0 2 1 1 0 1 1 0 0 2 1 5 5 0 0 0 0 0 0 0 1 0 0 0 0 0 0 0 0 0 0 0 0 0 0 0 0 0 0 0 0 0
0 0 0 1 0 1 2 1 0 0 1 1 0 0 0 0 6 4 0 0 0 0 0 1 0 0 0 9 0 0 0 0 0 0 0 0 0 0 0 0 0 0 0 0 0 0 0
0 0 0 0 0 0 0 0 0 0 0 0 0 1 2 3 0 0 0 0 0 0 0 0 0 0 0 0 0 0 0 0 0 0 0 0 0 0 0 0 0 0 0 0 0 0 0
0 0 0 0 0 0 0 1 0 0 0 0 3 0 0 0 0 0 0 0 0 0 0 0 0 0 0 0 0 0 0 0 0 0 0 0 0 0 0 0 0 0 0 0 0 0 0
0 0 0 0 0 1 0 0 0 0 0 2 0 0 0 0 0 0 0 0 0 0 0 0 0 3 7 38 0 0 0 0 0 0 0 0 0 0 0 0 0 0 0 0 0 0 0
0 0 0 0 0 1 0 0 0 0 0 0 0 0 0 0 0 0 0 0 0 0 0 0 0 0 0 0 0 0 0 0 0 0 0 0 0 0 0 0 0 0 0 0 0 0 0
0 0 0 0 0 0 1 1 0 0 0 0 0 0 0 0 0 0 0 76 110 88 9 0 0 0 0 0 0 0 0 0 0 0 0 0 0 0 0 0 0 0 0 0 0 0 0
0 0 0 0 0 0 1 0 0 0 0 0 0 0 0 0 0 0 0 0 12 129 12 0 0 0 0 0 0 0 0 0 0 0 0 0 0 0 0 0 0 0 0 0 0 0 0
0 0 0 0 0 0 0 0 0 0 0 0 0 0 0 0 0 0 0 0 0 3 0 0 0 0 0 0 0 0 0 0 0 0 0 0 0 0 0 0 0 0 0 0 0 0 0
0 0 0 0 0 0 0 0 0 0 0 0 0 0 0 0 0 83 102 228 154 7 0 0 0 0 0 0 0 0 0 0 0 0 0 0 0 0 0 0 0 0 0 0 0 0 0
0 0 0 0 0 0 0 0 0 0 0 0 0 0 0 0 0 3 291 218 0 7 0 0 0 0 0 0 0 0 0 0 0 0 0 0 0 0 0 0 0 0 0 0 0 0 0
0 0 0 0 0 0 0 0 0 0 0 0 0 0 0 0 591 265 275 0 0 23 0 0 0 0 0 0 0 0 0 0 0 0 0 0 0 0 0 0 0 0 0 0 0 7 7
0 0 0 0 0 0 0 0 0 0 0 0 0 0 0 0 751 329 0 0 0 0 0 0 0 0 0 0 0 0 0 0 0 0 0 0 0 0 0 0 0 0 0 0 5 0 0
0 0 0 0 0 0 0 0 0 0 0 0 0 0 526 362 601 0 14 152 93 0 0 0 0 0 0 0 0 0 0 0 0 0 0 0 0 0 0 0 0 0 0 0 0 0 0
0 0 0 0 0 0 0 0 0 0 0 0 0 43 6 190 67 0 49 244 90 0 0 0 0 0 0 0 0 0 0 0 0 0 0 0 0 0 0 0 0 0 0 0 0 0 0
0 0 0 0 0 0 0 0 0 0 0 0 0 0 0 273 0 0 21 88 69 0 2 0 0 0 0 0 0 0 0 0 0 0 0 0 0 0 0 0 0 0 0 0 0 0 0
0 0 0 0 0 0 0 0 0 0 0 0 0 0 0 0 0 0 0 83 0 0 0 0 0 0 0 0 0 0 0 0 0 0 0 0 0 0 0 0 0 0 0 0 0 0 0
0 0 0 0 0 0 0 0 0 0 0 0 0 39 3 0 0 0 0 3 0 0 0 0 0 0 0 0 0 0 0 0 0 0 0 0 0 0 0 0 0 0 0 0 0 0 0
0 0 0 0 0 0 0 0 0 0 0 0 27 0 0 0 0 2 0 0 0 0 0 0 0 0 0 0 0 0 0 0 0 0 0 0 0 0 0 0 0 0 0 0 0 0 0
0 0 0 0 0 0 0 0 0 0 0 0 11 0 0 0 0 7 6 0 0 0 0 0 0 0 0 0 0 0 0 0 0 0 0 0 0 0 0 0 0 0 0 0 0 0 0
0 0 0 0 0 0 0 0 0 0 0 0 6 0 0 0 0 0 0 0 0 0 0 0 0 0 0 0 0 0 0 0 0 0 0 0 0 0 0 0 0 0 0 0 0 0 0
0 0 0 0 0 0 0 0 0 0 0 0 0 0 0 0 0 0 0 0 0 0 0 0 0 0 0 0 0 0 0 0 0 0 0 0 0 0 0 0 0 0 0 0 0 0 0
0 0 0 0 0 0 0 0 0 0 0 55 30 0 0 0 0 0 0 0 0 0 0 0 0 0 0 0 0 0 0 0 0 0 0 0 0 0 0 0 0 0 0 0 0 0 0
0 0 0 0 0 0 0 0 0 0 0 0 0 5 0 0 0 0 0 0 0 0 0 0 0 0 0 0 0 0 0 0 0 0 0 0 0 0 0 0 0 0 0 0 0 0 0
0 0 0 0 0 0 0 0 0 0 0 0 0 0 0 0 39 0 0 0 0 0 0 0 0 0 0 0 0 0 0 0 0 0 0 0 0 0 0 0 0 0 0 0 0 0 0
0 0 0 0 0 0 0 0 0 0 0 1 0 0 3 0 0 0 0 0 0 0 0 0 0 0 0 0 0 0 0 0 0 0 0 0 0 0 0 0 0 0 0 0 0 0 0
0 0 0 0 0 0 0 0 0 0 0 34 14 0 11 0 0 0 0 0 0 0 0 0 0 0 0 0 0 0 0 0 0 0 0 0 0 0 1 0 0 0 0 0 0 0 0
0 0 0 0 0 0 0 0 0 0 0 0 61 0 0 0 12 0 0 0 0 0 0 0 0 0 0 0 0 0 0 0 0 0 0 0 0 0 0 0 0 0 0 0 0 0 0

GFSGBSN_con_sbcape_009.txt.gz
CAPE
22 19 2 0 0 0 4 7 3 0 1 1 1 0 1 1 1 0 1 1 2 1 3 0 0 0 0 14 0 0 343 315 0 0 0 0 0 0 0 0 0 0 0 0 0 0 0
13 11 0 0 0 0 3 5 2 0 1 0 2 1 1 0 1 3 3 0 1 0 0 0 0 0 0 0 0 0 0 0 0 0 0 0 0 0 0 0 0 0 0 0 0 0 0
0 0 0 0 0 0 0 2 1 1 0 1 0 0 0 0 0 3 1 1 0 0 0 0 0 0 0 0 0 0 0 0 0 0 0 0 0 0 0 0 0 0 0 0 0 0 0
0 0 0 0 0 0 0 2 0 1 0 2 0 0 0 0 0 0 0 0 0 0 0 0 1 0 0 0 0 0 0 0 0 0 0 0 0 0 0 0 0 0 0 0 0 0 0
0 0 0 0 0 0 0 2 1 1 0 0 0 0 2 1 0 0 0 0 0 0 0 0 0 0 0 0 0 0 0 0 0 0 0 0 0 0 0 0 0 0 0 0 0 0 0
0 0 0 0 0 0 0 1 1 1 0 0 3 1 0 0 0 0 0 0 0 0 0 0 0 0 0 0 0 0 0 0 0 0 0 0 0 0 0 0 0 0 0 0 0 0 0
0 0 0 0 0 0 1 0 0 0 1 1 0 0 0 0 0 0 0 0 0 0 0 0 0 0 0 0 0 0 0 0 0 0 3 0 0 0 0 0 0 0 0 0 0 0 0
0 0 0 0 0 0 0 1 1 0 0 0 0 0 0 0 0 0 0 0 16 52 75 0 0 0 0 0 0 0 0 0 0 0 0 0 0 0 0 0 0 0 0 0 0 0 0
0 0 0 0 0 0 0 0 0 0 0 0 0 0 0 0 0 0 0 0 0 0 13 0 0 0 0 0 0 0 0 0 0 0 0 0 0 0 0 0 0 0 0 0 0 0 0
0 0 0 0 0 0 0 0 0 0 0 0 0 0 0 0 0 0 0 0 0 0 0 0 0 0 0 0 0 0 0 0 0 0 0 0 0 0 0 0 0 0 0 0 0 0 0
0 0 0 0 0 0 0 0 0 0 0 0 0 0 0 0 0 39 32 128 0 0 0 0 0 0 0 0 0 0 0 0 0 0 0 0 0 0 0 0 0 0 0 0 0 0 0
0 0 0 0 0 0 0 0 0 0 0 0 0 0 0 0 0 0 2 0 0 0 0 0 0 0 0 0 0 0 0 0 0 0 0 0 0 0 0 0 0 0 0 0 0 0 0
0 0 0 0 0 0 0 0 0 0 0 0 0 0 0 0 353 63 8 0 0 61 0 0 0 0 0 0 0 0 0 0 0 0 0 0 0 0 0 0 0 0 0 0 6 11 3
0 0 0 0 0 0 0 0 0 0 0 0 0 0 0 0 29 13 0 0 0 0 0 0 0 0 0 0 0 0 0 0 0 0 0 0 0 0 0 0 0 0 0 1 2 0 0
0 0 0 0 0 0 0 0 0 0 0 0 0 0 32 142 82 0 0 0 2 0 0 0 0 0 0 0 0 0 0 0 0 0 0 0 0 0 0 0 0 0 0 0 0 0 0
0 0 0 0 0 0 0 0 0 0 0 0 0 0 0 0 0 0 0 79 87 0 0 0 0 0 0 0 0 0 0 0 0 0 0 0 0 0 0 0 0 0 0 0 0 0 0
0 0 0 0 0 0 0 0 0 0 0 0 0 0 0 0 0 0 0 0 91 0 0 0 0 0 0 0 0 0 0 0 0 0 0 0 0 0 0 0 0 0 0 0 0 0 0
0 0 0 0 0 0 0 0 0 0 0 0 0 0 0 0 0 0 0 0 23 0 0 0 0 0 0 0 0 0 0 0 0 0 0 0 0 0 0 0 0 0 0 0 0 0 0
0 0 0 0 0 0 0 0 0 0 0 0 0 73 0 0 0 0 0 0 0 0 0 0 0 0 0 0 0 0 0 0 0 0 0 0 0 0 0 0 0 0 0 0 0 0 0
0 0 0 0 0 0 0 0 0 0 0 0 0 0 0 0 0 0 0 0 0 0 0 0 0 0 0 0 0 0 0 0 0 0 0 0 0 0 0 0 0 0 0 0 0 0 0
0 0 0 0 0 0 0 0 0 0 0 0 0 0 0 0 0 0 0 0 0 0 0 0 0 0 0 0 0 0 0 0 0 0 0 0 0 0 0 0 0 0 0 0 0 0 0
0 0 0 0 0 0 0 0 0 0 0 0 1 0 0 0 0 0 0 0 0 0 0 0 0 0 0 0 0 0 0 0 0 0 0 0 0 0 0 0 0 0 0 0 0 0 0
0 0 0 0 1 0 0 0 0 0 0 0 0 0 0 0 0 0 0 0 0 0 0 0 0 0 0 0 0 0 0 0 0 0 0 0 0 0 0 0 0 0 0 0 0 0 0
0 0 1 0 0 0 0 0 0 0 0 10 1 0 0 0 0 0 0 0 0 0 0 0 0 0 0 0 0 0 0 0 0 0 0 0 0 0 0 0 0 0 0 0 0 0 0
0 0 0 0 0 0 0 0 0 0 0 20 0 0 0 0 0 0 0 0 0 0 0 0 0 0 0 0 0 0 0 0 0 0 0 0 0 0 0 0 0 0 0 0 0 0 0
0 0 0 0 0 0 0 0 0 0 0 0 0 0 0 0 0 0 0 0 0 0 0 0 0 0 0 0 0 0 0 0 0 0 0 0 0 0 0 0 0 0 0 0 0 0 0
0 0 0 0 0 0 0 0 0 0 0 0 0 0 0 0 0 0 0 0 0 0 0 0 0 0 0 0 0 0 0 0 0 0 0 0 0 0 0 0 0 0 0 0 0 0 0
0 0 0 0 0 0 0 0 0 0 0 0 9 0 0 0 0 0 0 0 0 0 0 0 0 0 0 0 0 0 0 0 0 0 0 0 0 0 0 0 0 0 0 0 0 0 0
0 0 0 0 0 0 0 1 0 0 0 0 33 0 0 0 0 0 0 0 0 0 0 0 0 0 0 0 0 0 0 0 0 0 0 0 0 0 0 0 0 0 0 0 0 0 0

GFSGBSN_con_sbcape_012.txt.gz
CAPE
4 12 22 17 8 0 0 5 7 3 1 2 1 0 2 1 3 2 6 4 1 0 2 0 1 1 0 4 0 27 432 303 4 0 0 0 0 0 0 0 0 0 0 0 0 0 0
0 0 8 15 6 0 0 3 6 3 2 1 2 0 2 2 2 2 1 2 0 0 0 0 1 0 0 0 0 0 19 0 0 0 0 0 0 0 0 0 0 0 0 0 0 0 0
0 0 0 0 0 0 0 0 0 3 0 0 1 0 1 1 2 1 2 0 0 0 0 0 1 1 0 0 0 0 0 0 0 0 0 0 0 0 0 0 0 0 0 0 0 0 0
0 0 0 0 0 0 0 0 0 2 2 2 2 0 1 2 0 0 0 0 0 0 0 1 0 0 0 0 0 0 0 0 0 0 0 0 0 0 0 0 0 0 0 0 0 0 0
0 0 0 0 0 0 0 0 0 3 0 0 0 0 0 0 0 0 0 0 0 0 0 1 0 0 0 0 0 0 0 0 0 0 0 0 0 0 0 0 0 0 0 0 0 0 0
0 0 0 0 0 0 0 0 0 0 0 0 1 0 3 0 1 0 0 0 0 1 1 0 0 0 0 0 0 0 0 0 0 0 0 0 0 0 0 0 0 0 0 0 0 0 0
0 0 0 0 0 0 0 0 2 0 0 0 2 3 0 0 0 0 1 0 0 0 0 0 0 0 0 0 0 0 0 0 0 0 0 0 0 0 0 0 0 0 0 0 0 0 0
0 0 0 0 0 0 0 0 1 0 2 2 0 0 0 0 0 0 0 0 0 23 25 0 0 0 0 0 0 0 0 1 0 0 0 0 0 0 0 0 0 0 0 0 0 0 0
0 0 0 0 0 0 0 0 0 0 0 0 0 0 0 0 0 2 0 0 0 0 7 0 0 0 0 0 0 0 0 0 0 0 0 0 0 0 0 0 0 0 0 0 0 0 0
0 0 0 0 0 0 0 0 0 0 0 0 0 0 0 0 0 0 0 0 0 0 0 0 0 0 0 0 0 0 0 0 0 0 0 0 0 0 0 0 0 0 0 0 0 0 0
0 0 0 0 0 0 0 0 0 0 0 0 0 0 0 0 0 0 0 96 0 0 0 0 0 0 0 0 0 0 0 0 0 0 0 0 0 0 0 0 0 0 0 0 0 0 0
0 0 0 0 0 0 0 0 0 0 0 0 0 0 0 1 0 0 0 0 0 0 0 0 0 0 0 0 0 0 0 0 0 0 0 0 0 0 0 0 0 0 0 0 0 0 0
0 0 0 0 0 0 0 0 0 0 0 0 0 0 0 0 99 3 0 0 0 0 0 0 0 0 0 0 0 0 0 0 0 0 0 0 0 0 0 0 0 0 0 0 0 0 0
0 0 0 0 0 0 0 0 0 0 0 0 0 0 0 0 0 0 0 0 0 0 0 0 0 0 0 0 0 0 0 0 0 0 0 0 0 0 0 0 0 0 0 0 0 0 0
0 0 0 0 0 0 0 0 0 0 0 0 0 0 0 0 0 0 0 0 0 0 0 0 0 0 0 0 0 0 0 0 0 0 0 0 0 0 0 0 0 0 0 0 0 0 0
0 0 0 0 0 0 0 0 0 0 0 0 0 0 0 0 0 0 0 0 46 0 0 0 0 0 0 0 0 0 0 0 0 0 0 0 0 0 0 0 0 0 0 0 0 0 0
0 0 0 0 0 0 0 0 0 0 0 0 0 0 0 0 0 0 0 0 14 10 0 0 0 0 0 0 0 0 0 0 0 0 0 0 0 0 0 0 0 0 0 0 0 0 0
0 0 0 0 0 0 0 1 0 0 0 0 0 0 0 0 0 0 0 0 1 0 0 0 0 0 0 0 0 0 0 0 0 0 0 0 0 0 0 0 0 0 0 0 0 0 0
0 0 0 0 0 0 1 0 0 0 0 0 0 87 0 0 0 0 0 0 0 0 0 0 0 0 0 0 0 0 0 0 0 0 0 0 0 0 0 0 0 0 0 0 0 0 0
0 0 0 0 0 0 0 0 0 0 0 0 0 22 0 0 0 0 0 0 0 0 0 0 0 0 0 0 0 0 0 0 0 0 0 0 0 0 0 0 0 0 0 0 0 0 0
0 0 0 0 0 0 0 0 0 0 0 0 0 0 0 0 0 0 0 0 0 0 0 0 0 0 0 0 0 0 0 0 0 0 0 0 0 0 0 0 0 0 0 0 0 0 0
0 0 0 0 0 0 0 0 0 0 0 0 5 0 0 0 0 0 0 0 0 0 0 0 0 0 0 0 0 0 0 0 0 0 0 0 0 0 0 0 0 0 0 0 0 0 0
0 0 0 1 0 0 1 0 0 0 0 0 0 0 0 0 0 0 0 0 0 0 0 0 0 0 0 0 0 0 0 0 0 0 0 0 0 0 0 0 0 0 0 0 0 0 0
0 0 0 0 1 0 0 0 0 0 0 0 0 0 0 0 0 0 0 0 0 0 0 0 0 0 0 0 0 0 0 0 0 0 0 0 0 0 0 0 0 0 0 0 0 0 0
0 0 0 1 0 0 0 0 0 0 0 0 0 0 0 0 0 0 0 0 0 0 0 0 0 0 0 0 0 0 0 0 0 0 0 0 0 0 0 0 0 0 0 0 0 0 0
0 0 0 0 0 0 0 0 0 0 0 0 0 0 0 0 0 0 0 0 0 0 0 0 0 0 0 0 0 0 0 0 0 0 0 0 0 0 0 0 0 0 0 0 0 0 0
0 0 0 0 0 0 0 0 0 0 0 3 2 0 0 0 0 0 0 0 0 0 0 0 0 0 0 0 0 0 0 0 0 0 0 0 0 0 0 0 0 0 0 0 0 0 0
0 0 0 0 0 0 0 0 0 0 0 1 6 0 0 0 0 0 0 0 0 0 0 0 0 0 0 0 0 0 0 0 0 0 0 0 0 0 0 0 0 0 0 0 0 0 0
0 0 0 0 0 0 0 0 0 0 0 9 16 0 0 0 0 0 0 0 0 0 0 0 0 0 0 0 0 0 0 0 0 0 0 0 0 0 0 0 0 0 0 0 0 0 0

GFSGBSN_con_sbcape_015.txt.gz
CAPE
0 0 0 0 8 16 6 0 0 0 3 2 3 2 3 2 2 3 1 6 2 0 1 0 2 0 1 0 0 41 374 251 8 0 0 0 0 0 0 0 0 0 0 0 0 0 0
0 0 0 0 0 9 14 0 0 0 2 2 3 1 3 1 3 2 5 0 4 1 2 1 0 1 0 0 0 76 72 0 0 0 0 0 0 0 0 0 0 0 0 0 0 0 0
0 0 0 0 0 0 0 0 0 0 0 4 1 1 2 2 3 1 1 0 0 1 1 1 0 0 0 0 0 5 0 0 0 0 0 0 0 0 0 0 0 0 0 0 0 0 0
0 0 0 0 0 0 0 0 0 0 0 5 1 2 1 0 3 0 0 0 0 1 0 0 0 0 0 0 0 0 0 0 0 0 0 0 0 0 0 0 0 0 0 0 0 0 0
2 0 0 0 0 0 0 0 0 0 0 4 1 1 1 1 1 0 0 0 0 0 0 1 0 0 1 0 0 0 0 0 0 0 0 0 0 0 0 0 0 0 0 0 0 0 0
6 0 0 0 0 0 0 0 0 0 0 2 0 1 0 0 1 1 0 0 0 0 0 0 0 0 0 0 0 0 0 0 0 0 0 0 0 0 0 0 0 0 0 0 0 0 0
20 0 0 0 0 0 0 0 0 0 0 1 2 0 3 2 1 0 0 0 0 0 1 0 0 0 0 0 0 0 0 0 0 0 0 0 0 0 0 0 0 0 0 0 0 0 0
0 1 0 0 0 0 0 0 0 0 0 0 2 3 0 1 2 1 0 0 0 0 20 0 0 0 0 0 0 0 0 0 0 0 0 0 0 0 0 0 0 0 0 0 0 0 0
0 5 0 0 0 0 0 0 0 0 0 0 0 0 0 1 0 1 0 0 0 0 11 0 0 0 0 0 0 0 0 0 0 0 0 0 0 0 0 0 0 0 0 0 0 0 0
0 0 0 0 0 0 0 0 0 0 0 0 0 0 0 0 0 0 0 0 0 0 0 0 0 0 0 0 0 0 0 0 0 0 0 3 0 0 0 0 0 0 0 0 0 0 12
10 0 5 0 0 0 0 0 0 0 0 0 0 0 0 0 0 0 0 0 0 0 0 0 0 0 0 0 0 0 0 0 0 0 0 1 0 0 0 0 0 0 0 0 0 0 0
27 0 2 0 0 0 0 0 0 0 0 0 0 0 0 0 0 0 0 0 0 0 2 0 0 0 0 0 0 0 0 0 0 0 0 0 0 0 0 0 0 0 0 0 0 0 0
52 0 0 0 0 0 0 0 0 0 0 0 0 0 1 0 0 0 0 0 0 0 0 0 0 0 0 0 0 0 0 0 0 1 0 0 0 0 0 0 0 0 0 0 4 10 0
75 0 0 0 0 0 0 0 0 0 0 0 0 0 0 0 0 0 0 0 0 0 0 0 0 0 0 0 0 0 0 0 0 0 0 0 0 0 0 0 0 0 0 5 0 0 0
103 24 1 3 0 0 0 0 0 0 0 0 0 1 0 0 0 0 0 0 0 0 0 0 0 0 0 0 0 0 0 0 0 0 0 0 0 0 0 0 0 0 0 0 0 0 0
147 67 1 9 0 0 0 0 0 0 0 0 0 0 0 0 0 0 0 0 3 0 0 0 0 0 0 0 0 0 0 0 0 0 0 0 0 0 0 0 0 0 0 0 0 0 0
157 86 6 2 0 0 0 0 0 0 0 0 0 0 0 0 0 0 0 0 0 0 0 0 0 0 0 0 0 0 0 0 0 0 0 0 0 0 0 0 0 0 0 0 0 0 0
148 60 22 0 0 0 0 0 0 0 0 0 0 0 0 0 0 0 0 0 0 0 0 0 0 0 0 0 0 0 0 0 0 0 0 0 0 0 0 0 0 0 0 0 0 0 0
147 54 1 0 0 0 0 0 0 0 0 0 0 19 0 0 0 0 0 0 0 0 0 0 0 0 0 0 0 0 0 0 0 0 0 0 0 0 0 0 0 0 0 0 0 0 0
79 23 2 7 0 0 0 0 0 0 0 0 1 59 2 0 0 0 0 0 0 0 0 0 0 0 0 0 0 0 0 0 0 0 0 0 0 0 0 0 0 0 0 0 0 0 0
49 49 18 0 0 0 1 0 0 0 0 0 0 3 1 0 0 0 0 0 0 0 0 0 0 0 0 0 0 0 0 0 0 0 0 0 0 0 0 0 0 0 0 0 0 0 0
82 50 2 0 0 0 0 0 0 0 0 0 0 0 0 0 0 0 0 0 0 0 0 0 0 0 0 0 0 0 0 0 0 0 0 0 0 0 0 0 0 0 0 0 0 0 0
18 10 1 0 0 0 0 0 0 0 0 0 0 0 0 0 0 0 0 0 0 0 0 0 0 0 0 0 0 0 0 0 0 0 0 0 0 0 0 0 0 0 0 0 0 0 0
33 0 0 1 0 0 1 0 0 0 0 0 0 0 0 0 0 0 0 0 0 0 0 0 0 0 0 0 0 0 0 0 0 0 0 0 0 0 0 0 0 0 0 0 0 0 0
0 1 1 0 0 1 0 0 0 0 0 0 0 0 0 0 0 0 0 0 0 0 0 0 0 0 0 0 0 0 0 0 0 0 0 0 0 0 0 0 0 0 0 0 0 0 0
0 0 0 1 0 0 0 0 0 0 0 0 0 0 0 0 0 0 0 0 0 0 0 0 0 0 0 0 0 0 0 0 0 0 0 0 0 0 0 0 0 0 0 0 0 0 0
1 1 0 0 0 0 0 0 0 0 0 0 0 0 0 0 0 0 0 0 0 0 0 0 0 0 0 0 0 0 0 0 0 0 0 0 0 0 0 0 0 0 0 0 0 0 0
0 0 0 0 0 0 0 0 0 0 0 0 8 0 0 0 0 0 0 0 0 0 0 0 0 0 0 0 0 0 0 0 0 0 0 0 0 0 0 0 0 0 0 0 0 0 0
0 0 0 0 0 0 0 0 0 0 0 2 49 0 0 0 0 0 0 0 0 0 0 0 0 0 0 0 0 0 0 0 0 0 0 0 0 0 0 0 0 0 0 0 0 0 0

GFSGBSN_con_sbcape_018.txt.gz
CAPE
2 0 0 0 0 0 0 0 0 0 0 0 0 5 5 5 5 5 5 4 5 5 4 1 2 1 0 2 0 244 268 166 0 0 0 0 0 0 0 0 0 0 0 0 0 0 129
6 1 0 0 0 0 0 0 0 0 0 0 0 4 2 3 3 3 6 4 0 1 2 3 3 2 0 0 0 231 103 0 0 0 0 0 0 0 0 0 0 0 0 0 0 23 18
0 3 0 0 0 0 0 0 0 0 0 0 0 2 3 4 3 5 6 1 0 0 3 3 1 1 0 4 0 186 34 2 0 0 5 0 0 0 0 0 0 0 0 0 0 0 12
1 9 3 0 0 0 0 0 0 0 0 0 0 3 3 2 2 2 0 0 0 1 4 1 2 0 24 0 0 31 15 0 0 0 0 0 0 0 0 0 0 0 0 0 0 0 0
20 0 4 0 0 0 0 0 0 0 0 0 0 2 1 1 0 1 0 0 0 1 0 0 1 0 31 0 0 0 0 0 0 0 0 0 0 0 0 0 0 0 0 0 0 0 0
42 4 14 1 0 0 0 0 0 0 0 0 0 1 2 1 0 0 0 0 0 1 1 0 0 62 46 0 3 0 0 0 0 0 0 0 0 0 0 0 0 0 0 0 0 0 0
56 27 5 1 0 0 0 0 0 0 0 0 0 0 1 2 2 0 0 0 0 0 0 1 0 0 0 0 0 0 0 0 0 0 46 0 1 4 0 0 0 0 0 0 0 0 65
37 21 2 10 0 0 0 0 0 0 0 0 0 0 4 3 2 0 0 0 0 68 126 12 0 0 0 0 0 0 0 15 35 25 12 1 5 0 1 0 0 0 0 20 0 2 114
51 42 8 1 1 0 0 0 0 0 0 0 0 0 0 1 0 2 0 0 0 0 363 2 16 0 0 0 0 0 1 12 0 4 4 76 19 0 4 17 25 28 68 66 48 16 83
59 42 17 0 13 0 0 0 0 0 0 0 0 0 0 0 0 0 0 0 0 0 47 0 0 2 0 0 0 0 6 31 11 19 21 90 7 29 87 65 46 120 5 49 70 88 116
67 64 35 0 4 0 0 0 0 0 0 0 0 0 0 0 0 0 0 23 0 15 0 0 0 0 0 0 0 9 0 52 47 33 90 125 69 91 115 66 37 99 11 106 59 138 137
58 69 71 5 0 2 0 0 0 0 0 0 0 0 0 3 0 0 0 29 117 264 0 0 0 0 0 0 0 9 43 22 21 66 113 93 6 77 76 11 17 7 60 51 47 90 143
58 66 69 33 0 1 0 0 0 0 0 0 0 0 4 0 0 18 255 110 33 35 1 0 0 0 0 0 6 56 101 111 126 161 188 112 89 13 32 77 40 88 117 110 119 139 138
73 73 72 63 3 8 0 0 0 0 0 0 0 0 4 0 0 0 0 0 2 0 1 0 0 0 0 0 1 17 91 114 29 115 202 135 155 1 0 53 64 74 94 78 0 58 14
105 114 88 76 11 26 0 0 0 0 0 0 0 8 2 0 0 0 0 0 0 0 5 0 0 0 12 0 0 46 70 120 15 38 74 120 20 0 0 0 4 2 5 10 23 0 10
177 137 73 77 28 20 0 0 0 0 0 0 2 2 0 0 0 0 0 0 0 12 0 0 0 0 4 8 0 4 79 0 2 0 0 83 49 0 0 0 0 0 0 11 10 0 0
190 127 102 75 47 4 0 0 0 0 0 0 1 0 51 91 5 12 35 0 0 214 85 0 0 0 0 6 2 0 0 0 0 0 0 3 4 4 0 0 6 0 0 0 0 0 0
218 155 117 67 65 21 4 0 0 0 0 0 1 0 44 0 51 0 0 0 31 147 5 0 1 6 6 21 41 15 0 0 0 0 0 0 7 59 0 0 0 0 0 0 0 0 0
201 196 145 79 72 14 3 0 0 0 0 3 0 135 5 0 18 0 0 0 52 2 0 34 9 42 65 119 79 54 15 0 0 0 0 0 1 13 0 0 0 0 0 0 0 0 0
159 156 164 132 68 20 2 0 0 0 0 0 8 276 116 0 0 0 0 0 0 0 0 4 56 101 124 69 18 55 3 0 0 0 0 0 0 8 73 0 0 0 0 0 0 0 0
200 179 139 96 57 59 0 0 0 0 0 0 52 86 57 47 0 0 0 0 0 12 0 8 62 135 147 125 39 46 2 0 0 0 0 0 0 0 0 0 0 0 0 0 0 0 0
218 170 66 61 17 7 0 1 0 0 0 49 84 108 12 1 0 0 0 0 0 2 40 69 175 82 106 156 64 104 4 0 0 0 0 0 0 0 0 0 0 0 0 0 0 0 0
204 107 77 36 38 13 1 1 0 0 0 26 88 3 59 0 0 0 0 0 0 118 2 0 155 128 98 15 0 0 0 0 0 0 0 0 0 0 0 0 0 0 0 0 0 0 0
116 69 37 24 5 17 1 0 0 0 0 130 241 73 111 10 0 0 0 0 55 101 142 0 14 140 0 0 0 0 0 0 0 0 0 0 0 0 0 0 0 0 0 0 0 0 0
68 44 18 36 1 1 1 0 0 0 0 371 175 127 64 19 0 0 0 0 0 0 8 5 0 0 0 0 1 0 0 0 0 0 0 0 0 0 5 0 0 0 0 0 0 0 0
67 52 38 9 1 0 0 0 0 0 0 336 384 10 205 64 0 0 0 0 133 133 6 0 0 0 0 0 0 44 8 0 0 0 0 0 0 0 0 81 132 0 0 0 0 0 0
33 2 1 2 1 0 0 0 0 0 0 225 399 9 290 271 0 0 0 0 16 102 166 0 0 0 0 0 459 155 13 0 0 0 0 0 0 0 0 0 0 0 0 0 0 0 0
0 1 1 1 0 0 0 0 0 0 0 183 402 79 594 402 13 12 0 0 0 128 272 0 0 0 0 77 430 17 90 0 0 0 0 0 0 0 0 6 0 0 0 4 0 0 0
1 0 0 0 0 0 0 0 0 0 0 60 706 16 121 423 113 0 0 0 0 17 55 0 167 7 10 21 1 0 2 0 0 5 0 0 0 0 0 0 0 0 0 0 0 0 0

GFSGBSN_con_sbcape_024.txt.gz
CAPE
10 8 5 0 3 0 0 0 0 0 0 0 0 0 0 0 2 4 7 5 3 5 5 0 0 0 0 20 63 146 511 119 0 0 6 1 0 0 0 1 0 0 0 0 68 102 14
11 10 4 3 0 1 0 0 0 0 0 0 0 0 0 0 4 0 5 8 3 6 1 0 0 0 0 1 11 102 58 0 0 0 2 0 0 0 0 3 0 0 0 0 50 53 1
12 12 11 5 4 1 0 0 0 0 0 0 0 0 0 0 1 1 4 5 4 0 0 0 0 0 0 0 12 99 0 0 0 3 0 0 0 1 12 42 21 1 0 0 0 44 23
15 18 19 15 10 0 3 0 0 0 0 0 0 0 0 0 1 3 3 3 0 0 0 0 0 0 0 5 2 37 79 37 12 0 0 16 14 3 0 0 0 0 0 0 0 3 29
19 17 20 9 9 0 0 1 0 0 0 0 0 0 0 0 1 1 2 6 0 0 0 0 0 0 67 0 0 0 55 106 32 37 9 0 0 0 2 0 0 1 0 0 0 14 51
24 24 28 18 2 13 0 0 0 0 0 0 0 0 0 0 1 1 1 0 0 0 0 0 0 0 92 17 0 0 0 5 74 70 14 0 2 25 24 1 0 0 0 0 7 0 32
31 26 21 27 17 13 8 3 2 0 0 0 0 0 0 0 0 2 0 0 0 0 0 0 0 0 0 0 0 0 0 0 49 90 127 62 57 36 2 0 0 0 0 12 12 0 0
38 30 26 21 23 8 22 2 2 0 0 0 0 0 0 0 3 1 1 0 1 0 3 0 0 0 0 0 0 0 0 16 138 55 47 25 7 0 0 0 4 1 10 3 0 0 0
33 36 28 27 32 4 2 0 1 0 0 0 0 0 0 1 1 0 0 0 0 0 4 0 0 0 0 0 0 0 0 7 22 2 2 42 0 1 8 0 0 0 23 9 2 0 0
37 38 36 31 36 26 0 0 0 2 0 0 0 0 0 0 0 0 0 0 0 0 0 0 0 0 0 0 0 0 0 9 8 4 8 33 28 18 2 0 0 6 22 3 20 13 12
48 42 44 47 34 20 8 15 0 8 0 0 0 0 0 0 0 0 69 4 21 245 54 0 0 0 0 0 0 0 0 14 22 29 67 117 2 5 0 62 52 3 4 51 69 45 118
56 58 46 53 42 27 26 11 0 8 0 0 0 0 0 3 1 0 0 149 334 416 2 0 0 0 1 0 0 0 0 0 36 7 0 1 0 38 33 33 32 44 61 132 10 56 81
63 83 66 59 54 38 35 17 0 6 0 0 0 0 2 0 0 0 0 444 79 12 0 0 0 0 0 0 0 4 0 0 1 35 1 15 0 25 61 7 5 0 10 138 76 92 335
105 102 77 69 67 50 35 20 0 2 0 0 0 0 2 0 0 2 347 396 12 0 0 0 0 1 5 0 0 0 6 0 0 1 33 11 115 21 1 5 36 103 8 275 10 0 237
100 91 124 73 75 65 55 28 1 0 0 0 0 13 11 0 0 13 283 127 0 0 0 5 0 2 4 10 0 0 0 1 0 0 54 30 0 0 7 4 5 22 63 37 124 404 221
91 112 101 38 57 65 54 32 17 4 0 0 2 17 0 0 0 10 168 6 0 0 13 1 2 3 14 18 0 0 0 0 4 46 106 9 0 27 20 0 11 0 0 140 41 9 0
140 107 95 5 16 62 61 53 29 15 0 0 14 16 0 0 8 52 74 2 3 0 0 22 2 13 32 39 0 0 0 4 85 100 82 69 144 103 46 27 0 62 9 0 0 373 465
132 80 115 19 34 81 64 77 48 23 0 0 39 10 29 126 0 0 45 0 0 8 0 12 48 44 4 74 22 3 0 74 42 14 57 19 23 370 27 33 49 1 105 1 675 50 469
89 109 105 74 42 49 89 71 58 33 0 8 29 69 299 152 0 11 3 0 0 5 56 65 53 49 0 3 25 0 25 206 187 138 84 136 62 134 38 118 71 1 0 0 52 299 217
137 129 99 84 51 2 92 61 73 29 3 5 46 107 280 211 0 12 23 1 0 11 8 38 68 38 3 0 0 6 52 90 57 119 0 99 7 0 173 39 132 219 12 0 0 338 116
139 157 145 89 30 1 82 68 75 33 7 6 126 60 28 53 52 59 196 1 1 13 0 75 66 0 76 114 36 106 100 139 12 12 0 0 4 0 0 12 19 26 8 4 0 6 0
110 155 137 74 33 11 84 74 63 38 20 6 53 82 180 41 28 38 119 71 14 19 22 109 163 20 124 160 78 113 120 336 111 34 10 0 163 81 77 17 0 0 0 0 0 0 0
91 113 77 24 50 80 112 71 65 46 38 39 25 220 215 83 47 99 181 238 120 98 121 101 151 190 171 314 349 439 565 471 231 334 282 322 564 59 0 0 0 0 0 0 0 0 0
60 42 50 94 127 136 100 66 47 53 45 54 83 298 140 103 17 25 219 224 50 70 431 263 345 423 342 242 274 223 95 88 160 125 288 252 206 138 116 0 0 0 0 0 0 0 0
81 26 45 61 122 108 129 52 13 4 21 105 286 308 195 31 101 135 342 290 85 84 388 341 406 456 465 334 354 118 387 1 0 0 0 7 61 66 54 0 0 0 0 0 0 0 0
109 109 79 90 93 59 61 26 3 0 0 19 20 11 522 178 284 21 117 254 264 863 383 66 265 481 425 1186 1118 301 367 57 41 4 0 0 0 166 0 17 0 0 0 0 0 0 0
61 75 89 90 76 69 34 23 0 0 0 16 40 12 362 256 482 337 82 102 258 666 522 263 59 50 183 1038 918 1024 593 41 168 60 0 0 10 0 0 23 1 0 0 0 0 1 0
63 66 83 113 96 37 7 20 0 0 0 21 2 1 63 204 338 517 206 76 643 877 707 407 307 213 1161 708 890 1105 783 487 264 4 0 0 57 1 83 0 0 0 0 0 18 0 0
86 93 86 123 94 9 10 3 0 0 3 6 0 0 9 716 758 805 323 382 393 285 976 485 650 522 883 912 912 1397 260 12 125 259 0 75 122 421 3 21 0 0 0 0 0 0 0

GFSGBSN_con_sbcape_027.txt.gz
CAPE
8 7 8 0 0 0 5 0 0 0 0 0 0 0 0 0 0 0 3 0 2 3 2 0 0 0 0 0 10 89 137 203 0 0 0 0 0 0 0 0 0 0 0 0 225 105 12
7 5 7 1 0 0 0 5 0 0 0 0 0 0 0 0 0 0 1 1 4 3 0 0 0 0 0 0 8 78 0 0 0 0 0 0 0 0 0 0 0 0 0 0 117 65 92
12 13 5 0 6 2 0 0 0 0 0 0 0 0 0 0 0 0 0 4 3 2 0 0 0 0 0 0 0 0 0 0 0 0 0 0 0 0 0 2 9 2 0 0 7 19 6
11 15 14 10 10 8 1 0 0 0 0 0 0 0 0 0 0 0 1 2 2 0 0 0 0 0 0 0 0 0 0 0 0 0 0 0 0 2 0 0 0 0 0 0 0 19 0
21 14 12 11 15 9 7 0 0 1 0 0 0 0 0 0 0 0 0 0 0 0 0 0 0 0 0 0 0 0 0 0 0 0 0 0 0 1 0 1 0 0 0 0 0 1 14
23 23 15 8 1 15 6 5 0 0 0 0 0 0 0 0 0 0 0 0 0 0 0 0 0 0 0 0 0 0 0 0 1 15 6 0 0 0 0 0 0 0 0 0 0 3 2
27 27 31 22 15 15 15 5 0 0 0 0 0 0 0 0 0 0 0 0 0 0 0 0 0 0 0 0 0 0 0 0 0 4 9 0 0 1 0 0 0 0 0 0 0 0 6
34 31 31 30 21 1 3 7 13 0 0 0 0 0 0 0 0 0 0 0 0 0 0 0 0 0 0 0 0 0 0 0 1 11 10 1 5 0 0 0 0 0 3 0 0 0 0
50 32 34 35 30 18 3 4 0 0 0 0 0 0 0 0 0 0 0 0 0 0 0 0 0 0 0 0 0 0 0 0 1 0 3 2 1 7 0 0 0 2 14 0 0 0 0
54 38 38 32 40 26 14 0 2 0 0 0 0 0 0 0 0 0 0 0 0 0 0 0 0 0 0 0 0 0 0 2 0 2 0 0 2 1 0 0 3 0 0 0 1 0 0
68 60 49 41 37 34 20 13 14 7 3 0 0 0 0 0 0 0 0 0 0 0 0 0 0 0 0 0 0 0 0 24 0 1 0 0 6 0 0 0 0 1 0 0 18 0 3
80 67 78 62 50 36 29 23 6 19 7 0 0 0 0 2 0 0 0 0 70 15 0 0 0 0 0 0 0 0 0 0 3 1 0 2 0 7 0 2 0 0 0 15 10 0 2
101 92 95 78 60 57 41 31 21 20 9 0 0 0 0 0 0 0 0 0 54 29 0 0 0 0 0 0 0 0 0 0 0 0 0 0 0 0 39 9 16 1 0 0 0 0 14
87 103 90 95 72 66 51 53 31 21 14 1 0 0 0 0 0 0 0 43 27 0 0 0 0 0 0 0 0 0 0 0 0 0 0 4 23 4 6 16 32 0 0 10 1 0 0
135 79 100 99 92 90 76 66 42 28 22 9 0 1 1 0 0 0 33 21 0 0 0 0 0 0 0 0 0 0 0 0 0 0 0 4 22 12 33 27 14 13 0 27 0 0 0
134 99 81 89 129 106 86 66 59 41 31 6 2 4 0 0 0 0 44 9 0 0 0 3 0 0 0 0 0 0 0 0 1 27 39 10 2 0 1 21 9 7 0 10 2 0 0
123 134 125 87 110 68 88 105 81 58 49 10 10 3 0 0 0 34 6 13 0 1 0 4 0 0 0 0 0 0 0 0 0 30 20 0 6 57 14 39 0 1 0 0 0 0 0
89 112 115 115 115 50 52 71 100 61 69 16 18 5 0 0 0 6 2 0 0 0 1 0 5 5 0 1 0 0 0 102 26 80 60 0 1 39 68 0 29 2 2 8 0 0 0
96 106 131 136 118 98 35 92 74 80 66 19 22 56 10 0 0 0 0 0 0 0 0 0 2 7 0 3 3 0 113 103 79 70 12 64 0 0 0 0 62 14 0 0 8 0 0
94 110 97 147 97 102 81 3 87 66 53 32 43 46 118 36 0 0 0 0 0 0 2 0 0 20 16 5 0 3 62 90 54 0 0 37 10 0 0 0 11 20 27 10 0 0 0
92 93 112 138 62 90 36 16 83 74 72 52 24 12 27 10 6 0 0 0 0 3 1 0 0 7 1 0 0 73 104 10 61 0 0 0 0 0 3 36 6 11 9 2 0 0 0
90 87 84 62 114 102 43 35 63 66 93 47 22 27 72 12 10 1 0 0 0 1 0 0 0 0 0 7 58 31 210 88 21 0 0 0 0 0 0 0 0 0 0 0 0 0 0
94 94 105 117 131 83 60 26 9 70 106 44 0 6 42 21 0 0 0 0 0 0 0 0 19 52 10 127 171 213 244 159 73 1 0 0 0 0 0 0 0 0 0 0 0 0 0
106 116 127 130 146 113 66 20 26 84 86 25 8 34 89 36 37 0 0 0 0 0 20 15 4 27 137 49 4 1 0 12 18 0 36 0 0 0 0 0 0 0 0 0 0 0 0
104 117 97 123 133 102 76 25 62 60 70 21 3 47 78 50 13 0 0 0 67 94 34 257 327 199 94 131 0 3 0 0 0 0 0 0 0 0 0 0 0 0 0 0 0 0 0
94 85 49 82 77 43 37 61 54 12 62 39 3 9 37 66 0 0 0 1 77 65 106 76 11 13 410 400 30 16 1 0 0 0 0 0 0 0 0 0 0 0 0 0 0 0 0
26 55 75 94 77 70 80 98 75 13 12 14 7 25 27 54 19 1 0 0 140 148 24 4 2 35 222 0 48 21 2 0 0 0 0 0 0 0 0 0 0 0 0 0 0 0 0
23 30 50 50 38 69 69 76 33 5 0 1 0 0 29 16 62 140 5 96 430 103 19 0 29 11 271 19 16 238 28 0 0 0 0 0 0 0 0 0 0 0 0 0 0 0 0
28 50 59 48 30 48 62 37 2 17 0 0 0 0 25 16 13 133 268 241 338 48 56 3 62 10 116 175 229 12 147 0 0 0 0 0 0 0 0 0 0 0 0 0 0 0 0

GFSGBSN_con_sbcape_030.txt.gz
CAPE
5 2 5 8 1 0 0 0 0 0 0 0 0 0 0 0 0 0 0 0 2 3 4 1 6 0 0 0 0 0 111 181 0 0 0 0 0 0 0 0 0 0 0 7 85 64 75
12 12 4 4 4 0 0 0 0 0 0 0 0 0 0 0 0 0 0 0 0 4 4 3 2 0 0 0 0 0 0 0 0 0 0 0 0 0 0 0 0 0 0 104 135 92 68
14 12 14 11 7 2 8 0 0 0 0 0 0 0 0 0 0 0 0 0 0 0 0 2 0 0 0 0 0 0 0 0 0 0 0 0 0 0 0 0 0 0 0 28 148 111 107
24 20 14 15 9 10 8 9 0 0 0 0 0 0 0 0 0 0 0 0 0 0 0 0 0 0 0 0 0 0 0 0 0 0 0 0 0 1 0 0 0 0 0 0 66 111 73
20 25 23 16 13 14 14 0 0 0 0 0 0 0 0 0 0 0 0 0 0 0 0 0 0 0 0 0 0 0 0 0 0 0 0 0 0 0 0 1 0 0 0 0 0 7 52
32 27 24 22 13 10 14 12 3 0 0 0 0 0 0 0 0 0 0 0 0 0 0 0 0 0 0 0 0 0 0 0 0 0 0 0 0 0 0 0 0 0 0 0 0 0 3
34 48 32 19 23 18 13 23 11 5 0 0 0 0 0 0 0 0 0 0 0 0 0 0 0 0 0 0 0 0 0 0 0 0 0 0 0 0 0 0 0 0 0 0 0 0 2
58 45 44 37 33 31 24 18 16 7 2 0 0 0 0 0 0 0 0 0 0 0 0 0 0 0 0 0 0 0 0 0 0 0 0 0 0 0 0 0 0 0 0 0 0 0 0
62 55 45 45 39 31 33 22 0 2 7 0 0 0 0 0 0 0 0 0 0 0 0 0 0 0 0 0 0 0 0 0 0 0 0 0 0 0 0 0 0 0 0 0 0 0 0
69 68 53 55 52 39 50 29 12 14 0 0 0 0 0 0 0 0 0 0 0 0 0 0 0 0 0 0 0 0 0 0 0 0 0 0 0 0 0 0 0 0 0 0 0 0 0
76 69 63 80 64 36 25 39 20 24 10 0 0 0 0 0 0 0 0 0 0 0 0 0 0 0 0 0 0 0 0 0 0 0 0 0 0 0 0 0 0 0 0 0 4 0 0
90 80 78 67 65 47 37 45 25 23 24 0 0 0 0 0 0 0 0 0 0 0 0 0 0 0 0 0 0 0 0 0 0 0 0 0 0 0 0 0 0 0 0 0 0 0 0
62 97 83 66 69 74 73 59 44 26 29 19 8 0 0 0 0 0 0 0 11 1 0 0 0 0 0 0 0 0 0 0 0 0 0 0 0 0 0 0 0 0 0 0 0 0 0
85 108 104 87 81 76 81 63 49 36 30 25 17 0 0 0 0 0 0 57 1 0 0 0 0 0 0 0 0 0 0 0 0 0 0 0 0 0 0 0 0 0 0 0 0 0 0
34 92 106 93 72 83 85 69 47 39 44 34 24 5 2 0 0 0 43 22 0 0 0 0 0 0 0 0 0 0 0 0 0 0 0 1 2 0 0 0 0 0 0 0 0 0 0
57 56 131 111 83 74 79 80 91 49 54 55 47 16 5 0 0 0 22 1 1 0 0 0 0 0 0 0 0 0 0 0 0 0 0 4 2 0 0 1 0 0 0 6 3 2 4
35 83 104 91 98 98 78 72 70 80 49 72 47 34 10 0 0 2 8 5 0 0 0 0 0 0 0 0 0 0 0 0 0 7 15 19 1 0 2 0 0 0 0 0 0 0 0
27 68 87 105 93 78 102 83 88 71 48 64 43 39 3 0 1 0 20 10 0 0 0 0 0 0 0 0 0 0 0 0 0 0 3 10 0 8 0 0 0 0 0 0 0 0 0
29 55 72 98 121 84 75 90 73 70 51 44 41 75 24 0 0 0 0 13 0 0 0 0 0 0 0 0 0 0 0 20 4 5 0 0 0 0 0 0 0 0 0 0 0 0 0
34 61 85 96 118 120 93 103 92 11 65 60 64 67 74 5 0 0 0 0 0 0 0 0 0 0 0 0 0 2 0 15 8 0 0 4 0 0 0 0 0 0 21 4 0 0 0
31 62 90 81 113 142 128 109 85 104 78 73 77 59 13 4 0 0 0 0 0 0 0 1 0 0 0 0 0 0 0 12 7 0 1 0 0 0 0 0 0 0 2 9 0 0 0
32 64 62 75 99 126 156 106 29 24 91 63 90 71 53 6 2 0 0 0 0 0 0 0 0 0 0 0 0 8 1 0 1 0 0 0 0 0 0 0 0 0 0 0 0 0 0
45 72 79 73 86 141 163 88 55 53 34 21 29 27 60 8 2 3 0 0 0 0 0 0 0 0 0 0 17 6 0 3 0 0 0 0 0 0 0 0 0 0 0 0 0 0 0
56 80 87 81 104 137 55 28 27 15 14 78 21 28 97 13 8 0 0 0 0 0 0 0 0 0 0 0 0 0 0 0 0 4 0 0 0 0 0 0 0 0 0 0 0 0 0
65 83 90 82 90 112 65 76 63 36 8 43 18 42 74 36 11 5 0 0 0 0 0 0 21 0 0 0 0 0 0 0 0 0 0 0 0 0 0 0 0 0 0 0 0 0 0
66 78 83 72 78 91 76 66 37 48 5 18 10 3 10 71 12 36 0 0 0 0 0 53 28 0 38 0 0 0 0 0 0 0 0 0 0 0 0 0 0 0 0 0 0 0 0
73 78 78 73 70 84 84 51 6 0 25 20 31 7 22 12 79 41 2 0 0 0 3 64 60 36 0 0 0 0 0 0 0 0 0 0 0 0 0 0 0 0 0 0 0 0 0
75 78 64 63 75 87 75 25 4 2 66 4 20 4 37 38 0 6 0 0 0 0 6 4 24 2 0 7 0 0 0 0 0 0 0 0 0 0 0 0 0 0 0 0 0 0 0
85 79 73 80 75 87 59 42 5 74 64 2 7 15 9 22 27 0 0 0 0 0 17 0 1 0 0 0 0 0 0 0 0 0 0 0 0 0 0 0 0 0 0 0 0 0 0

GFSGBSN_con_sbcape_033.txt.gz
CAPE
15 17 18 13 9 10 0 0 0 0 0 0 0 0 0 0 0 0 0 0 0 0 0 4 4 0 0 0 0 0 11 21 0 0 0 0 0 0 0 0 0 0 0 0 0 76 52
6 21 21 20 17 7 0 0 0 0 0 1 0 0 0 0 0 0 0 0 0 0 0 2 3 0 0 0 0 0 0 0 0 0 0 0 0 0 0 0 0 0 0 158 98 103 90
19 26 27 21 21 21 13 0 3 0 0 0 0 0 0 0 0 0 0 0 0 0 0 1 0 0 0 0 0 0 0 0 0 0 0 0 0 0 0 0 0 0 8 169 169 95 110
24 30 27 24 20 18 18 14 5 5 0 0 0 0 0 0 0 0 0 0 0 0 0 0 0 0 0 0 0 0 0 0 0 0 0 0 0 0 0 0 0 0 0 2 170 133 63
33 36 31 27 21 18 16 26 15 5 1 0 1 0 0 0 0 0 0 0 0 0 0 0 0 0 0 0 0 0 0 0 0 0 0 0 0 0 0 0 0 0 0 0 156 38 7
32 23 18 32 26 29 18 16 20 10 7 0 0 0 0 0 0 0 0 0 0 0 0 0 0 0 0 0 0 0 0 0 0 0 0 0 0 0 0 0 1 0 0 0 0 0 6
59 50 41 22 32 21 37 24 19 15 0 0 0 0 0 0 0 0 0 0 0 0 0 0 0 0 0 0 0 0 0 0 0 0 0 0 0 0 0 0 0 0 0 0 0 0 0
68 56 48 45 37 15 9 20 21 20 13 5 0 0 0 0 0 0 0 0 0 0 0 0 0 0 0 0 0 0 0 0 0 0 0 0 0 0 0 0 0 0 0 0 0 0 0
57 64 63 54 47 43 22 23 30 21 13 10 1 0 0 0 0 0 0 0 0 0 0 0 0 0 0 0 0 0 0 0 0 0 0 0 0 0 0 0 0 0 0 0 0 0 0
71 65 72 65 50 65 43 30 26 26 23 2 0 0 0 0 0 0 0 0 0 0 0 0 0 0 0 0 0 0 0 0 0 0 0 0 0 0 0 0 0 0 0 0 0 0 0
45 51 61 74 53 39 38 39 32 40 27 21 0 0 0 0 0 0 0 0 0 0 0 0 0 0 0 0 0 0 0 0 0 0 0 0 0 0 0 0 0 0 0 0 0 0 0
46 37 70 73 61 40 41 41 37 38 25 30 0 0 0 0 0 0 0 0 0 0 0 0 0 0 0 0 0 0 0 0 0 0 0 0 0 0 0 0 0 0 0 0 0 0 0
46 35 57 67 76 61 45 74 41 35 39 26 13 8 0 0 0 0 0 0 4 0 0 0 0 0 0 0 0 0 0 0 0 0 0 0 0 0 0 0 0 0 0 0 0 0 0
60 31 23 51 94 89 58 65 45 39 42 37 27 20 1 0 0 0 32 75 2 0 0 0 0 0 0 0 0 0 0 0 0 0 0 0 0 0 0 0 0 0 0 0 0 0 0
78 54 41 20 62 108 67 54 65 68 52 47 43 48 23 0 0 0 81 29 0 0 0 0 0 0 0 0 0 0 0 0 0 0 0 0 0 0 0 0 0 0 0 0 0 0 0
107 65 46 41 45 124 76 60 73 63 56 54 31 50 32 0 0 0 24 6 4 0 0 0 0 0 0 0 0 0 0 0 0 0 0 0 0 0 0 0 0 0 0 0 0 0 0
98 83 43 46 60 102 109 90 79 67 55 52 46 61 17 0 0 0 4 2 0 0 0 0 0 0 0 0 0 0 0 0 0 0 0 0 0 0 0 0 0 0 0 0 0 0 0
93 65 53 22 41 94 117 75 93 60 47 52 43 27 21 4 10 0 0 0 0 0 0 0 0 0 0 0 0 0 0 0 0 0 0 0 0 0 0 0 0 0 0 0 0 0 0
98 47 43 36 27 47 43 71 77 74 66 20 33 67 57 23 11 0 0 0 0 0 0 0 0 0 0 0 0 0 0 0 0 0 0 0 0 0 0 0 0 0 0 0 0 0 0
73 43 23 40 72 90 61 63 67 73 67 48 77 61 68 84 0 1 0 0 0 0 0 0 0 0 0 0 0 0 0 0 0 0 0 0 0 0 0 0 0 6 13 0 0 0 0
66 39 28 29 103 81 64 68 78 82 25 7 47 47 42 37 12 4 0 0 0 0 0 0 0 0 0 0 0 0 0 0 0 0 0 0 0 0 0 0 0 0 0 0 0 0 0
87 30 19 25 78 102 87 66 63 80 87 34 27 56 53 7 13 12 3 0 0 0 0 0 0 0 0 0 0 0 0 0 0 0 0 0 0 0 0 0 0 0 0 0 0 0 0
97 23 22 31 80 87 92 89 79 96 97 23 5 1 28 14 2 20 1 0 0 0 0 0 0 0 0 0 0 0 0 0 0 0 0 0 0 0 0 0 0 0 0 0 0 0 0
41 25 31 39 79 94 91 83 98 113 56 77 8 15 50 14 7 2 1 2 0 0 0 0 0 0 0 0 0 0 0 0 0 0 0 0 0 0 0 0 0 0 0 0 0 0 0
23 32 43 49 84 81 63 79 81 73 47 1 50 19 43 23 0 15 3 0 0 0 0 0 0 0 0 0 0 11 2 0 0 0 0 0 0 0 0 0 0 0 0 0 0 0 0
25 43 45 63 76 56 50 58 50 69 7 24 1 4 11 21 1 9 2 3 0 0 0 0 0 0 0 0 0 11 38 0 0 0 0 0 0 0 0 0 0 0 0 0 0 0 0
41 41 43 36 65 57 61 47 109 67 23 28 15 54 25 13 5 31 32 0 0 0 0 0 16 7 0 0 0 0 0 0 0 0 0 0 0 0 0 0 0 0 0 0 0 0 0
31 39 32 69 72 61 62 46 45 73 107 10 18 5 4 6 4 19 7 5 0 0 0 0 73 12 0 6 0 0 0 0 0 0 0 0 0 0 0 0 0 0 0 0 0 0 0
48 68 73 65 68 73 90 71 64 34 54 0 63 60 14 11 9 0 0 0 0 0 0 0 0 7 2 1 0 0 0 0 0 0 0 0 0 0 0 0 0 0 0 0 0 0 0

GFSGBSN_con_sbcape_036.txt.gz
CAPE
12 10 22 25 27 19 7 11 3 0 0 0 1 0 0 0 0 0 0 0 0 0 0 1 3 1 0 0 0 0 0 0 0 0 0 0 0 0 0 0 0 0 0 0 0 85 70
28 24 19 22 29 21 12 12 8 7 0 0 0 0 0 0 0 0 0 0 0 0 0 0 2 0 0 0 0 0 0 0 0 0 0 0 0 0 0 0 0 0 0 80 103 140 104
13 24 29 12 23 27 20 18 18 3 0 0 0 0 0 0 0 0 0 0 0 0 0 0 1 0 0 0 0 0 0 0 0 0 0 0 0 0 0 0 0 0 96 110 169 145 128
24 20 24 32 13 10 24 20 17 17 13 10 0 4 0 0 0 0 0 0 0 0 0 0 0 0 0 0 0 0 0 0 0 0 0 0 0 0 0 0 0 0 0 0 143 114 23
57 19 24 30 29 26 14 28 21 16 16 7 0 0 0 1 0 0 0 0 0 0 2 0 0 0 0 0 0 0 0 0 0 0 0 0 0 0 0 0 0 0 0 0 167 62 22
43 60 22 30 30 30 29 7 27 21 14 4 0 0 0 0 0 0 0 0 0 0 0 0 0 0 0 0 0 0 0 0 0 0 0 0 0 0 0 0 2 0 0 0 0 0 8
70 66 54 41 32 35 25 32 12 26 21 12 0 0 0 0 0 0 0 0 0 0 0 0 0 0 0 0 0 0 0 0 0 0 0 0 0 0 0 0 0 0 0 0 0 0 0
79 81 71 29 49 45 36 38 23 24 22 20 13 5 0 0 0 0 0 0 0 0 0 0 0 0 0 0 0 0 0 0 0 0 0 0 0 0 0 0 0 0 0 0 0 0 0
78 69 62 50 23 49 49 44 38 31 26 21 11 4 0 0 0 0 0 0 0 0 0 0 0 0 0 0 0 0 0 0 0 0 0 0 0 0 0 0 0 0 0 0 0 0 0
58 59 66 71 59 38 56 41 41 31 33 20 12 0 0 0 0 0 0 0 0 0 0 0 0 0 0 0 0 0 0 0 0 0 0 0 0 0 0 0 0 0 0 0 0 0 0
69 65 54 55 74 55 46 42 41 40 27 36 14 0 0 0 0 0 0 0 0 0 0 0 0 0 0 0 0 0 0 0 0 0 0 0 0 0 0 0 0 0 0 0 0 0 0
70 69 53 47 47 61 48 42 34 40 35 27 23 11 0 1 0 0 0 0 0 0 0 0 0 0 0 0 0 0 0 0 0 0 0 0 0 0 0 0 0 0 0 0 0 0 0
74 84 72 59 41 41 85 74 41 39 38 32 29 29 32 2 0 0 0 0 63 0 0 0 0 0 0 0 0 0 0 0 0 0 0 0 0 0 0 0 0 0 0 0 0 0 0
97 87 82 69 63 42 52 97 59 36 50 37 29 27 39 19 0 0 18 68 1 0 0 0 0 0 0 0 0 0 0 0 0 0 0 0 0 0 0 0 0 0 0 0 0 0 0
99 108 102 83 62 53 55 88 92 48 61 27 34 10 41 27 0 0 39 25 0 0 0 0 0 0 0 0 0 0 0 0 0 0 0 0 0 0 0 0 0 0 0 0 0 0 0
97 83 97 93 76 58 42 65 94 82 51 45 28 26 2 33 0 0 3 7 10 0 0 0 0 0 0 0 0 0 0 0 0 0 0 0 0 0 0 0 0 0 0 0 0 0 0
107 82 86 100 57 60 38 38 101 105 52 85 60 26 0 49 11 5 0 2 2 0 0 0 0 0 0 0 0 0 0 0 0 0 0 0 0 0 0 0 0 0 0 0 0 0 0
123 98 74 94 63 48 39 38 86 106 55 60 55 3 0 24 33 25 13 0 0 0 0 0 0 0 0 0 0 0 0 0 0 0 0 0 0 0 0 0 0 0 0 0 0 0 0
162 121 86 90 80 24 31 33 80 93 73 26 35 30 80 0 19 2 7 0 0 0 0 0 0 0 0 0 0 0 0 0 0 0 0 0 0 0 0 0 0 0 0 0 0 0 0
149 163 121 98 94 32 26 41 84 99 70 26 56 10 76 62 0 0 5 2 0 0 0 0 0 0 0 0 0 0 0 0 0 0 0 0 0 0 0 0 0 0 0 0 0 0 0
159 113 63 94 80 36 34 46 88 92 62 28 62 1 28 4 7 2 0 0 2 0 0 0 0 0 0 0 0 0 0 0 0 0 0 0 0 0 0 0 0 0 0 0 0 0 0
164 135 83 75 68 33 38 51 90 45 70 6 20 23 77 1 0 14 24 8 1 0 0 0 0 0 0 0 0 0 0 0 0 0 0 0 0 0 0 0 0 0 0 0 0 0 0
216 184 101 99 48 28 43 55 78 16 63 4 1 0 24 1 2 13 0 0 3 0 0 0 0 0 0 0 0 0 0 0 0 0 0 0 0 0 0 0 0 0 0 0 0 0 0
246 202 125 90 31 30 48 70 45 31 18 0 0 43 66 27 21 0 0 5 7 0 0 0 0 0 0 0 0 0 0 0 0 0 0 0 0 0 0 0 0 0 0 0 0 0 0
253 161 100 111 31 33 56 53 31 49 7 0 0 4 54 55 18 31 9 0 12 0 0 0 0 0 0 0 0 0 0 0 0 0 0 0 0 0 0 0 0 0 0 0 0 0 0
200 126 98 71 29 47 42 29 36 35 36 0 3 3 35 29 35 27 35 0 0 0 0 0 0 0 0 2 0 2 16 0 0 0 0 0 0 0 0 0 0 0 0 0 0 0 0
140 76 70 42 41 49 37 40 23 33 76 0 0 0 45 9 10 34 15 0 5 0 0 0 0 0 0 0 0 0 7 0 1 0 0 0 0 0 0 0 0 0 0 0 0 0 0
52 69 50 39 34 39 38 32 7 54 83 0 0 0 49 11 0 2 54 0 0 0 0 0 34 5 0 0 0 0 0 0 0 0 0 0 0 0 0 0 0 0 0 0 0 0 0
13 27 32 30 34 40 36 33 54 64 72 3 1 0 0 36 3 0 0 0 0 0 0 0 0 0 0 0 0 0 0 0 0 0 0 0 0 0 0 0 0 0 0 0 0 0 0

GFSGBSN_con_sbcape_039.txt.gz
CAPE
8 7 10 18 22 23 4 18 18 15 8 2 0 0 2 2 0 0 0 0 0 0 0 0 1 1 0 0 0 0 0 0 0 0 0 0 0 0 0 0 0 0 0 0 0 96 74
23 21 20 12 21 16 18 6 19 15 11 0 0 0 0 0 3 0 0 0 0 0 0 0 1 0 0 0 0 0 0 0 0 0 0 0 0 0 0 0 0 0 2 98 102 174 157
42 32 32 28 36 25 17 23 9 9 14 9 10 10 2 0 0 0 0 0 0 0 0 0 1 0 0 0 0 0 0 0 0 0 0 0 0 0 0 0 0 0 66 83 209 178 324
28 31 51 34 31 28 19 19 22 3 17 13 10 0 2 1 0 0 0 0 0 0 0 0 0 0 0 0 0 0 0 0 0 0 0 0 0 0 0 0 0 0 0 0 128 162 63
28 26 31 50 32 31 27 30 6 14 24 16 18 1 0 0 0 0 0 0 0 0 0 0 0 0 0 0 0 0 0 0 0 0 0 0 0 0 0 0 0 0 0 4 214 169 104
48 36 39 55 28 34 32 29 32 14 16 18 13 7 0 0 0 0 0 0 0 0 0 0 0 0 0 0 0 0 0 0 0 0 0 0 0 0 0 0 8 0 2 0 0 0 61
32 55 58 41 49 25 47 33 33 26 19 27 18 16 0 0 0 0 0 0 0 0 0 0 0 0 0 0 0 0 0 0 0 0 0 0 0 0 0 0 0 0 1 0 0 0 9
67 63 65 62 58 50 29 50 42 30 24 25 23 20 9 0 0 0 0 0 0 0 0 0 0 0 0 0 0 0 0 0 0 0 0 0 0 0 0 0 0 0 0 0 0 0 0
48 60 66 57 60 51 65 38 42 34 31 21 20 13 4 0 0 0 0 0 0 0 0 0 0 0 0 0 0 0 0 0 0 0 0 0 0 0 0 0 0 0 0 0 0 0 0
60 59 62 61 64 63 54 80 34 39 36 26 22 13 1 10 0 0 0 0 0 0 0 0 0 0 0 0 0 0 0 0 0 0 0 0 0 0 0 0 0 0 0 0 0 0 0
59 69 74 66 56 47 45 62 99 52 40 35 24 22 1 9 0 0 0 0 0 0 0 0 0 0 0 0 0 0 0 0 0 0 0 0 0 0 0 0 0 0 0 0 0 0 0
82 70 64 86 65 54 41 39 85 78 48 42 26 30 13 5 4 0 0 0 0 1 0 0 0 0 0 0 0 0 0 0 0 0 0 0 0 0 0 0 0 0 0 0 0 0 0
104 90 80 73 89 69 57 34 31 76 68 47 37 34 39 37 11 0 0 1 7 5 0 0 0 0 0 0 0 0 0 0 0 0 0 0 0 0 0 0 0 0 0 0 0 0 0
92 93 100 92 83 86 71 56 25 44 88 54 46 39 26 21 11 0 14 14 13 0 0 0 0 0 0 0 0 0 0 0 0 0 0 0 0 0 0 0 0 0 0 0 0 0 0
92 93 91 87 94 85 85 66 41 35 85 58 55 41 17 14 3 0 23 7 6 0 0 0 0 0 0 0 0 0 0 0 0 0 0 0 0 0 0 0 0 0 0 0 0 0 0
98 98 79 90 79 88 83 78 42 42 83 57 28 57 35 18 28 7 20 7 3 0 0 0 0 0 0 0 0 0 0 0 0 0 0 0 0 0 0 0 0 0 0 0 0 0 0
121 109 96 87 85 66 78 81 62 39 87 80 30 33 9 22 71 26 16 15 1 0 0 0 0 0 0 0 0 0 0 0 0 0 0 0 0 0 0 0 0 0 0 0 0 0 0
139 132 120 101 91 79 79 67 64 52 55 98 19 13 0 31 18 26 17 8 4 0 0 0 0 0 0 0 0 0 0 0 0 0 0 0 0 0 0 0 0 0 0 0 6 0 0
75 52 159 122 124 86 86 56 45 38 68 11 9 22 29 15 32 4 4 11 1 0 0 0 0 0 0 0 0 0 0 0 0 0 0 0 0 0 0 0 0 0 0 0 0 0 0
105 115 120 89 104 123 102 53 28 44 80 9 37 32 87 79 0 0 9 11 8 0 0 0 0 4 3 0 0 0 0 0 0 0 0 0 0 0 0 0 0 0 0 0 0 0 0
84 121 117 153 225 119 118 53 22 60 83 26 62 33 9 23 18 0 0 0 5 2 0 0 0 2 2 0 0 0 0 0 0 0 0 0 0 0 0 0 0 0 0 0 0 0 0
116 104 99 157 192 122 142 44 22 68 100 51 12 37 17 25 3 27 29 8 0 0 0 0 0 0 0 2 0 0 0 0 0 0 0 0 0 0 0 0 0 0 0 0 0 0 0
101 108 91 109 132 152 119 34 23 74 83 26 11 0 1 0 8 2 6 7 8 3 0 0 0 0 0 0 1 0 0 0 0 0 0 0 0 0 0 0 0 0 0 0 0 0 0
119 139 130 103 143 109 82 28 34 79 24 9 0 0 9 0 17 0 7 21 18 2 0 0 0 0 0 1 0 0 0 0 0 0 0 0 0 0 0 0 0 0 0 0 0 0 0
125 133 150 107 136 60 80 24 48 68 63 0 0 0 24 43 34 9 22 2 42 25 1 0 0 0 0 21 10 1 0 0 0 0 0 0 0 0 0 0 0 0 0 0 0 0 0
145 89 95 125 114 21 60 20 38 64 71 1 0 0 15 47 49 25 19 11 9 18 3 0 0 0 0 0 7 0 4 0 0 0 0 0 0 0 0 0 0 0 0 0 0 0 0
79 84 141 141 57 32 49 23 45 67 52 1 0 0 45 40 13 40 63 22 12 15 0 0 0 0 0 0 0 0 0 0 0 0 0 0 0 0 0 0 0 0 0 0 0 0 0
174 188 174 82 43 64 25 31 43 52 29 0 0 0 7 17 1 9 0 20 6 2 0 0 0 0 0 0 0 0 0 0 0 0 0 0 0 0 0 0 0 0 0 0 0 0 0
157 116 73 54 39 29 22 39 46 45 24 0 0 2 0 0 8 24 3 0 0 16 0 0 0 0 0 0 0 0 0 0 0 4 0 1 0 0 0 0 0 0 0 0 0 0 0

GFSGBSN_con_sbcape_042.txt.gz
CAPE
35 21 19 14 14 18 15 12 21 14 11 12 0 0 0 0 4 1 0 0 0 0 0 0 0 0 0 0 0 0 0 0 0 0 0 0 0 0 0 7 1 3 10 15 33 61 483
27 37 32 29 23 16 17 21 23 14 11 12 11 4 1 0 0 0 0 0 0 0 0 0 0 0 0 0 0 0 0 0 0 0 0 0 0 0 0 10 8 17 21 394 187 299 422
24 28 41 45 29 27 25 27 20 7 18 6 13 10 5 0 0 0 0 0 0 0 0 0 0 0 0 0 0 0 0 0 0 0 0 0 0 0 0 8 0 13 72 345 373 554 669
36 32 25 32 32 40 27 22 23 21 13 19 22 15 4 0 0 0 0 0 0 0 0 0 1 0 0 0 0 0 0 0 0 0 0 0 0 0 0 0 4 34 29 43 139 527 483
23 25 37 42 28 37 39 24 26 24 20 15 18 18 6 0 0 0 0 0 0 0 0 0 0 0 0 0 0 0 0 0 0 0 0 0 0 0 0 0 12 47 63 36 99 490 426
39 43 52 54 56 44 49 44 24 28 28 18 19 16 14 3 0 0 0 0 0 0 0 0 0 0 0 0 0 0 0 0 0 0 0 0 0 0 0 0 28 51 64 83 97 241 432
14 48 59 52 54 50 27 50 41 22 26 27 20 19 13 8 0 1 0 0 0 0 0 0 0 0 0 0 0 0 0 0 0 0 0 0 0 0 0 0 2 18 32 60 41 15 45
51 37 23 39 47 29 13 23 35 41 27 26 20 17 17 0 0 0 2 5 0 0 0 0 0 0 0 0 0 0 0 0 0 0 0 0 0 0 0 0 1 26 45 46 21 1 5
56 53 54 51 44 44 37 40 21 46 39 26 22 16 16 0 3 5 14 5 0 0 0 0 0 0 0 0 0 0 0 0 0 0 0 0 0 0 0 0 3 45 55 37 17 5 0
70 65 60 63 64 61 59 64 43 36 33 34 24 19 14 0 0 7 2 0 0 0 0 0 0 0 0 0 0 0 0 0 0 0 0 0 0 0 0 0 0 34 15 8 20 27 64
72 81 79 82 70 58 51 49 51 39 32 50 36 27 21 8 8 9 1 0 0 3 0 0 0 0 0 0 0 0 0 0 0 0 0 0 0 0 0 0 0 15 4 13 11 55 35
66 73 89 96 90 77 63 54 44 35 31 45 41 38 29 26 4 3 0 0 5 22 0 0 0 0 0 0 0 0 0 0 0 0 0 1 0 0 0 0 0 0 9 14 48 89 79
60 61 71 89 88 66 87 67 54 40 33 63 48 50 54 39 4 3 12 67 55 1 0 0 0 0 0 0 0 0 0 0 0 0 0 0 0 0 0 0 0 0 20 132 74 118 120
68 70 69 73 85 90 85 81 67 53 35 65 75 33 40 54 4 29 45 129 0 0 0 0 0 0 0 0 0 0 0 0 0 0 0 0 0 0 0 0 0 3 38 113 13 50 79
81 79 73 72 77 86 93 83 75 69 47 51 76 62 38 53 54 14 124 79 0 0 0 0 0 0 0 0 0 0 0 0 0 0 0 0 0 0 0 0 0 7 11 7 52 13 30
84 87 84 78 74 78 84 82 86 80 53 48 102 57 47 35 90 21 57 0 0 0 0 0 0 0 0 0 0 0 0 0 0 0 0 0 6 0 0 0 0 11 6 34 60 24 5
92 82 81 73 67 71 79 86 77 84 69 61 146 64 39 62 102 30 23 0 0 1 0 0 0 0 0 0 0 0 0 0 0 0 0 0 2 0 0 1 15 18 32 7 32 44 69
32 49 87 88 91 80 75 86 74 77 63 102 81 38 95 151 33 27 30 0 0 0 0 0 0 8 0 0 0 0 0 0 0 0 0 0 7 8 0 0 0 1 15 52 56 22 17
58 60 61 88 91 70 85 83 69 54 68 137 40 51 139 148 14 25 4 21 7 4 0 3 0 3 15 22 0 0 0 0 0 0 0 0 2 20 2 0 0 0 0 0 24 3 83
83 91 96 96 85 138 122 93 73 47 64 104 60 21 91 66 27 0 0 48 28 15 0 8 9 2 38 42 6 0 0 0 0 0 0 9 7 0 0 0 2 6 5 14 48 125 93
97 104 98 82 92 92 128 140 87 44 58 87 46 37 18 38 56 2 3 3 19 41 7 7 39 1 40 34 34 7 0 0 0 0 0 2 15 6 0 0 0 0 0 26 31 65 70
88 91 105 102 96 94 85 106 68 36 61 46 4 77 109 2 5 17 10 22 20 39 2 0 1 0 40 62 44 63 42 39 12 0 0 5 4 18 0 0 0 0 0 2 21 1 36
87 78 80 89 99 100 96 49 94 35 57 21 42 55 97 17 21 26 69 0 17 61 39 1 0 0 31 56 80 5 0 0 0 43 33 28 16 5 0 0 0 0 0 1 16 29 21
132 147 119 96 105 105 110 78 106 46 39 63 47 60 79 58 73 13 13 4 1 28 98 36 12 2 2 54 26 19 1 1 13 0 10 30 29 37 28 1 38 0 0 4 10 0 0
117 94 101 119 115 109 107 97 68 46 38 59 58 46 61 120 29 17 26 18 8 35 60 70 69 0 21 15 8 0 0 0 3 20 16 31 46 32 101 5 0 0 0 0 7 10 7
46 203 186 131 80 110 96 92 67 50 42 25 107 75 160 151 50 26 50 41 75 53 109 76 26 183 57 63 85 20 0 0 26 5 0 0 3 154 0 28 15 0 0 0 0 86 40
42 78 119 91 107 97 103 71 87 48 42 25 86 139 177 67 75 114 122 83 55 95 96 43 73 101 55 59 159 66 0 0 10 72 0 0 0 54 71 74 9 0 0 0 23 130 0
12 86 85 97 99 67 67 47 54 37 48 18 41 118 118 97 103 76 95 120 103 149 132 56 151 164 168 78 53 62 138 60 32 55 9 20 63 38 64 91 32 0 0 13 139 3 0
45 90 58 49 51 38 26 42 43 41 54 15 29 67 109 114 20 37 2 4 5 109 162 158 0 20 15 72 152 122 164 19 125 116 10 41 67 173 63 66 82 0 22 0 17 2 0

GFSGBSN_con_sbcape_045.txt.gz
CAPE
13 6 10 31 24 18 21 23 22 16 19 15 17 5 0 0 0 2 0 0 0 0 0 0 0 0 0 0 0 0 0 0 0 0 0 0 0 0 4 2 5 8 23 32 44 38 440
18 23 17 14 22 21 14 27 26 20 13 18 15 14 13 0 0 0 0 0 0 0 0 0 0 0 0 0 0 0 0 0 0 0 0 0 0 0 0 0 0 13 5 124 74 239 363
25 23 24 32 26 17 24 26 20 21 20 15 21 19 14 9 0 0 0 0 0 0 0 0 0 0 0 0 0 0 0 0 0 0 0 0 0 0 0 2 0 0 5 130 30 133 173
20 11 16 41 38 34 26 27 37 24 26 24 20 19 14 11 0 0 0 0 0 0 0 0 0 0 0 0 0 0 0 0 0 0 0 0 0 0 0 0 0 0 20 9 47 218 342
35 31 19 31 30 45 35 25 29 33 24 27 20 17 15 8 0 0 0 0 0 0 0 0 0 0 0 0 0 0 0 0 0 0 0 0 0 0 0 0 20 16 38 17 22 75 310
24 31 44 54 39 36 54 36 30 40 37 23 25 18 14 14 3 0 0 0 0 0 0 0 0 0 0 0 0 0 0 0 0 0 0 0 0 0 0 11 33 28 36 31 67 1 100
21 32 35 30 46 38 21 36 30 35 31 36 23 25 17 14 5 0 0 0 0 0 0 0 0 0 0 0 0 0 0 0 0 0 0 0 0 3 23 17 2 15 39 56 42 17 0
47 53 52 38 32 15 35 46 29 15 25 27 34 22 17 18 5 0 12 0 0 0 0 0 0 0 0 0 0 0 0 0 0 0 0 5 0 2 0 0 0 11 29 46 35 4 0
61 64 68 64 53 54 29 32 49 28 9 35 39 29 16 18 12 2 1 0 0 0 0 0 0 0 0 0 0 0 0 0 0 0 0 1 25 0 0 0 0 21 56 36 27 37 3
44 54 63 65 65 66 65 66 51 48 16 21 18 29 18 14 0 0 0 0 0 0 0 0 0 0 0 0 0 0 0 0 0 0 0 0 7 0 0 0 2 56 23 1 9 22 55
55 57 61 67 81 74 70 60 62 58 55 18 26 12 23 20 1 8 45 0 1 32 0 0 0 0 0 0 0 0 0 0 0 0 0 0 1 0 0 1 11 28 0 0 28 76 105
50 48 49 56 64 65 72 78 56 61 55 33 29 37 21 25 16 0 57 45 153 19 0 0 0 0 0 0 0 0 0 0 0 0 0 0 3 0 1 2 1 13 1 9 66 110 177
51 54 57 55 54 62 75 80 87 74 54 48 36 55 59 34 16 1 6 180 26 0 0 0 0 0 0 0 0 0 0 0 0 0 0 0 1 0 0 0 0 0 48 128 144 166 163
66 64 62 67 66 62 69 76 75 78 67 55 47 58 15 71 8 1 41 166 0 0 0 0 0 0 0 0 0 0 0 0 0 0 2 1 1 0 0 0 16 7 56 172 58 190 191
61 63 57 49 52 64 69 77 70 81 77 54 62 73 63 91 48 2 19 96 0 0 0 0 0 0 0 0 0 0 0 0 0 0 0 8 9 5 1 0 7 37 44 109 85 136 100
67 73 66 49 44 47 62 78 77 76 68 52 79 67 50 19 100 74 28 32 0 0 0 0 0 0 3 0 0 0 0 0 0 0 0 2 19 3 2 4 7 13 41 57 95 119 163
75 63 68 62 45 36 49 73 75 67 60 55 100 59 30 88 121 122 11 2 0 0 0 0 0 0 5 15 0 0 0 0 0 0 0 3 8 21 24 2 24 4 49 37 104 107 162
63 68 60 73 67 65 60 58 69 70 45 44 51 39 87 123 36 70 48 0 0 0 0 1 6 13 7 32 6 0 0 0 0 0 0 0 21 44 21 14 8 17 35 69 106 99 142
63 71 69 62 36 38 65 54 65 60 58 47 31 63 176 162 22 87 6 0 0 0 2 10 50 42 66 42 39 1 0 0 4 0 1 0 6 55 54 31 15 12 55 73 110 104 108
88 88 86 82 69 60 75 65 50 54 55 36 34 41 56 91 23 47 0 0 0 0 13 17 57 61 57 100 63 30 4 0 6 0 0 6 4 10 44 38 48 9 3 33 64 197 94
32 60 79 71 80 71 79 88 78 69 41 35 30 74 15 21 61 30 1 0 4 0 0 25 57 51 12 64 47 48 37 25 0 1 4 4 10 8 14 38 34 39 41 45 67 56 119
105 90 77 71 68 78 76 83 85 82 35 23 3 66 80 39 37 26 22 3 2 19 1 5 46 64 87 79 63 45 44 10 3 11 21 29 26 17 25 39 34 17 11 18 33 43 47
73 77 71 71 78 99 96 80 84 81 23 4 27 10 91 37 65 78 55 0 0 16 30 10 3 55 79 105 201 96 50 21 4 55 62 62 83 51 50 36 47 80 0 9 15 18 35
93 82 74 73 77 87 103 86 82 92 59 1 33 62 170 90 107 29 6 4 0 5 56 35 69 129 54 175 71 94 42 0 3 4 21 158 96 100 80 7 48 1 1 0 0 0 13
43 34 54 71 63 70 95 88 74 89 120 0 36 248 181 211 47 35 36 37 19 43 93 101 111 59 127 86 87 34 19 0 0 2 1 16 201 146 161 78 0 0 0 1 3 0 2
69 144 208 128 84 53 58 81 83 61 31 17 70 279 486 288 73 22 48 45 29 79 140 93 160 180 246 163 111 38 0 0 0 2 6 61 111 258 93 61 48 0 0 0 2 1 0
84 104 122 136 159 87 49 82 80 51 51 41 66 449 266 108 100 49 63 60 33 103 170 64 243 362 302 291 161 154 17 0 4 45 0 0 28 170 147 98 31 0 0 14 57 73 32
36 35 41 54 68 85 73 52 62 42 53 26 23 206 198 142 78 27 74 85 76 215 280 73 277 288 408 278 169 59 146 50 33 0 47 36 63 114 153 148 85 2 1 6 98 209 124
26 21 52 102 102 40 63 48 61 28 51 26 41 99 323 194 19 57 139 140 98 104 254 251 194 153 84 172 184 29 305 568 34 79 10 84 68 187 111 79 136 30 131 63 91 120 174

GFSGBSN_con_sbcape_048.txt.gz
CAPE
22 16 9 6 10 18 31 24 28 22 17 11 10 16 9 1 0 0 0 0 0 0 0 0 0 0 0 0 0 0 0 0 0 0 0 0 0 0 0 4 0 0 1 0 18 2 0
21 21 21 19 14 4 7 27 35 23 19 16 15 3 14 15 3 0 0 0 0 0 0 0 0 0 0 0 0 0 0 0 0 0 0 0 0 0 0 0 0 0 0 0 43 3 44
18 21 24 39 39 22 9 27 17 31 28 20 22 17 15 17 13 0 0 0 0 0 0 1 0 0 0 0 0 0 0 0 0 0 0 0 0 0 0 0 0 0 0 0 28 24 61
18 31 27 32 30 31 39 32 30 16 28 31 24 18 6 14 11 3 0 0 0 0 2 1 0 0 0 0 0 0 0 0 0 0 0 0 0 0 0 0 0 0 0 0 6 58 5
19 29 25 41 41 29 30 36 30 28 31 42 33 20 16 6 10 6 0 0 0 0 2 0 0 0 0 0 0 0 0 0 0 0 0 0 0 0 0 0 0 0 0 1 20 15 39
18 35 37 39 34 39 40 39 41 29 36 44 38 30 20 16 12 5 0 0 0 0 0 0 0 0 0 0 0 0 0 0 0 0 0 0 0 0 0 0 0 0 1 3 7 12 0
20 22 37 40 41 46 15 45 43 35 32 40 29 30 25 17 14 8 0 0 0 0 0 0 0 0 0 0 0 0 0 0 0 0 0 0 0 0 0 2 0 0 0 6 24 0 45
34 35 27 28 58 54 17 29 24 43 34 24 31 15 35 18 16 5 0 0 0 0 0 0 0 0 0 0 0 0 0 0 0 0 0 0 0 0 0 14 0 0 0 6 14 37 0
53 55 51 42 45 62 46 61 47 26 53 31 16 39 35 15 14 0 0 0 0 1 0 0 0 0 0 0 0 0 0 0 0 0 0 0 0 4 0 0 0 0 0 22 21 0 1
62 51 57 50 67 61 59 58 62 60 46 48 23 45 25 4 0 0 0 0 0 0 1 0 0 0 0 0 0 0 0 0 0 0 0 0 0 1 0 0 0 0 0 3 1 1 1
54 54 58 62 60 59 77 76 84 78 62 53 36 46 31 9 1 0 0 7 2 106 0 0 0 0 0 0 0 0 0 0 0 0 0 0 0 0 0 0 0 0 1 10 1 0 17
56 53 52 60 72 68 68 72 72 76 72 69 58 48 30 18 17 0 0 0 91 21 0 0 0 0 0 0 0 0 0 0 0 0 0 0 0 0 1 0 0 1 2 2 0 0 35
45 46 56 60 56 64 69 74 76 84 83 78 64 43 45 2 28 7 35 10 39 0 0 0 0 0 0 0 0 0 0 0 0 0 0 0 0 3 0 0 2 0 1 24 31 56 138
60 57 63 63 54 54 62 70 68 70 90 89 63 49 31 7 5 17 17 146 2 0 0 0 0 0 0 0 0 0 0 0 0 0 0 0 2 0 0 0 0 0 0 73 62 53 114
66 67 62 56 55 54 49 59 65 73 72 60 56 83 63 57 46 55 41 53 0 0 0 0 0 0 0 0 0 0 0 0 0 0 0 0 2 1 0 0 0 4 0 9 45 6 104
74 63 56 49 52 55 53 52 60 74 69 54 94 69 79 97 59 87 60 18 0 0 0 0 0 0 3 0 0 0 0 0 2 0 0 1 52 14 3 0 0 0 2 28 67 46 67
62 57 55 49 50 48 59 58 62 69 48 50 64 34 50 57 178 84 40 1 0 0 0 0 0 0 0 0 8 0 0 0 0 0 0 0 20 21 19 0 0 0 4 5 94 79 143
56 53 52 46 45 57 65 75 72 62 46 52 33 26 97 116 58 39 25 0 0 0 0 0 0 0 4 0 1 16 0 18 0 2 0 0 51 43 9 2 0 4 5 39 82 51 185
58 54 55 58 58 52 46 67 62 60 54 35 20 22 72 114 14 31 13 0 0 0 0 0 0 0 6 20 51 38 31 4 2 2 5 0 9 42 46 60 17 0 26 5 37 101 133
63 57 67 75 74 64 64 60 60 56 57 27 11 4 69 56 22 13 12 0 0 0 0 0 0 0 2 39 73 30 38 20 33 0 0 20 10 7 23 9 24 29 25 27 55 53 24
69 48 66 80 60 85 60 62 74 63 44 30 11 12 2 21 26 15 37 0 0 0 0 0 4 20 3 34 49 20 73 31 8 4 9 43 65 39 26 0 39 21 9 0 6 20 68
95 69 60 38 34 47 78 65 61 70 64 20 1 24 69 15 32 38 33 17 3 0 0 0 24 14 37 46 4 4 96 59 30 32 31 26 62 40 37 6 0 6 1 6 0 8 26
85 84 84 92 78 73 76 73 58 61 72 9 6 1 57 26 41 55 21 0 0 4 9 0 1 43 120 58 14 68 27 76 86 85 72 82 139 44 20 23 7 0 25 16 3 6 19
58 63 62 63 66 88 94 61 52 68 67 0 11 11 74 46 86 28 1 1 2 21 17 1 43 74 65 83 129 59 99 53 26 61 33 73 113 107 42 61 23 0 7 2 0 0 0
53 54 64 73 70 76 83 82 61 57 65 25 39 33 43 133 46 33 10 16 14 47 41 29 58 13 46 301 47 11 8 22 0 66 17 11 108 209 76 32 25 0 0 0 0 0 0
45 51 61 63 66 70 69 69 72 72 89 42 25 26 52 106 119 4 25 20 40 85 95 18 11 118 207 314 122 56 7 5 63 35 9 8 49 97 195 16 0 0 0 0 5 0 0
51 55 62 56 26 39 56 63 71 82 104 80 10 11 82 101 87 188 161 104 56 69 97 34 28 216 318 414 138 14 5 1 15 78 34 7 6 61 60 71 56 1 0 8 19 6 65
54 78 101 74 104 26 57 53 58 91 110 54 22 62 76 98 242 143 20 1 68 218 127 4 288 388 21 113 316 104 140 86 5 21 56 17 19 45 93 70 31 16 20 36 70 274 265
30 35 45 43 88 121 128 67 49 82 119 22 17 41 81 213 102 90 81 154 73 84 229 198 181 126 152 228 282 309 535 321 72 52 54 38 0 14 94 83 125 60 45 112 248 360 357

GFSGBSN_con_sbcape_051.txt.gz
CAPE
4 11 8 10 13 12 1 13 30 34 21 6 5 8 15 10 14 14 1 0 0 0 0 1 3 2 0 0 0 0 0 0 0 0 0 0 0 0 0 0 0 0 0 0 0 0 2
17 8 8 8 8 19 15 11 27 23 22 19 17 4 4 13 14 15 8 0 0 0 0 0 3 1 0 0 0 0 0 0 0 0 0 0 0 0 0 0 0 0 0 0 0 0 16
12 21 22 40 24 15 18 29 35 37 12 19 15 20 4 5 13 14 12 0 0 0 0 1 0 3 0 0 0 0 0 0 0 0 0 0 0 0 0 0 0 0 0 0 0 0 0
22 24 22 28 39 35 29 33 40 39 27 23 24 25 20 8 8 8 4 0 0 0 0 3 0 0 0 0 0 0 0 0 0 0 0 0 0 0 0 0 0 0 0 0 0 3 14
25 20 29 43 39 36 41 43 38 50 36 24 42 25 21 16 13 6 1 0 0 0 0 0 0 0 0 0 0 0 0 0 0 0 0 0 0 0 0 0 0 0 0 0 0 49 34
22 31 42 45 44 47 47 44 46 43 50 38 38 39 19 21 15 4 0 0 0 0 0 0 0 0 0 0 0 0 0 0 0 0 0 0 0 0 0 0 0 0 0 0 8 5 33
20 23 26 29 46 31 29 40 39 34 46 43 31 35 27 25 20 4 0 0 0 0 0 0 0 0 0 0 0 0 0 0 0 0 0 0 0 0 0 0 0 0 0 0 0 2 0
21 20 19 25 33 41 38 49 40 30 30 58 35 15 42 25 17 1 0 0 0 0 0 0 0 0 0 0 0 0 0 0 0 0 0 0 0 0 0 0 0 0 0 0 21 14 0
52 64 50 46 45 53 49 60 50 48 50 42 53 25 36 24 13 0 0 0 0 0 0 0 0 0 0 0 0 0 0 0 0 0 0 0 0 0 0 0 0 0 0 0 9 13 0
55 60 61 51 57 60 64 76 65 52 45 48 60 43 29 14 1 0 0 0 0 0 4 0 0 0 0 0 0 0 0 0 0 0 0 0 0 0 0 0 0 0 0 1 1 0 0
64 61 62 77 78 78 68 60 60 70 71 66 58 58 46 26 0 0 0 0 0 31 0 0 0 0 0 0 0 0 0 0 0 0 0 0 0 0 0 0 0 0 0 1 0 0 0
67 71 84 82 78 65 58 58 55 64 63 75 70 80 64 12 0 0 0 0 6 10 0 0 0 0 0 0 0 0 0 0 0 0 0 0 0 0 0 0 0 0 3 0 0 0 0
82 88 91 89 86 81 61 58 52 53 54 64 83 91 63 3 0 0 0 4 26 9 0 0 0 0 0 0 0 0 0 0 0 0 0 0 0 0 0 0 0 0 0 0 0 0 0
90 78 74 90 89 91 70 66 57 48 52 54 62 88 55 2 0 0 6 47 4 0 0 0 0 0 0 0 0 0 0 0 0 0 0 0 0 0 0 0 0 0 0 0 0 0 0
88 80 80 81 85 87 83 74 70 49 47 55 54 46 41 0 0 3 25 18 0 0 0 0 0 0 1 0 0 0 0 0 0 0 0 0 0 0 0 0 0 0 0 0 25 0 0
91 75 72 67 61 65 70 77 73 59 50 43 39 41 19 2 0 36 20 3 0 0 0 0 0 0 0 0 0 0 0 0 0 0 0 0 0 0 0 0 0 0 0 2 19 8 4
73 74 88 86 82 71 68 65 72 66 60 45 29 25 12 0 25 33 8 3 0 0 0 0 0 0 0 0 0 0 0 0 0 0 0 0 0 0 0 0 0 0 0 0 19 13 3
92 90 81 76 76 72 71 68 73 80 50 36 22 8 1 0 23 23 0 0 0 0 0 0 0 0 0 0 0 0 0 1 1 0 0 0 0 0 0 0 0 0 0 0 0 28 21
87 73 71 67 68 65 59 65 69 77 63 26 15 11 13 1 4 15 3 1 7 0 0 0 0 0 0 0 0 0 13 9 18 0 0 0 0 0 0 0 0 0 0 0 20 31 0
82 68 67 69 66 63 59 62 66 81 67 33 4 1 38 36 0 0 2 3 6 5 0 0 0 0 0 0 0 0 0 47 6 0 0 0 0 0 0 0 3 0 0 0 0 3 2
73 73 70 62 60 60 59 67 77 74 72 42 5 2 2 24 12 7 0 0 2 5 0 0 0 0 0 0 0 0 0 0 0 0 0 0 0 0 0 0 0 13 2 0 1 0 10
74 75 72 62 65 52 66 58 65 59 62 35 0 3 7 0 15 24 10 0 0 0 0 0 0 0 0 0 0 0 16 0 0 0 0 1 0 0 0 0 0 0 0 0 5 12 16
92 96 85 99 101 79 72 31 60 60 62 52 4 0 1 7 11 19 3 0 0 3 0 0 0 0 0 0 0 87 116 103 3 0 1 8 0 0 0 0 1 0 0 0 0 5 0
98 96 93 93 93 93 83 40 30 52 38 12 0 1 1 16 1 1 0 4 0 11 0 0 0 0 0 12 383 191 81 17 1 6 38 0 4 0 0 4 0 0 0 0 0 0 0
58 66 73 70 68 73 77 56 27 28 69 8 0 1 3 1 0 2 0 0 0 1 2 0 0 0 0 0 78 49 6 0 0 21 16 5 1 18 16 0 0 0 0 0 0 0 0
66 71 77 74 77 70 57 55 49 53 63 40 0 5 12 4 0 0 11 0 0 0 0 0 0 0 0 1 82 24 19 1 16 3 10 1 4 11 21 19 0 0 0 0 0 0 0
49 61 66 63 53 65 70 44 53 58 74 46 0 0 9 5 0 9 1 0 0 0 0 0 0 0 6 0 0 23 10 9 9 1 3 6 0 0 0 12 3 0 0 5 0 0 0
59 66 58 61 57 62 58 43 45 66 79 51 10 2 1 3 2 0 64 10 1 20 0 0 1 0 35 0 11 16 20 0 4 0 0 1 13 0 0 4 2 0 0 0 0 0 0
46 44 34 33 50 53 71 49 44 77 83 85 32 10 4 2 17 37 89 8 38 104 46 16 0 0 0 0 0 30 55 2 0 0 0 7 63 16 0 0 0 0 0 0 2 71 68

GFSGBSN_con_sbcape_054.txt.gz
CAPE
26 19 19 22 14 0 7 12 13 21 21 19 20 19 8 5 10 14 7 9 5 0 0 0 3 1 0 0 0 0 0 0 0 0 0 0 0 0 0 0 0 0 0 0 0 3 0
9 8 16 17 18 10 0 0 24 21 30 33 16 10 14 18 7 11 8 2 0 0 0 0 1 8 0 0 0 0 0 0 0 0 0 0 0 0 0 0 0 0 0 0 0 0 0
21 23 17 29 31 16 22 29 24 28 37 49 36 22 15 20 16 8 5 0 0 0 0 0 0 13 0 0 0 0 0 0 0 0 0 0 0 0 0 0 0 0 0 0 0 0 0
31 28 23 32 33 37 32 40 26 16 29 33 42 43 32 11 11 6 0 0 0 0 0 0 0 9 0 0 0 0 0 0 0 0 0 0 0 0 0 0 0 0 0 0 0 2 0
24 19 26 42 39 37 35 33 34 46 46 44 35 33 51 30 3 4 0 0 0 0 0 0 0 0 0 0 0 0 0 0 0 0 0 0 0 0 0 0 0 0 0 0 0 0 0
27 28 32 39 42 43 45 45 37 42 43 50 43 40 36 29 1 1 0 0 0 0 0 2 4 0 0 0 0 0 0 0 0 0 0 0 0 0 0 0 0 0 0 0 0 3 2
36 30 21 24 18 17 22 32 47 45 44 49 37 53 36 19 7 4 0 0 0 0 0 0 0 0 0 0 0 0 0 0 0 0 0 0 0 0 0 0 0 0 0 0 0 0 20
36 36 30 34 44 41 38 43 54 54 56 53 52 69 46 19 4 2 0 0 0 0 0 0 0 0 0 0 0 0 0 0 0 0 0 0 0 0 0 0 0 0 0 0 0 6 0
34 32 40 34 38 45 53 56 60 57 50 45 47 55 61 17 0 0 0 0 0 0 0 0 0 0 0 0 0 0 0 0 0 0 0 0 0 0 0 0 0 0 0 0 0 12 1
49 58 49 37 44 49 51 56 71 73 68 61 55 50 48 8 0 0 0 0 0 0 0 0 0 0 0 0 0 0 0 0 0 0 0 0 0 0 0 0 0 0 0 0 0 0 0
59 62 70 43 53 77 98 95 89 68 59 53 54 62 51 14 0 0 0 0 0 0 0 0 0 0 0 0 0 0 0 0 0 0 0 0 0 0 0 0 0 0 0 0 1 0 0
66 61 49 87 109 104 100 99 86 67 61 66 62 76 69 0 0 0 0 0 0 5 0 0 0 0 0 0 0 0 0 0 0 0 0 0 0 0 0 0 0 0 0 0 0 0 0
82 68 76 112 122 124 120 106 92 59 67 59 56 61 54 0 0 0 0 0 31 1 0 0 0 0 0 0 0 0 0 0 0 0 0 0 0 0 0 0 0 0 0 0 0 0 0
75 65 87 104 91 103 105 103 96 62 65 58 55 52 27 0 0 0 3 19 3 0 0 0 0 0 0 0 0 0 0 0 0 0 0 0 0 0 0 0 0 0 0 0 0 0 0
67 82 79 88 94 112 101 101 77 63 59 58 56 27 7 0 0 0 9 3 0 0 0 0 0 0 0 0 0 0 0 0 0 0 0 0 0 0 0 0 0 0 0 0 0 0 0
48 82 73 82 77 79 84 74 73 76 62 52 33 34 6 0 0 8 13 2 12 0 0 0 0 0 0 0 0 0 0 0 0 0 0 0 0 0 0 0 0 0 0 0 0 1 0
65 68 86 91 89 78 72 74 78 70 66 47 30 26 6 0 20 33 4 14 0 0 0 0 0 0 0 0 0 0 0 0 0 0 0 0 0 0 0 0 0 0 0 0 0 0 0
74 92 89 85 85 86 87 92 78 77 57 49 36 4 0 0 14 4 5 4 1 0 0 0 0 0 0 0 0 0 0 0 0 0 0 0 0 0 0 0 0 0 0 0 0 0 0
86 78 82 84 98 95 90 89 95 72 67 51 22 10 2 0 3 0 0 2 7 9 0 0 0 0 0 0 0 0 0 0 0 0 0 0 0 0 0 0 0 0 0 0 0 0 0
77 93 95 97 104 95 83 77 80 87 79 55 3 1 20 15 0 0 1 4 3 4 0 0 0 0 0 0 0 0 0 0 0 0 0 0 0 0 0 0 0 0 0 0 0 0 0
96 92 77 91 74 77 80 79 80 79 85 62 6 1 3 7 10 3 0 2 5 4 4 0 0 0 0 0 0 0 0 2 0 0 0 0 0 0 0 0 0 0 0 0 0 0 0
95 89 80 70 71 79 81 76 75 76 93 59 0 4 4 0 8 20 5 5 1 6 6 0 0 0 0 0 0 0 0 1 3 6 0 0 0 0 0 0 0 0 0 0 0 0 0
93 86 77 75 83 95 92 78 70 77 92 37 7 0 0 2 4 24 2 2 7 4 0 0 0 0 0 0 0 0 16 17 10 1 1 1 0 0 0 0 0 0 0 0 0 0 0
93 92 89 96 99 107 105 88 77 75 82 36 20 9 2 5 0 0 6 3 4 7 0 0 0 0 0 0 0 22 35 25 47 38 0 0 2 14 0 0 0 0 0 0 0 0 0
86 94 103 112 118 108 91 102 60 57 65 59 9 18 4 0 0 0 0 0 11 0 0 0 0 0 0 0 0 0 0 0 0 6 44 0 0 0 0 0 0 0 0 0 0 0 0
64 72 79 76 73 70 61 55 80 80 53 54 23 2 14 9 0 0 0 1 0 0 0 0 0 0 0 0 0 0 0 0 0 2 7 51 2 0 0 0 0 0 0 0 0 0 0
47 53 62 70 72 66 65 59 59 68 64 7 7 0 1 3 0 0 0 0 0 0 0 0 0 0 0 0 0 0 0 0 0 0 8 35 0 0 0 0 0 0 0 0 0 0 0
28 31 36 44 59 68 67 61 50 56 63 27 13 10 0 1 0 0 17 2 0 0 0 0 0 0 0 0 0 0 0 0 0 0 0 3 6 0 0 0 0 0 25 3 0 0 0
59 70 62 49 62 62 62 58 49 60 60 69 15 20 7 2 0 0 0 30 0 0 0 0 0 0 0 0 0 0 0 0 0 0 0 0 0 0 0 0 0 0 1 0 0 0 0

GFSGBSN_con_sbcape_057.txt.gz
CAPE
23 21 26 33 37 32 22 14 31 47 29 22 4 0 0 0 8 18 5 0 2 3 0 0 0 2 3 0 0 0 0 0 0 0 0 0 0 0 0 0 0 0 0 0 0 0 0
19 20 23 23 19 19 24 23 28 41 35 34 39 5 0 0 12 12 12 2 0 0 0 0 0 4 0 0 0 0 0 0 0 0 0 0 0 0 0 0 0 0 0 0 0 0 0
15 21 22 27 20 18 18 31 14 17 16 26 26 45 13 0 15 14 3 0 0 0 0 0 0 3 2 0 0 0 0 0 0 0 0 0 0 0 0 0 0 0 0 0 0 0 0
25 22 18 41 42 41 41 37 22 16 22 16 7 30 18 19 10 0 0 0 0 0 0 0 0 4 0 0 0 0 0 0 0 0 0 0 0 0 0 0 0 0 0 0 0 0 0
31 24 37 32 46 42 43 49 40 16 18 33 33 20 26 15 12 4 0 0 0 0 0 0 0 2 0 0 0 0 0 0 0 0 0 0 0 0 0 0 0 0 0 0 0 0 0
41 39 42 33 32 36 32 40 42 39 37 40 29 26 23 20 9 4 0 0 0 0 0 0 9 0 0 0 0 0 0 0 0 0 0 0 0 0 0 0 0 0 0 0 0 0 0
42 46 48 33 22 29 37 28 42 50 48 49 41 37 24 36 15 0 0 0 0 0 0 0 0 0 0 0 0 0 0 0 0 0 0 0 0 0 0 0 0 0 0 0 0 0 0
34 45 45 26 43 30 37 42 58 51 55 56 47 43 33 18 27 6 0 0 0 0 3 0 0 0 0 0 0 0 0 0 0 0 0 0 0 0 0 0 0 0 0 0 0 0 0
27 40 40 27 40 33 27 38 54 56 57 54 50 54 45 25 20 0 0 0 0 0 2 0 0 0 0 0 0 0 0 0 0 0 0 0 0 0 0 0 0 0 0 0 0 0 0
39 64 50 23 32 49 45 34 35 63 59 50 55 51 29 17 0 0 0 0 0 1 1 0 0 0 0 0 0 0 0 0 0 0 0 0 0 0 0 0 0 0 0 0 0 0 0
54 58 68 59 61 75 83 69 71 77 69 61 61 55 27 35 0 0 0 0 0 0 0 0 0 0 0 0 0 0 0 0 0 0 0 0 0 0 0 0 0 0 0 0 0 0 0
76 58 55 58 71 94 91 89 107 75 70 62 58 60 48 19 1 0 0 0 1 53 1 0 0 0 0 0 0 0 0 0 0 0 0 0 0 0 0 0 0 0 0 0 0 0 0
68 77 51 54 65 77 78 99 102 98 83 68 64 60 32 1 0 0 0 0 77 11 0 0 0 0 0 0 0 0 0 0 0 0 0 0 0 0 0 0 0 0 0 0 0 0 0
49 79 72 50 55 76 77 111 95 83 77 68 60 60 2 8 0 0 0 11 3 0 0 0 0 0 0 0 0 0 0 0 0 0 0 0 0 0 0 0 0 0 0 0 0 0 0
47 62 82 85 64 63 88 124 138 109 72 72 66 40 6 0 0 0 1 6 10 0 0 0 0 0 0 0 0 0 0 0 0 0 0 0 0 0 0 0 0 0 0 0 0 0 0
42 40 75 76 72 75 113 101 100 87 78 78 62 58 11 0 0 7 5 0 31 10 0 0 0 0 0 0 0 0 0 0 0 0 0 0 0 0 0 0 0 0 0 0 0 0 0
36 42 63 71 76 99 114 127 108 103 83 86 72 52 8 0 2 20 0 7 1 0 0 0 0 0 0 0 0 0 0 0 0 0 0 0 0 0 0 0 0 0 0 0 0 0 0
78 54 64 81 96 116 127 117 87 86 93 78 77 22 1 0 3 20 0 1 0 0 0 0 0 0 0 0 0 0 0 0 0 0 0 0 0 0 0 0 0 0 0 0 0 0 0
53 58 77 96 100 117 105 92 76 81 103 86 32 10 2 0 0 0 0 0 0 0 0 0 0 0 0 0 0 0 0 0 0 0 0 0 0 0 0 0 0 0 0 0 0 0 0
74 92 100 99 102 95 92 81 108 77 82 40 2 1 13 6 0 3 2 0 3 0 0 0 0 0 0 0 0 0 0 0 0 2 0 0 0 0 0 0 0 0 0 0 0 0 0
81 93 99 111 124 119 119 113 121 103 82 49 3 2 4 0 2 5 7 3 0 6 0 0 0 0 0 0 0 0 0 0 0 29 16 0 0 0 0 0 0 0 0 0 0 0 0
92 113 115 111 111 110 105 104 97 97 89 57 0 8 12 0 14 15 15 8 0 0 0 0 0 0 0 0 0 0 0 0 0 1 5 0 1 0 0 0 0 0 0 0 0 0 0
117 110 107 100 91 90 90 91 79 79 93 31 18 0 20 13 0 11 1 9 3 7 0 0 0 0 0 0 0 0 0 0 0 0 0 0 0 1 0 0 0 0 0 0 0 0 0
108 107 97 95 94 91 89 83 74 77 91 31 32 25 12 12 0 3 10 2 1 3 0 0 0 0 0 0 0 0 2 0 0 16 4 0 0 0 6 0 0 0 0 0 0 0 0
81 94 100 109 100 95 86 79 71 84 81 28 19 40 29 9 10 0 5 6 1 1 9 0 0 0 0 0 0 0 0 0 0 0 47 0 0 0 3 24 0 0 0 0 0 0 0
107 112 111 97 69 73 78 85 84 88 87 46 14 48 23 22 10 7 0 2 0 0 1 0 0 0 0 0 0 0 0 0 0 0 5 0 0 8 0 0 3 0 0 0 0 0 0
61 66 71 73 73 82 74 60 57 61 63 41 30 30 3 1 12 2 0 0 0 0 0 0 0 0 0 0 0 0 0 0 0 0 0 1 14 5 13 9 0 0 0 0 0 0 0
38 41 51 60 59 59 60 61 68 76 72 40 7 27 20 0 1 0 0 0 0 0 0 0 0 0 0 0 0 0 0 0 0 0 0 0 0 0 0 13 1 0 0 2 0 0 0
40 49 50 38 53 61 57 55 59 66 66 61 13 8 17 7 3 0 0 0 0 0 0 0 0 0 0 0 0 0 0 0 0 0 0 0 0 0 0 4 0 0 0 0 0 0 0

GFSGBSN_con_sbcape_060.txt.gz
CAPE
22 22 25 30 27 30 30 31 30 40 35 32 28 3 0 0 3 4 0 0 0 0 6 0 0 4 1 0 0 0 0 0 0 0 0 0 0 0 0 0 0 0 0 0 0 0 0
15 20 23 28 28 30 24 23 24 42 42 40 43 41 24 0 0 0 6 0 0 0 0 0 0 6 0 0 0 0 0 0 0 0 0 0 0 0 0 0 0 0 0 0 0 0 0
26 15 20 30 27 25 21 21 23 25 36 21 30 32 36 17 4 0 0 0 0 0 0 0 2 5 2 0 0 0 0 0 0 0 0 0 0 0 0 0 0 0 0 0 0 0 0
27 26 27 32 36 37 28 24 28 26 25 14 12 31 26 21 18 13 0 0 0 0 0 2 9 2 0 0 0 0 0 0 0 0 0 0 0 0 0 0 0 0 0 0 0 0 0
22 27 17 47 50 54 30 25 30 20 20 42 39 33 15 11 8 0 0 0 0 0 0 7 1 1 0 0 0 0 0 0 0 0 0 0 0 0 0 0 0 0 0 0 0 0 0
49 21 42 45 45 52 26 27 46 45 46 42 45 47 35 16 3 11 4 0 0 0 0 1 4 0 0 0 0 0 0 0 0 0 0 0 0 0 0 0 0 0 0 0 0 0 0
50 22 31 28 45 31 32 22 45 57 54 52 54 50 35 22 19 29 2 0 0 0 0 0 0 0 0 0 0 0 0 0 0 0 0 0 0 0 0 0 0 0 0 0 0 0 0
40 52 28 15 23 33 40 35 46 57 51 45 56 54 40 36 42 27 0 0 1 4 9 0 0 0 0 0 0 0 0 0 0 0 0 0 0 0 0 0 0 0 0 0 0 0 0
50 33 30 26 42 25 24 39 53 66 61 76 66 54 47 44 30 0 0 0 1 0 31 0 0 0 0 0 0 0 0 0 0 0 0 0 0 0 0 0 0 0 0 0 0 0 0
50 49 50 47 50 16 24 45 39 42 73 77 80 56 33 33 0 0 0 0 0 0 5 0 0 0 0 0 0 0 0 0 0 0 0 0 0 0 0 0 0 0 0 0 0 0 0
50 56 48 47 48 59 46 43 42 47 81 82 80 76 43 46 0 0 0 0 0 4 0 0 0 0 0 0 0 0 0 0 0 0 0 0 0 0 0 0 0 0 0 0 0 0 0
77 65 51 56 56 63 47 46 57 65 83 80 82 77 56 14 3 0 0 0 1 47 0 0 0 0 0 0 0 0 0 0 0 0 0 0 0 0 0 0 0 0 0 0 0 0 0
96 64 69 64 54 43 47 49 76 59 60 68 80 69 56 1 0 0 0 0 14 24 0 0 0 0 0 0 0 0 0 0 0 0 0 0 0 0 0 0 0 0 0 0 0 0 0
78 60 69 65 65 59 48 54 86 67 88 70 69 66 15 43 0 0 0 6 4 6 0 0 0 0 0 0 0 0 0 0 0 0 0 0 0 0 0 0 0 0 0 0 0 0 0
56 57 65 67 68 45 44 45 85 70 70 93 74 9 45 7 0 0 1 9 19 16 0 0 0 0 0 0 0 0 0 0 0 0 0 0 0 0 0 0 0 0 0 0 0 0 0
65 72 80 67 62 45 44 37 52 68 83 85 9 23 23 4 0 2 11 0 12 28 0 0 0 0 0 0 0 0 0 0 0 0 0 0 0 0 0 0 0 0 0 0 0 0 0
55 73 66 67 76 62 32 37 74 83 124 107 48 60 16 14 20 7 5 1 0 0 0 0 0 0 0 0 0 0 0 0 0 0 0 0 0 0 0 0 0 0 0 0 0 0 0
75 60 54 49 39 32 40 44 62 97 106 84 59 20 15 5 3 4 13 6 0 0 0 0 0 0 0 0 0 0 0 0 0 0 0 0 0 0 0 0 0 0 0 0 0 0 0
91 67 51 42 29 48 61 76 116 120 85 56 49 51 29 26 15 2 22 0 0 0 0 0 0 0 0 0 0 0 0 0 0 0 0 0 0 0 0 0 0 0 0 0 0 0 0
84 57 45 38 35 54 87 111 104 87 98 72 6 0 9 15 4 0 0 0 0 0 0 0 0 0 0 0 0 0 0 0 0 0 7 2 0 0 0 0 0 0 0 0 0 0 0
78 73 79 47 54 79 99 114 109 92 102 71 8 1 1 2 1 4 1 0 3 2 0 0 0 0 0 0 0 0 0 0 0 0 16 9 7 0 0 0 0 0 0 0 0 0 0
85 79 61 72 84 92 100 104 79 80 90 38 0 36 45 10 4 5 7 0 5 2 4 0 0 0 0 0 0 0 0 0 0 0 0 13 0 0 0 0 0 0 0 0 0 0 0
75 74 77 84 92 98 97 73 76 71 79 23 14 2 102 64 24 2 0 0 0 2 0 0 0 0 0 0 0 0 0 0 0 0 0 0 0 0 0 0 0 0 0 0 0 0 0
79 87 95 111 122 99 78 66 67 75 81 34 40 48 40 62 9 6 3 1 1 0 0 0 0 0 0 0 0 0 0 0 0 0 0 1 1 0 0 0 0 0 0 0 0 0 0
98 105 112 110 103 104 101 94 86 85 81 24 48 26 31 16 65 2 6 0 0 0 0 0 0 0 0 0 0 0 0 0 0 0 0 9 0 0 0 0 0 0 0 0 0 0 0
78 67 88 86 75 72 68 79 91 86 93 48 25 57 19 20 12 9 9 0 0 0 0 0 0 0 0 0 2 5 0 0 0 0 0 4 0 0 0 6 0 0 0 0 0 0 0
72 82 84 83 67 62 62 51 70 86 91 56 19 32 35 16 14 22 6 10 0 0 0 0 0 0 0 0 12 15 3 0 0 3 1 6 49 22 3 6 0 0 0 0 10 0 0
49 54 53 64 65 65 68 63 54 56 66 48 17 14 8 2 6 6 19 3 0 0 0 0 0 0 0 0 2 8 0 0 0 0 23 17 9 9 5 10 0 0 0 97 9 0 0
49 46 29 46 53 57 60 64 56 32 49 59 5 27 4 19 14 0 3 0 0 0 0 0 0 0 0 0 0 0 0 0 0 0 0 0 0 0 0 0 0 0 0 1 0 2 0

GFSGBSN_con_sbcape_063.txt.gz
CAPE
10 10 14 19 26 24 27 21 20 34 29 22 15 12 11 4 10 10 12 6 1 0 0 0 0 2 0 0 0 0 0 0 0 0 0 0 0 0 0 0 0 0 0 0 0 0 0
27 28 9 15 31 36 24 25 27 32 30 33 35 33 21 12 2 0 3 3 0 0 0 0 0 0 0 0 0 0 0 0 0 0 0 0 0 0 0 0 0 0 0 0 0 0 0
22 18 21 25 31 22 20 28 26 35 42 30 34 44 36 17 0 0 4 9 1 0 0 0 7 0 1 0 0 0 0 0 0 0 0 0 0 0 0 0 0 0 0 0 0 0 0
38 25 36 32 46 38 41 30 23 19 20 14 19 36 40 36 18 7 1 1 0 0 0 0 8 0 0 0 0 0 0 0 0 0 0 0 0 0 0 0 0 0 0 0 0 0 0
20 46 32 35 36 43 44 45 40 27 36 28 33 45 42 33 21 7 0 0 0 0 0 4 0 0 0 0 0 0 0 0 0 0 0 0 0 0 0 0 0 0 0 0 0 0 0
34 27 45 42 27 28 28 16 49 52 36 36 31 42 47 35 20 11 0 0 0 0 0 0 0 0 0 0 0 0 0 0 0 0 0 0 0 0 0 0 0 0 0 0 0 0 0
42 40 43 40 21 19 26 13 43 57 56 36 32 28 51 49 39 19 0 0 0 0 0 0 0 0 0 0 0 0 0 0 0 0 0 0 0 0 0 0 0 0 0 0 0 0 0
41 39 55 40 14 24 28 23 38 56 39 35 36 58 55 53 41 11 0 0 14 0 3 0 0 0 0 0 0 0 0 0 0 0 0 0 0 0 0 0 0 0 0 0 0 0 0
46 51 48 39 18 27 48 26 12 56 41 43 59 67 56 51 33 0 0 0 0 0 7 0 0 0 0 0 0 0 0 0 0 0 0 0 0 0 0 0 0 0 0 0 0 0 0
57 65 52 44 23 18 16 16 40 39 42 66 49 50 50 41 0 0 0 0 0 0 20 0 0 0 0 0 0 0 0 0 0 0 0 0 0 0 0 0 0 0 0 0 0 0 0
83 55 47 48 40 53 48 44 38 47 42 53 57 75 60 56 8 1 0 0 0 4 0 0 0 0 0 0 0 0 0 0 0 0 0 0 0 0 0 0 0 0 0 0 0 0 0
44 32 44 64 71 70 41 48 44 38 43 57 67 67 73 8 13 1 0 0 0 26 0 0 0 0 0 0 0 0 0 0 0 0 0 0 0 0 0 0 0 0 0 0 0 0 0
56 59 45 63 66 65 39 34 47 37 39 39 71 82 61 68 34 0 0 0 6 4 0 0 0 0 0 0 0 0 0 0 0 0 0 0 0 0 0 0 0 0 0 0 0 0 0
66 64 65 68 73 59 58 49 54 57 38 31 72 59 7 51 6 2 0 3 6 0 1 0 0 0 0 0 0 0 0 0 0 0 0 0 0 0 0 0 0 0 0 0 0 0 0
55 47 49 65 54 64 65 55 58 52 53 44 56 0 14 0 38 13 3 3 1 0 0 0 0 0 0 0 0 0 0 0 0 0 0 0 0 0 0 0 0 0 0 0 0 0 0
63 47 77 91 78 61 68 53 38 26 38 63 8 2 0 0 12 30 1 8 0 17 0 0 0 0 0 0 0 0 0 0 0 0 0 0 0 0 0 0 0 0 0 0 0 0 0
65 62 59 66 50 58 50 55 32 23 46 88 14 48 1 2 42 62 1 5 0 0 0 0 0 0 0 0 0 0 0 0 0 0 0 0 0 0 0 0 0 0 0 0 0 0 0
70 68 68 63 47 53 49 40 35 29 86 39 50 42 29 55 33 46 47 2 0 0 0 0 0 0 0 0 0 0 0 0 0 0 0 0 0 0 0 0 0 0 0 0 0 0 0
68 67 54 61 57 63 51 24 41 59 91 22 103 40 47 68 30 21 55 0 0 0 0 0 0 0 0 0 0 0 0 0 0 0 0 1 0 0 0 0 0 0 0 0 0 0 0
63 76 62 61 60 72 53 28 47 51 90 58 58 61 38 61 31 18 17 4 0 0 0 0 0 0 0 0 0 0 0 0 0 0 2 10 5 0 0 0 0 0 0 0 0 0 0
76 96 77 53 62 59 47 36 50 106 115 56 36 9 29 5 7 17 2 0 0 0 0 0 0 1 2 0 0 0 0 0 0 0 7 29 2 0 0 0 0 0 0 0 0 0 0
63 81 84 65 65 60 42 60 89 119 131 65 9 119 64 8 25 10 29 3 0 0 3 0 0 0 0 0 0 0 0 0 0 0 0 0 30 12 1 0 0 0 0 0 0 0 0
89 102 106 81 73 51 53 78 102 125 133 53 41 15 74 3 14 16 48 0 0 0 0 1 0 0 0 0 0 0 0 0 0 0 0 0 7 6 0 0 0 0 0 0 0 0 0
95 97 90 81 81 72 84 88 104 115 116 47 39 68 57 21 45 36 18 0 0 0 0 0 0 2 0 0 0 0 0 0 0 0 0 0 1 0 0 0 0 0 0 0 0 0 0
82 100 107 102 88 84 81 86 89 69 72 31 36 69 51 26 12 55 18 6 18 3 3 0 1 0 0 3 2 0 0 0 0 0 0 0 0 11 0 0 0 0 0 0 0 0 0
55 42 45 37 86 74 71 57 50 66 72 36 28 42 66 6 2 0 55 21 0 3 2 0 11 8 10 3 4 7 0 0 0 1 0 0 0 60 9 5 0 0 0 0 0 0 0
60 71 72 58 47 67 77 79 66 68 81 45 28 35 49 4 1 0 12 63 1 1 2 0 1 3 14 19 29 27 18 0 0 0 1 12 22 17 18 17 0 0 0 0 0 0 0
46 50 47 60 60 55 36 48 60 47 68 47 22 25 31 3 1 18 21 11 10 1 1 0 6 5 6 17 20 3 3 0 0 0 9 0 8 23 33 42 1 0 7 12 0 0 0
26 24 50 45 40 52 54 45 38 21 48 64 20 40 8 14 8 0 2 8 1 5 5 5 2 0 0 0 0 0 0 0 0 0 0 0 4 31 8 23 0 0 1 0 0 0 0

GFSGBSN_con_sbcape_066.txt.gz
CAPE
14 20 22 11 9 27 26 23 25 36 30 24 20 19 13 7 5 3 6 0 0 0 0 0 0 0 0 0 0 0 0 0 0 0 0 0 0 0 0 0 0 0 0 0 0 0 0
13 11 21 13 12 26 20 19 18 29 46 50 39 27 14 12 10 4 8 6 1 0 0 0 0 0 0 0 0 0 0 0 0 0 0 0 0 0 0 0 0 0 0 0 0 0 0
42 30 11 32 33 28 22 28 25 22 35 32 32 30 29 19 20 12 7 5 0 0 0 1 2 1 0 0 0 0 0 0 0 0 0 0 0 0 0 0 0 0 0 0 0 0 0
29 21 41 30 44 38 30 30 24 19 36 40 41 44 45 32 25 10 2 0 0 0 2 0 0 6 0 0 0 0 0 0 0 0 0 0 0 0 0 0 0 0 0 0 0 0 0
31 17 16 27 35 39 38 21 26 19 32 26 40 49 48 32 21 5 0 0 0 0 0 0 4 1 0 0 0 0 0 0 0 0 0 0 0 0 0 0 0 0 0 0 0 0 0
23 36 33 21 38 20 20 21 29 38 44 40 38 53 47 45 26 0 0 0 0 0 2 1 1 0 0 0 0 0 0 0 0 0 0 0 0 0 0 0 0 0 0 0 0 0 0
40 42 18 28 40 16 19 22 17 39 46 44 42 36 49 50 22 0 0 0 0 0 0 0 0 0 0 0 0 0 0 0 0 0 0 0 0 0 0 0 0 0 0 0 0 0 0
45 46 46 41 45 23 19 27 31 42 47 43 38 42 57 46 22 0 0 3 8 3 7 0 0 0 0 0 0 0 0 8 0 0 0 0 0 0 0 0 0 0 0 0 0 0 0
44 45 47 35 27 24 25 27 24 47 60 53 48 42 45 42 7 3 2 1 5 0 7 0 0 0 0 0 0 0 0 0 0 0 0 0 0 0 0 0 0 0 0 0 0 0 0
45 50 62 39 43 54 22 25 29 42 45 58 72 73 76 37 9 11 16 7 6 4 10 0 0 0 0 0 0 0 0 0 0 0 0 0 0 0 0 0 0 0 0 0 0 0 0
48 56 58 53 48 62 45 44 38 44 55 49 63 66 68 57 21 20 11 3 1 13 0 0 0 0 0 0 0 0 0 0 0 0 0 0 0 0 0 0 0 0 0 0 0 0 0
55 57 49 37 59 85 68 76 43 42 42 50 54 59 68 32 61 29 14 0 6 11 0 0 0 0 0 0 0 0 0 0 0 0 0 0 0 0 0 0 0 0 0 0 0 0 0
56 57 60 75 80 91 64 57 39 33 42 38 45 51 55 46 25 15 27 23 29 0 0 0 0 0 0 0 0 0 0 0 0 2 0 0 0 0 0 0 0 0 0 0 0 0 0
59 63 71 52 59 58 75 57 57 73 48 33 52 52 42 40 41 51 44 26 9 0 0 0 0 0 0 0 0 0 0 0 0 0 0 0 0 0 0 0 0 0 0 0 0 0 0
65 53 48 53 33 48 56 66 76 64 53 48 55 46 52 20 60 96 17 42 0 0 7 0 0 0 0 0 0 0 0 0 0 0 1 0 0 0 0 0 0 0 0 0 0 0 8
98 68 64 77 60 79 62 52 72 51 48 54 75 66 30 6 89 121 77 15 6 1 31 0 0 0 0 0 0 0 0 0 0 0 0 11 5 0 0 0 0 1 0 0 0 12 18
100 94 71 60 98 57 52 61 67 50 39 56 83 61 8 14 114 79 53 30 31 5 1 5 10 3 0 0 0 8 5 1 0 0 0 3 33 12 0 0 1 0 0 0 6 8 23
104 87 131 87 61 85 50 60 71 46 58 63 56 42 113 148 44 64 37 20 19 7 2 0 1 12 4 0 0 1 3 0 0 0 0 2 57 52 5 1 0 1 2 1 9 12 1
142 158 107 82 61 60 73 76 73 89 66 94 36 49 120 163 69 56 28 46 34 15 13 31 16 11 20 1 0 0 0 0 0 0 0 77 25 32 9 1 0 3 1 0 0 2 19
60 13 148 75 61 48 74 89 83 102 83 122 66 79 67 121 67 50 43 37 51 14 37 41 25 24 26 16 2 0 0 0 0 3 1 18 65 4 0 0 0 0 0 0 0 5 0
58 70 83 75 50 78 85 106 95 122 103 162 106 85 50 57 44 48 35 30 58 49 46 36 10 3 7 20 14 0 0 0 0 2 0 1 42 43 34 3 0 0 0 4 0 1 7
116 61 69 72 76 72 108 110 101 111 123 96 94 109 94 57 89 28 9 21 23 57 58 56 44 12 24 24 24 0 4 2 0 0 5 0 12 0 0 0 0 1 7 26 19 8 7
60 80 104 72 59 69 85 96 87 96 147 136 86 47 112 32 56 55 61 39 21 66 68 62 42 8 37 27 6 13 8 2 0 0 0 0 0 4 0 0 0 0 0 4 3 6 12
52 64 86 77 65 56 106 103 103 104 158 138 70 88 44 16 52 38 26 6 52 47 150 50 15 25 18 13 13 4 1 1 3 0 0 0 46 21 7 4 0 2 0 0 0 0 0
73 60 39 76 105 106 96 86 87 95 152 235 194 90 90 51 21 23 35 44 32 65 78 20 7 11 8 18 46 30 24 0 0 0 0 0 0 76 3 3 1 1 0 0 0 0 0
75 45 31 69 113 103 88 78 77 92 123 174 43 68 69 88 29 26 40 31 44 84 49 19 21 24 28 38 30 18 32 6 9 18 0 0 0 27 38 7 0 1 7 0 14 0 0
88 72 55 41 78 66 55 85 66 82 114 76 52 52 59 29 32 52 43 44 65 84 43 35 43 32 16 62 53 39 27 1 8 31 11 10 17 12 25 31 12 0 5 14 1 0 0
54 54 53 36 38 45 55 62 58 60 73 37 24 30 42 11 36 53 52 54 77 109 54 32 56 37 69 53 42 34 25 10 1 14 24 8 21 22 23 29 39 15 5 0 7 0 0
48 55 50 46 39 33 44 50 50 60 63 51 27 41 37 66 40 24 34 57 60 47 114 55 16 36 36 41 43 37 22 25 10 22 0 46 26 57 36 42 94 53 16 15 0 1 0

GFSGBSN_con_sbcape_069.txt.gz
CAPE
14 13 11 12 10 3 13 5 8 9 13 13 25 12 11 1 6 10 19 14 8 0 0 0 0 1 0 0 0 0 0 0 0 0 0 0 0 0 0 0 0 0 0 0 0 0 0
13 17 12 10 15 22 20 20 16 17 19 25 36 24 4 8 4 3 13 4 1 0 0 1 4 2 0 0 0 0 0 0 0 0 0 0 0 0 0 0 0 0 0 0 0 0 0
26 19 22 28 13 26 26 30 21 12 11 20 18 35 21 18 9 2 1 0 0 0 1 1 3 1 0 0 0 0 0 0 0 0 0 0 0 0 0 0 0 0 0 0 0 0 0
26 22 20 14 21 28 27 22 29 11 7 15 13 24 43 28 8 5 0 0 0 0 1 0 0 0 0 0 0 0 0 0 0 0 0 0 0 0 0 0 0 0 0 0 0 0 0
30 24 22 24 19 26 23 19 15 16 15 16 17 25 36 31 14 0 0 0 0 0 0 0 0 0 0 0 0 0 0 0 0 0 0 0 0 0 0 0 0 0 0 0 0 0 0
24 34 43 30 21 22 32 12 23 28 24 15 22 28 35 40 17 0 0 0 0 0 0 0 0 0 0 0 0 0 0 0 0 0 0 0 0 0 0 0 0 0 0 0 0 2 0
26 17 29 34 20 25 39 10 23 47 20 24 19 18 34 36 20 0 0 0 0 0 0 0 0 0 0 0 0 0 0 0 0 0 0 0 0 0 0 0 0 0 4 3 7 1 0
36 26 36 43 40 39 38 25 43 40 24 17 32 34 26 35 9 0 1 3 2 2 2 0 0 0 0 0 0 0 0 0 0 1 0 0 0 0 0 0 0 0 0 0 0 0 0
34 41 31 31 36 33 25 32 38 38 38 39 36 40 32 27 0 0 18 14 19 22 1 0 0 0 0 0 0 0 0 17 9 5 8 0 0 0 0 1 3 0 0 0 0 1 0
42 39 34 31 38 41 49 44 26 40 52 53 46 41 75 5 0 19 5 15 25 26 3 0 0 0 0 0 0 0 0 1 0 4 2 6 0 0 0 0 3 0 0 0 0 0 0
47 45 44 48 49 41 40 56 29 33 42 48 51 48 67 13 4 4 18 19 20 24 0 0 0 0 0 0 0 0 0 22 3 0 0 2 9 0 1 1 1 0 0 0 0 0 0
44 45 49 58 49 71 78 93 87 56 48 34 47 49 41 13 15 12 33 35 29 53 0 0 0 0 0 0 0 0 0 0 5 16 7 3 0 2 0 0 1 0 4 1 0 0 2
47 40 50 49 55 83 53 72 76 51 35 36 50 51 28 25 26 56 47 26 34 1 0 0 0 0 0 0 0 0 0 0 2 24 21 2 0 0 0 0 0 0 6 13 8 4 0
42 46 56 59 59 55 54 56 66 48 65 43 58 52 27 29 15 37 66 70 10 0 0 0 0 0 0 0 36 4 2 0 4 0 8 29 0 0 0 1 0 2 5 7 16 23 9
43 41 45 65 54 48 57 34 47 73 73 57 53 33 41 40 49 70 84 65 0 0 0 0 0 0 0 22 1 52 8 6 0 0 8 8 0 0 0 1 0 1 2 0 0 12 62
38 43 45 68 73 67 74 90 58 46 43 64 62 47 42 68 74 108 72 7 0 0 0 1 0 0 0 43 49 56 30 0 0 0 2 0 10 0 0 2 1 1 2 0 3 17 33
34 39 52 60 51 18 66 79 68 67 28 68 61 55 30 57 113 78 59 17 3 0 0 3 2 15 14 26 46 30 43 12 0 0 0 0 5 0 9 9 5 0 2 9 6 22 28
51 52 59 60 83 97 78 6 80 50 87 49 66 81 81 112 79 71 35 29 17 8 9 2 1 13 32 45 52 10 68 1 0 0 0 0 5 12 21 23 0 1 10 24 44 18 40
76 81 62 79 122 177 122 101 71 54 56 83 58 67 101 162 78 85 47 30 27 19 17 37 31 16 40 45 42 29 37 8 0 0 0 0 27 1 3 13 11 9 9 18 19 9 2
73 75 77 90 43 19 128 7 64 94 58 126 119 86 65 173 80 54 57 55 31 37 26 45 59 62 73 74 94 31 10 0 0 0 9 2 28 24 27 10 9 21 17 23 36 81 15
58 74 70 73 101 98 139 55 72 93 76 147 101 76 36 64 79 62 64 42 35 40 34 35 69 76 56 54 66 54 33 18 3 0 0 9 39 42 15 26 34 1 1 11 21 25 18
55 66 79 47 68 95 118 62 126 75 67 186 91 67 69 63 56 57 64 56 47 46 42 54 76 61 80 80 86 64 29 26 17 3 5 7 16 19 44 25 34 38 14 0 0 1 7
64 99 95 65 60 73 79 44 101 75 65 117 91 81 112 28 68 75 65 54 38 56 32 51 98 103 94 85 101 117 81 42 26 5 2 1 11 29 66 8 10 9 12 16 10 10 28
57 51 59 69 70 62 65 101 108 108 77 149 113 109 92 39 47 64 22 74 56 44 78 43 160 107 129 121 113 86 41 25 23 8 2 0 8 5 22 21 2 44 7 2 16 5 4
68 32 47 89 89 107 102 90 105 119 113 194 107 151 110 71 62 33 50 51 50 53 75 169 144 110 142 98 98 57 47 23 24 6 6 0 9 31 4 19 4 0 0 22 51 3 0
73 48 70 63 33 101 83 77 92 102 134 144 183 162 143 188 61 55 55 50 56 72 153 112 140 40 0 98 192 90 67 35 34 23 1 4 1 54 64 20 9 0 3 0 0 1 0
84 92 77 74 59 38 56 63 76 87 111 152 31 166 116 107 6 101 101 82 59 56 92 178 116 50 16 80 146 97 91 45 53 51 7 22 21 11 28 41 16 43 36 26 32 10 10
89 82 69 56 46 49 50 55 76 77 72 187 61 132 101 64 15 21 68 84 91 43 251 160 49 47 29 194 124 90 69 69 41 63 19 20 36 33 29 30 17 69 13 60 44 34 26
55 58 60 47 45 35 37 46 53 57 37 94 87 149 156 84 51 123 26 50 129 19 50 34 36 33 75 71 157 92 75 62 48 46 70 49 11 66 5 22 104 124 68 6 17 12 1

GFSGBSN_con_sbcape_072.txt.gz
CAPE
13 8 8 4 2 0 12 6 8 11 8 6 9 23 23 16 10 5 8 3 0 0 0 0 2 7 0 0 0 0 0 0 0 0 0 0 0 0 0 0 0 0 0 0 0 0 0
3 10 18 20 12 4 13 11 13 19 28 33 31 12 19 30 14 4 3 0 0 0 0 0 1 8 0 0 0 0 0 0 0 0 0 0 0 0 0 0 0 0 0 0 0 0 0
34 16 9 16 2 14 20 16 6 13 17 29 34 33 20 20 15 0 0 0 0 0 0 0 1 5 0 0 0 0 0 0 0 0 0 0 0 0 0 0 0 0 0 0 0 0 0
22 28 21 17 15 10 14 23 9 3 6 16 19 40 48 32 34 6 0 0 0 0 0 0 0 1 0 0 0 0 0 0 0 0 0 0 0 0 0 0 0 0 0 0 0 0 0
24 24 23 33 25 22 12 28 16 9 3 16 18 33 49 31 24 0 0 0 0 0 0 0 0 0 0 0 0 0 0 0 0 0 0 0 0 0 0 0 0 0 0 0 0 0 0
17 16 14 12 27 26 15 27 10 23 19 24 22 21 40 36 16 0 0 0 0 0 0 0 0 1 0 0 0 0 0 0 0 0 0 0 0 0 0 1 0 0 0 0 0 0 0
27 13 19 9 31 29 24 41 30 45 30 33 9 16 25 30 15 0 0 0 0 0 0 0 0 0 0 0 0 0 0 0 0 0 0 0 0 0 0 0 0 0 0 0 0 0 0
35 19 33 35 19 8 44 27 44 50 21 23 40 29 24 15 3 0 0 2 2 0 0 0 0 0 0 0 0 0 0 0 0 3 10 0 0 0 0 0 0 0 0 0 0 0 0
28 45 39 40 32 20 22 35 53 52 32 40 35 33 33 30 0 0 2 11 2 16 3 0 0 0 0 0 0 0 0 0 0 12 14 15 0 0 0 0 5 1 0 0 0 0 0
49 38 45 45 41 36 30 42 45 34 43 55 42 43 62 19 0 0 0 13 18 28 8 0 0 0 0 0 0 0 0 0 4 1 18 24 3 0 0 0 0 1 0 0 4 0 0
37 35 38 41 45 53 48 32 21 25 50 59 40 41 54 20 0 0 1 13 26 14 2 0 0 0 0 0 0 0 0 0 3 6 15 8 1 9 1 0 3 0 2 7 0 3 5
5 26 30 24 43 54 57 77 80 59 68 63 42 40 53 0 10 0 19 12 35 24 1 0 0 0 0 0 0 0 0 0 0 1 21 0 0 0 0 0 0 2 0 0 23 21 2
17 15 14 27 35 41 52 57 56 46 45 44 60 43 40 15 4 2 8 30 36 3 0 0 0 0 0 0 0 2 0 0 0 1 0 0 0 2 0 0 0 0 3 3 15 18 4
12 17 30 36 35 37 51 44 47 44 49 50 71 64 28 15 5 36 35 42 24 0 0 0 0 0 0 0 0 30 0 0 0 5 12 7 8 0 0 0 0 2 0 14 12 16 0
27 26 21 25 36 32 52 54 55 13 37 68 81 38 51 50 42 47 71 35 0 0 0 0 0 0 0 0 1 0 43 9 0 1 1 13 6 6 0 0 0 0 0 0 0 0 28
32 30 33 29 26 33 46 55 53 64 2 17 48 56 45 87 88 99 37 18 2 0 0 0 0 0 0 0 26 42 60 0 1 0 1 3 21 1 0 0 0 2 0 1 18 0 9
41 40 44 37 36 42 51 32 40 42 66 43 47 67 0 83 158 73 16 24 0 0 0 0 0 0 0 2 9 21 47 4 1 0 0 3 9 1 0 15 0 0 1 2 10 3 43
42 45 57 56 49 57 61 61 28 1 50 76 58 52 59 162 64 39 30 28 13 5 2 0 0 0 0 1 17 29 43 19 0 0 0 5 8 0 0 0 10 11 0 0 10 0 0
50 65 63 67 80 79 58 72 89 81 37 32 163 21 48 224 43 74 28 27 22 16 3 2 4 0 0 0 8 21 34 19 0 0 0 0 5 0 0 0 4 7 0 0 2 19 26
49 61 59 65 70 84 72 50 90 73 83 23 191 57 35 227 54 44 29 41 30 25 5 8 12 16 22 7 11 41 45 45 1 0 0 2 5 3 4 1 3 6 3 1 10 1 18
43 41 30 58 75 82 83 23 62 35 102 29 159 32 37 54 85 42 19 48 33 32 16 12 15 11 22 72 43 58 36 3 0 0 0 4 56 43 7 0 3 8 1 0 3 12 27
39 41 48 52 70 85 69 100 142 18 96 41 239 16 13 50 41 45 19 16 20 31 40 10 41 25 22 40 45 39 48 9 45 22 1 9 8 1 0 0 0 14 6 1 0 0 33
42 43 63 50 62 77 76 89 111 125 112 58 34 22 77 28 47 33 77 28 11 16 8 32 18 64 50 62 63 60 80 43 75 44 23 3 5 28 2 11 4 6 2 0 0 0 0
37 41 45 52 59 75 82 111 182 90 89 93 84 81 105 17 15 33 37 38 37 45 37 11 24 43 94 70 77 95 62 48 71 57 15 13 12 11 5 2 2 0 1 1 42 27 6
38 44 54 54 46 43 96 98 104 126 61 144 3 150 89 48 24 11 7 10 54 43 40 28 15 41 113 64 68 53 75 54 29 7 1 6 38 9 22 8 2 0 2 22 37 41 10
45 32 43 90 83 68 66 98 81 99 64 151 104 216 106 183 27 28 18 12 31 59 52 75 178 95 12 13 34 44 33 29 36 31 3 9 26 51 36 15 7 0 6 0 0 7 4
75 73 53 84 80 56 37 40 85 87 84 69 27 213 127 51 2 2 65 79 74 38 57 62 83 54 22 7 8 91 69 49 51 31 9 17 32 19 59 41 9 18 19 15 5 12 11
69 74 77 85 91 79 60 41 81 74 85 113 34 170 106 55 10 10 18 25 104 117 143 121 26 45 12 2 12 82 108 76 70 52 14 15 37 39 34 43 29 13 1 41 48 42 2
47 47 56 51 55 50 58 55 38 62 72 82 41 92 185 74 4 21 12 16 17 5 43 3 34 8 14 57 74 165 183 164 81 45 77 40 16 57 1 5 88 53 18 12 14 2 0

GFSGBSN_con_sbcape_075.txt.gz
CAPE
5 6 21 26 21 7 6 16 29 31 21 22 14 9 17 16 7 7 14 4 0 0 0 0 1 7 0 0 0 0 0 0 0 0 0 0 0 0 0 0 0 0 0 0 0 0 0
20 22 13 11 11 11 25 16 8 28 22 22 27 25 9 9 10 3 6 0 0 0 0 0 3 14 0 0 0 0 0 0 0 0 0 0 0 0 0 0 0 0 0 0 0 0 0
13 21 29 19 15 10 9 17 25 17 19 11 19 27 9 8 9 1 1 0 0 0 0 0 2 10 2 0 0 0 0 0 0 0 0 0 0 0 0 0 0 0 0 0 0 0 0
8 11 17 19 32 45 32 19 22 25 3 5 6 31 25 29 20 17 0 0 0 0 0 0 0 3 0 0 0 0 0 0 0 0 0 0 0 0 0 0 0 0 0 0 0 0 0
9 11 13 8 27 31 33 41 33 26 7 3 16 31 27 32 30 6 0 0 0 0 0 0 0 0 0 0 0 0 0 0 0 0 0 0 0 0 0 0 0 0 0 0 0 0 0
11 17 10 21 11 22 31 39 50 28 23 22 19 23 38 39 24 0 0 0 0 0 0 0 0 1 0 0 0 0 0 0 0 0 0 0 0 0 0 0 0 0 0 0 0 0 0
33 35 22 14 24 20 7 15 44 49 48 11 14 21 40 33 8 0 0 0 0 0 0 0 0 0 0 0 0 0 0 0 0 0 0 0 0 0 0 0 0 0 0 0 0 0 0
21 19 25 35 30 29 20 12 39 58 57 28 34 28 41 32 3 0 0 0 3 0 0 0 0 0 0 0 0 0 0 0 0 0 0 0 0 0 0 0 0 0 0 0 0 0 0
11 18 24 43 41 40 32 27 25 53 53 44 60 34 26 31 0 0 0 0 5 1 0 0 0 0 0 0 0 0 0 0 0 0 0 0 1 5 0 0 0 0 0 0 0 0 0
30 27 38 35 44 40 36 44 35 28 39 70 67 67 53 28 0 0 0 0 0 1 1 0 0 0 0 0 0 0 0 0 0 0 0 1 0 0 1 0 0 0 0 0 0 0 0
0 0 9 24 26 25 35 44 49 43 34 75 74 75 71 45 0 0 0 0 0 9 0 0 0 0 0 0 0 0 0 0 0 0 0 0 0 0 1 0 0 0 0 1 0 3 0
2 2 7 16 21 25 27 40 47 44 29 44 67 78 72 0 0 0 0 0 8 16 0 0 0 0 0 0 0 0 0 0 0 0 0 0 0 0 0 3 1 10 0 8 0 0 0
15 8 13 26 26 27 32 26 36 42 47 47 64 61 26 6 0 0 0 1 29 10 0 0 0 0 0 0 0 0 0 0 0 0 0 0 0 0 0 0 0 0 1 14 7 2 0
26 26 20 16 13 17 21 18 33 38 29 23 56 60 2 0 0 0 9 31 5 0 0 0 17 0 0 0 0 0 0 0 0 0 0 0 0 0 0 0 0 1 6 12 15 0 0
33 30 22 18 24 23 23 26 32 45 53 28 29 0 0 0 0 3 16 1 0 0 0 0 0 0 0 0 0 4 0 0 0 0 0 0 0 0 0 5 1 2 8 0 1 0 3
32 30 34 38 40 36 34 35 46 44 47 30 4 4 1 0 0 36 13 3 0 0 0 0 0 0 0 0 9 31 54 1 2 0 0 0 0 0 0 7 9 7 1 1 5 10 2
30 25 34 38 43 46 45 52 52 40 49 58 34 62 0 0 26 27 15 4 3 0 0 0 0 0 0 0 0 0 54 0 0 0 0 0 8 0 8 14 11 13 11 15 7 10 1
24 34 33 47 57 60 74 68 62 68 28 17 41 34 0 77 18 39 4 0 0 0 0 0 0 0 0 0 0 0 9 26 0 0 0 0 29 4 0 0 12 3 19 12 22 13 0
39 44 54 60 52 58 68 72 68 65 64 46 56 16 0 100 13 15 13 7 0 0 0 0 0 0 0 0 0 0 39 0 0 0 0 0 20 14 0 0 4 7 5 17 7 5 5
43 41 49 61 58 53 59 64 75 62 81 23 6 16 1 0 0 18 6 13 7 0 0 0 0 0 2 6 2 0 12 32 0 0 0 0 0 0 1 6 4 8 19 15 12 28 1
38 36 40 44 48 47 66 75 68 46 75 16 4 41 32 26 38 18 8 18 38 12 16 12 2 0 0 0 9 16 10 80 12 0 0 0 4 0 3 0 4 4 8 20 12 5 12
45 51 45 47 50 55 52 63 66 70 21 23 52 24 41 29 5 49 2 2 2 2 3 19 33 20 27 0 0 7 16 17 14 8 6 1 2 0 0 0 0 5 19 6 25 4 15
45 43 51 47 49 51 46 66 72 74 22 5 8 0 14 5 9 19 36 4 7 12 1 1 21 20 17 34 14 11 1 13 20 19 8 2 0 0 0 0 0 10 9 17 8 18 10
27 34 41 44 47 55 54 61 72 76 62 6 10 7 15 0 0 2 0 0 48 7 6 20 21 26 41 35 10 23 11 12 27 34 21 6 5 0 4 0 12 0 0 1 13 16 12
40 49 43 59 63 66 74 60 71 63 62 10 6 16 23 1 0 0 0 3 4 9 8 13 21 12 0 10 1 2 0 3 0 0 6 1 7 0 8 8 0 2 4 3 35 2 0
44 37 36 58 69 83 69 50 18 62 46 13 0 7 8 5 0 0 10 13 1 0 0 3 21 3 0 0 0 1 3 3 8 4 0 0 0 0 16 16 10 6 0 0 0 6 0
50 40 37 48 73 81 69 47 33 68 43 18 5 5 19 38 0 0 3 2 0 1 1 0 31 28 0 0 1 3 5 3 2 1 0 0 9 11 3 1 0 53 4 0 1 10 44
50 42 54 60 75 76 78 56 16 42 93 20 4 12 7 4 0 0 0 1 4 9 31 6 10 11 0 0 0 0 0 12 35 2 0 0 16 2 11 5 0 45 16 14 29 28 2
40 51 59 54 52 54 64 65 61 64 103 45 3 0 18 28 0 0 0 0 0 0 16 2 2 3 12 2 1 2 14 13 7 13 0 9 1 0 0 0 16 1 20 0 0 0 0

GFSGBSN_con_sbcape_078.txt.gz
CAPE
9 8 0 3 5 18 27 27 22 25 21 12 9 6 1 5 7 12 21 12 1 0 0 0 0 7 0 0 0 0 0 0 0 0 0 0 0 0 0 0 0 0 0 0 0 0 0
2 7 23 17 14 13 6 5 21 24 21 16 30 25 15 4 0 2 10 1 0 0 0 0 0 5 6 0 0 0 0 0 0 0 0 0 0 0 0 0 0 0 0 0 0 0 0
3 4 10 8 18 23 17 7 5 6 25 8 9 23 19 6 1 2 0 0 0 0 0 0 0 2 2 0 0 0 0 0 0 0 0 0 0 0 0 0 0 0 0 0 0 0 0
10 7 3 6 6 12 17 20 12 2 27 14 3 21 30 13 9 12 0 0 0 0 0 0 0 3 0 0 0 0 0 0 0 0 0 0 0 0 0 0 0 0 0 0 0 0 0
9 8 9 7 14 13 18 27 30 24 29 17 9 22 34 25 12 0 0 0 0 0 0 0 3 2 0 0 0 0 0 0 0 0 0 0 0 0 0 0 0 0 0 0 0 0 0
19 22 20 12 6 16 17 15 29 34 32 31 17 22 33 30 11 0 0 0 0 0 0 0 1 5 0 0 0 0 0 0 0 0 0 0 0 0 0 0 0 0 0 0 0 0 0
19 11 9 13 27 17 17 20 18 43 19 34 22 19 15 24 3 0 0 0 0 0 0 0 0 0 0 0 0 0 0 0 0 0 0 0 0 0 0 0 0 0 0 0 0 0 0
12 10 18 20 21 39 31 29 30 28 25 28 34 26 8 1 0 0 0 0 0 0 0 0 0 0 0 0 0 0 0 0 0 0 0 0 0 0 0 0 0 0 0 0 0 0 0
14 18 22 28 26 35 40 35 36 38 32 35 49 34 16 16 0 0 0 0 0 0 0 0 0 0 0 0 0 0 0 0 0 0 0 0 0 0 0 0 0 0 0 0 0 0 0
13 0 1 10 24 26 24 30 29 33 32 53 67 75 54 43 0 0 0 0 0 0 0 0 0 0 0 0 0 0 0 0 0 0 0 0 0 0 0 0 0 0 0 0 0 0 0
15 1 0 6 14 21 17 21 16 23 30 28 46 32 70 47 0 0 0 0 0 0 0 0 0 0 0 0 0 0 0 0 0 0 0 0 0 0 0 0 0 0 0 0 0 2 4
26 18 10 3 16 22 23 21 25 30 31 24 25 44 71 0 0 0 0 0 0 1 0 0 0 0 0 0 0 0 0 0 0 0 0 0 0 0 0 0 0 0 0 0 3 15 0
7 10 15 16 13 11 19 23 25 26 34 17 10 43 25 9 0 0 0 0 1 3 0 0 0 0 0 0 0 0 0 0 0 0 0 0 0 0 0 0 0 1 5 9 8 13 0
17 15 22 12 10 25 26 25 24 22 31 32 22 37 0 0 0 0 0 38 11 0 0 0 0 5 0 0 0 0 0 0 0 0 0 0 0 0 0 0 3 0 24 14 0 20 0
19 12 21 37 45 39 33 27 28 29 34 36 39 0 0 0 0 0 22 11 0 0 0 0 0 0 9 0 0 0 0 0 0 0 0 0 0 0 0 0 0 16 73 4 36 23 1
23 21 31 26 40 35 34 37 36 41 42 44 1 5 0 0 0 7 37 0 0 0 0 0 0 0 0 0 0 0 19 7 0 0 0 0 0 0 0 0 6 4 31 29 20 3 1
17 12 23 38 34 37 47 54 54 50 56 46 4 32 0 0 0 28 0 0 0 0 0 0 0 0 0 0 0 0 12 1 0 0 0 0 0 0 20 2 11 28 45 24 7 2 51
21 22 34 38 44 48 48 48 58 51 58 1 13 12 0 0 9 15 1 0 0 0 0 0 0 0 0 0 0 0 8 26 0 0 0 0 1 0 0 0 4 22 11 29 2 5 5
19 25 40 40 47 45 47 48 52 54 55 10 35 2 0 24 3 0 0 6 7 0 0 0 2 0 0 0 0 0 29 0 0 0 0 0 4 0 0 0 18 5 7 14 46 12 40
19 35 39 37 43 50 48 39 51 55 85 3 30 4 0 0 0 21 2 0 8 0 0 0 0 0 0 0 0 0 11 35 3 0 0 0 0 0 0 0 3 18 6 4 30 5 1
46 28 23 12 12 31 42 53 60 80 75 1 4 0 6 14 5 10 10 6 7 3 2 1 4 0 0 0 0 0 0 17 17 8 0 1 1 0 0 0 0 0 7 14 12 12 21
13 19 31 31 34 37 47 64 64 83 67 29 13 6 23 105 18 16 26 1 14 7 67 25 38 55 4 2 0 1 0 2 10 0 1 0 0 0 0 0 20 9 8 1 0 17 8
35 40 39 35 39 49 46 42 61 85 17 6 12 1 28 2 1 9 15 5 66 47 1 0 0 0 8 27 25 6 0 0 8 10 5 2 5 0 0 0 0 1 0 0 1 8 10
21 19 24 31 38 42 47 56 65 93 30 6 19 11 2 0 0 1 7 3 8 7 11 0 6 2 23 45 15 1 0 0 0 4 8 5 4 0 0 0 1 4 0 7 21 6 6
30 37 43 43 45 44 35 47 100 94 91 2 0 10 20 3 5 0 10 12 5 2 0 7 21 3 0 4 0 0 0 0 0 0 0 0 0 1 0 1 0 0 7 22 3 7 3
29 36 41 38 55 57 42 32 57 24 62 0 0 0 19 4 1 1 0 11 0 0 0 0 9 0 0 0 0 0 0 0 0 0 0 0 0 1 13 3 0 0 7 5 10 3 14
23 36 44 39 45 49 32 44 57 48 28 0 3 0 22 10 0 0 0 0 0 1 3 1 0 3 0 0 0 0 0 1 2 1 3 0 1 6 1 16 0 2 52 25 1 17 13
37 49 55 43 37 45 40 53 59 34 24 11 1 0 1 3 0 0 0 0 0 0 4 0 1 19 0 2 0 0 0 0 1 15 24 0 0 6 13 35 3 61 23 7 25 21 12
53 52 47 44 48 54 55 59 58 57 61 35 3 0 0 8 0 0 0 0 0 0 1 6 26 12 4 0 0 0 0 1 18 31 1 11 0 0 0 0 63 7 4 8 5 7 0

GFSGBSN_con_sbcape_081.txt.gz
CAPE
10 17 17 1 0 5 3 1 3 16 13 4 3 0 0 5 7 4 9 7 1 1 1 2 1 3 3 0 0 0 0 0 0 0 0 0 0 0 0 0 0 0 0 0 0 0 0
1 9 10 16 16 17 19 10 1 0 9 25 13 4 3 1 4 2 0 1 2 1 0 1 0 5 1 0 0 0 0 0 0 0 0 0 0 0 0 0 0 0 0 0 0 0 0
0 3 6 12 8 3 1 25 16 10 5 25 12 14 6 0 0 0 0 2 0 0 0 0 1 2 2 0 0 0 0 0 0 0 0 0 0 0 0 0 0 0 0 0 0 0 0
14 10 7 8 7 7 1 21 31 28 27 31 21 9 29 11 2 0 1 0 0 0 0 1 3 3 0 0 0 0 0 0 0 0 0 0 0 0 0 0 0 0 0 0 0 0 0
5 10 15 15 11 18 17 18 18 9 32 32 31 30 36 13 4 0 0 0 0 0 0 0 1 0 0 0 0 0 0 0 0 0 0 0 0 0 0 0 0 0 0 0 0 0 0
28 22 15 15 20 23 18 20 31 12 13 19 26 34 25 15 3 0 0 0 0 0 0 0 2 2 0 0 0 0 0 0 0 0 0 0 0 0 0 0 0 0 0 0 0 0 0
15 10 11 14 13 18 33 29 22 22 17 22 34 35 20 22 4 0 0 0 0 0 0 0 0 0 0 0 0 0 0 0 0 0 0 0 0 0 0 0 0 0 0 0 0 0 0
5 1 9 14 21 22 27 29 22 25 25 23 25 22 26 22 11 0 0 0 0 0 2 0 0 0 0 0 0 0 0 0 0 0 0 0 0 0 0 0 0 0 0 0 0 0 0
17 12 1 5 16 19 20 19 17 14 16 17 20 25 28 35 15 0 0 0 0 0 0 0 0 0 0 0 0 0 0 0 0 0 0 0 0 0 0 0 0 0 0 0 0 0 0
13 0 0 0 3 14 20 20 15 14 17 21 24 17 43 44 0 0 0 0 0 0 0 0 0 0 0 0 0 0 0 0 0 0 0 0 0 0 0 0 0 0 0 0 0 0 0
17 6 2 0 1 9 14 20 22 18 17 25 24 23 63 32 0 0 0 0 0 0 0 0 0 0 0 0 0 0 0 0 0 0 0 0 0 0 0 0 0 0 0 0 0 0 0
7 11 14 11 8 10 10 10 11 12 9 28 27 21 37 0 0 0 0 0 1 2 0 0 0 0 0 0 0 0 0 0 0 0 0 0 0 0 0 0 0 0 0 0 0 11 0
10 3 9 21 13 5 13 14 12 13 13 23 46 39 15 0 0 0 0 0 3 4 0 0 0 0 0 0 0 0 0 0 0 0 0 0 0 0 0 0 0 0 9 1 0 2 0
5 21 6 8 15 21 16 13 10 13 28 40 44 37 0 0 0 0 0 3 3 0 0 0 0 0 0 0 0 0 0 0 0 0 0 0 0 0 0 0 0 0 6 1 0 0 0
21 17 10 21 11 14 18 11 13 22 31 40 15 0 0 0 0 0 0 5 0 0 0 0 0 0 0 0 0 0 0 0 0 0 0 0 0 0 0 0 0 5 17 2 42 2 27
36 20 12 15 15 25 14 16 27 36 36 41 0 0 0 0 0 0 2 6 3 0 0 0 0 3 2 0 0 0 0 0 0 0 0 0 0 0 0 0 0 2 16 60 8 9 22
32 16 11 4 23 25 23 27 30 36 49 31 0 0 0 0 0 24 4 2 2 0 0 0 4 9 9 2 0 0 30 0 0 0 0 0 0 0 5 2 0 16 2 12 29 10 63
21 14 6 22 26 33 34 27 24 38 44 0 0 0 0 0 6 2 4 4 1 0 0 0 0 5 19 5 0 0 4 12 0 0 0 0 3 0 0 0 0 13 10 43 31 83 15
7 14 8 24 36 35 33 39 37 41 32 0 0 11 0 0 0 5 2 9 2 0 0 0 18 8 0 2 4 2 7 0 0 0 0 0 3 0 0 0 27 29 17 5 25 8 0
18 9 22 47 31 25 22 28 39 51 43 0 11 0 0 0 0 0 0 8 1 0 4 0 1 0 0 0 0 0 2 18 1 0 0 0 0 1 0 0 0 0 1 1 6 29 30
20 36 30 14 12 14 7 17 46 67 44 0 13 0 0 0 1 11 0 0 0 0 0 0 1 0 0 3 0 0 11 6 0 8 0 0 0 0 0 0 0 0 0 0 8 0 9
25 8 8 5 11 24 30 41 49 33 50 14 1 4 0 6 35 18 5 32 19 0 40 1 0 16 10 1 6 8 1 1 16 0 0 0 0 0 0 0 0 0 0 0 0 0 18
21 31 37 39 32 21 29 48 62 81 13 18 6 0 84 0 3 5 6 16 11 15 13 8 0 3 0 6 7 1 0 0 0 0 0 0 0 0 0 0 0 0 0 1 6 3 0
16 7 11 14 13 25 41 45 54 64 26 0 0 36 48 0 3 1 11 4 31 11 17 32 2 4 0 21 0 0 0 0 0 0 0 0 0 0 0 0 0 0 0 0 9 2 1
26 20 26 34 35 52 49 56 49 61 64 1 0 6 43 6 7 6 0 20 13 0 4 1 10 8 0 0 0 0 0 0 0 0 0 0 2 9 10 1 0 0 0 10 10 1 0
26 19 32 30 38 53 45 39 42 51 73 1 0 0 2 0 0 0 0 0 0 12 6 0 0 0 0 0 0 0 0 0 0 0 0 0 0 9 2 13 0 0 1 1 4 1 8
28 35 28 25 49 52 43 40 41 50 77 15 0 0 1 8 0 0 0 0 0 0 0 10 0 7 0 0 0 0 0 0 0 0 0 0 0 3 1 13 0 0 75 11 6 17 13
13 23 28 41 63 49 50 45 43 51 63 10 0 0 0 0 0 0 0 0 0 0 0 0 0 0 0 0 0 0 0 0 0 0 0 0 0 0 1 6 1 33 42 2 13 20 18
33 40 55 61 78 56 46 44 37 46 58 19 0 0 0 2 0 0 1 0 0 0 0 0 0 2 4 0 0 0 0 0 0 0 5 12 0 0 0 0 25 2 23 17 3 2 2

GFSGBSN_con_sbcape_084.txt.gz
CAPE
1 1 15 16 12 16 19 13 6 1 0 1 16 9 7 6 4 3 5 4 1 1 1 3 3 5 0 0 0 0 0 0 0 0 0 0 0 0 0 0 0 0 0 0 0 0 0
0 0 0 5 6 6 6 13 20 13 8 13 20 11 2 2 3 1 0 2 3 0 0 1 2 6 0 0 0 0 0 0 0 0 0 0 0 0 0 0 0 0 0 0 0 0 0
0 0 0 0 0 0 0 5 21 22 29 27 22 11 3 1 0 0 0 0 0 0 0 1 5 3 3 0 0 0 0 0 0 0 0 0 0 0 0 0 0 0 0 0 0 0 0
21 3 0 4 2 9 10 18 15 12 9 16 26 26 37 17 9 4 0 0 0 0 0 0 6 2 1 0 0 0 0 0 0 0 0 0 0 0 0 0 0 0 0 0 0 0 0
10 9 14 18 17 15 12 12 16 14 12 5 6 19 39 30 25 7 0 0 0 0 0 0 0 0 0 0 0 0 0 0 0 0 0 0 0 0 0 0 0 0 0 0 0 0 0
25 18 15 13 5 4 26 24 29 17 14 12 14 18 23 31 26 1 0 0 0 0 0 0 2 1 0 0 0 0 0 0 0 0 0 0 0 0 0 0 0 0 0 0 0 0 0
9 2 1 3 5 8 15 35 24 19 19 18 17 14 10 9 3 4 0 0 0 0 0 0 0 0 0 0 0 0 0 0 0 0 0 0 0 0 0 0 0 0 0 0 0 0 0
3 2 0 0 10 17 23 21 19 14 11 13 11 9 3 0 0 0 0 0 0 0 2 0 0 0 0 0 0 0 0 0 0 0 0 0 0 0 0 0 0 0 0 0 0 0 0
15 8 0 0 4 13 19 19 15 12 7 3 8 14 4 2 0 0 0 0 0 0 0 0 0 0 0 0 0 0 0 0 0 0 0 0 0 0 0 0 0 0 0 0 0 0 0
17 0 0 0 0 1 4 7 9 16 17 15 27 12 1 0 0 0 0 0 0 0 1 0 0 0 0 0 0 0 0 0 0 0 0 0 0 0 0 0 0 0 0 0 0 0 0
22 8 6 0 0 0 0 11 14 16 15 13 26 16 0 0 0 0 0 0 0 1 0 0 0 0 0 0 0 0 0 0 0 0 0 0 0 0 0 0 0 0 0 0 0 0 0
5 1 2 1 6 9 8 13 15 14 17 14 10 17 1 0 0 0 0 0 0 6 0 0 0 0 0 0 0 0 0 0 0 0 0 0 0 0 0 0 0 0 0 0 0 1 0
12 1 0 9 10 6 7 10 9 12 13 15 5 3 0 0 0 0 0 0 1 3 0 0 0 0 0 0 0 0 0 0 0 0 0 0 0 0 0 0 0 0 0 0 0 6 0
1 7 7 1 10 18 25 20 12 10 5 25 1 0 0 0 0 0 0 0 1 0 0 0 0 0 21 0 0 1 0 0 0 0 0 0 0 0 0 0 0 0 0 0 0 0 0
1 17 9 13 17 8 16 13 13 21 27 26 0 0 0 0 0 0 0 3 0 0 0 0 0 27 3 2 0 0 0 0 0 0 0 0 0 0 0 0 0 3 2 0 12 1 19
20 29 7 8 1 18 14 15 20 21 31 20 0 0 0 0 0 0 0 1 0 0 0 0 0 36 7 3 3 0 0 0 0 0 0 0 0 0 0 0 0 0 4 43 23 0 3
9 15 4 6 2 16 20 27 22 19 27 6 0 0 0 0 0 29 6 0 0 0 0 0 0 0 4 9 14 6 1 0 0 0 0 0 0 0 0 0 0 3 7 17 15 25 7
2 16 9 2 19 22 24 18 18 32 21 0 0 0 0 0 0 0 1 0 9 0 0 0 11 17 0 0 0 27 14 6 0 0 0 0 0 0 0 0 0 11 4 2 67 11 2
14 10 8 4 18 25 14 15 23 35 15 0 0 0 0 0 0 5 19 9 17 0 0 0 7 2 50 5 3 7 13 5 0 0 0 0 0 0 0 0 16 37 19 25 8 31 13
8 10 9 10 38 15 1 2 15 40 33 0 0 0 0 1 0 0 0 0 1 0 0 0 0 0 0 0 0 0 9 3 3 0 0 0 0 0 0 0 0 0 0 0 22 4 0
11 9 25 32 13 1 0 5 10 38 2 0 0 0 0 0 0 0 2 1 0 0 0 0 1 0 0 6 11 1 2 5 14 10 0 0 0 0 0 0 0 0 0 0 0 0 8
34 29 27 15 0 0 11 23 35 21 16 4 0 0 1 0 0 0 0 0 1 6 28 0 0 0 0 5 1 10 0 6 34 1 0 0 0 0 0 0 0 0 0 0 0 0 0
13 17 26 33 28 36 27 28 50 22 17 5 9 9 26 0 0 0 0 0 12 16 0 0 9 4 0 4 0 2 0 0 2 0 0 0 0 0 0 0 0 0 0 0 0 0 0
28 39 14 8 11 10 15 31 49 61 19 0 0 0 0 0 0 0 1 14 16 28 9 62 10 32 0 0 0 0 0 0 0 2 0 0 0 0 0 0 0 0 0 2 1 0 0
47 31 20 17 20 28 32 48 57 38 44 0 0 0 3 1 0 0 0 8 5 6 13 17 17 2 0 1 0 0 0 0 0 0 0 0 0 0 0 0 0 0 5 0 0 0 2
52 50 27 15 29 27 39 42 42 45 51 1 0 0 0 0 0 0 0 0 0 11 0 2 0 0 0 0 0 0 0 0 0 0 0 0 0 1 0 0 0 0 43 3 7 1 6
20 23 15 31 27 25 36 35 35 34 47 10 6 0 5 0 0 0 0 0 4 2 2 0 0 0 0 0 0 0 0 0 0 0 0 0 0 0 0 6 0 0 4 28 9 9 10
37 29 21 15 22 34 40 38 36 34 56 9 3 0 1 1 0 0 0 0 0 0 1 0 0 0 0 0 0 0 0 0 0 0 0 0 0 0 1 8 0 1 42 22 16 9 4
19 19 25 30 30 55 45 40 28 34 54 13 3 0 0 0 0 0 0 0 0 0 0 0 0 6 6 11 0 1 0 0 0 0 0 6 8 1 0 3 11 9 11 8 3 5 12

GFSGBSN_con_sbcape_087.txt.gz
CAPE
2 2 4 13 14 6 5 8 10 6 7 2 16 10 11 9 10 4 2 1 0 0 0 0 2 5 0 0 0 0 0 0 0 0 0 0 0 0 0 0 0 0 0 0 0 0 0
0 0 0 0 0 0 0 0 5 17 20 22 15 16 14 7 7 1 0 0 0 0 0 0 3 1 0 0 0 0 0 0 0 0 0 0 0 0 0 0 0 0 0 0 0 0 0
0 0 0 0 0 0 0 9 7 4 0 0 0 0 5 12 6 1 0 0 0 0 0 0 2 0 1 0 0 0 0 0 0 0 0 0 0 0 0 0 0 0 0 0 0 0 0
14 4 0 3 3 4 2 3 9 11 8 0 1 3 6 3 3 0 0 0 0 0 0 0 2 1 0 0 0 0 0 0 0 0 0 0 0 0 0 0 0 0 0 0 0 0 0
12 6 8 19 14 9 10 10 13 14 12 2 2 3 2 5 3 3 0 0 0 0 0 0 0 0 0 0 0 0 0 0 0 0 0 0 0 0 0 0 0 0 0 0 0 0 0
26 23 14 14 6 0 0 32 21 13 10 12 8 5 1 2 2 0 0 0 0 0 0 0 0 0 0 0 0 0 0 0 0 0 0 0 0 0 0 0 0 0 0 0 0 0 0
19 7 4 1 0 0 8 15 13 10 7 12 7 4 1 1 1 0 0 0 0 0 0 0 0 0 0 0 0 0 0 0 0 0 0 0 0 0 0 0 0 0 0 0 0 0 0
0 1 1 3 8 15 16 13 10 8 8 4 2 2 0 0 0 0 0 0 0 0 4 0 0 0 0 0 0 0 0 0 0 0 0 0 0 0 0 0 0 0 0 0 0 0 0
9 9 3 0 0 0 4 7 3 7 9 3 1 2 0 0 0 0 0 0 0 0 3 0 0 0 0 0 0 0 0 0 0 0 0 0 0 0 0 0 0 0 0 0 0 0 0
26 3 0 0 0 1 5 8 9 6 3 2 4 6 2 0 0 0 0 0 0 0 0 0 0 0 0 0 0 0 0 0 0 0 0 0 0 0 0 0 0 0 0 0 0 0 0
14 12 9 0 0 0 0 0 1 4 6 5 3 0 2 0 0 0 0 0 0 0 0 0 0 0 0 0 0 0 0 0 0 0 0 0 0 0 0 0 0 0 0 0 0 0 0
17 12 9 3 4 0 0 3 6 4 5 5 1 0 4 0 0 0 0 0 0 0 0 0 0 0 0 0 1 0 0 0 0 2 0 0 0 0 0 0 0 0 0 0 0 0 1
12 2 1 9 2 1 10 5 8 5 4 2 0 0 0 0 0 0 0 0 0 0 0 0 0 0 0 0 16 0 0 0 0 1 2 0 0 0 0 0 0 0 0 0 0 3 0
6 11 11 0 5 9 7 5 1 5 14 1 0 0 0 0 0 0 0 0 0 0 0 0 0 0 0 0 0 1 1 0 0 0 0 0 0 0 0 0 0 0 0 0 0 0 0
2 21 10 15 16 3 6 0 2 14 14 0 0 0 0 0 0 0 0 0 0 0 0 0 0 0 7 0 8 0 0 1 0 0 0 0 0 0 0 0 0 2 2 0 2 2 8
9 9 9 7 0 8 4 0 12 14 3 0 0 0 0 0 0 0 0 0 0 0 0 0 0 21 2 0 0 0 1 0 0 0 0 0 3 0 0 0 0 1 20 23 6 0 1
2 12 3 3 2 1 5 11 11 16 2 0 0 0 0 0 0 11 2 0 0 0 0 0 1 0 0 0 0 5 0 2 5 0 0 0 7 3 28 15 8 22 4 4 25 26 18
0 5 10 1 0 15 10 11 14 26 0 0 0 0 0 0 0 1 2 9 7 0 0 0 0 0 0 0 23 10 6 6 1 11 29 2 0 0 0 0 1 17 6 6 2 16 30
6 11 8 2 0 18 11 15 17 27 0 0 0 0 0 0 0 0 0 0 0 0 0 0 1 0 0 1 4 0 5 0 5 11 28 0 0 0 17 12 26 15 10 2 0 3 4
12 11 4 0 1 25 13 3 2 24 8 0 0 0 0 2 0 0 0 0 0 0 1 0 0 0 0 0 3 1 0 2 3 9 0 0 0 0 0 0 0 0 0 0 1 4 0
11 3 0 5 23 12 2 0 6 16 11 0 0 0 0 0 0 0 0 0 0 2 0 0 0 0 0 7 10 1 12 1 5 8 6 0 0 0 0 0 0 0 0 0 0 0 0
20 16 21 32 20 1 0 14 36 17 8 0 0 1 8 5 0 1 0 0 1 6 25 6 9 0 0 0 2 9 37 4 4 8 37 19 2 0 0 0 0 0 0 0 0 0 0
25 20 13 11 12 15 24 33 38 29 1 12 6 12 8 0 0 0 0 0 16 33 1 8 9 21 6 2 28 18 9 1 15 25 59 13 1 0 0 0 0 0 0 0 0 0 2
12 6 18 22 15 17 8 11 29 40 3 0 0 1 7 0 1 0 0 0 9 17 6 5 7 14 11 3 4 6 8 0 0 8 3 0 0 1 0 0 0 0 0 0 5 0 0
10 15 20 14 7 3 15 29 48 54 41 0 0 0 1 2 2 0 0 0 0 1 14 13 11 11 4 10 3 1 0 0 0 0 0 0 0 0 0 0 0 0 26 4 21 1 6
19 35 39 25 12 23 22 27 44 40 42 0 0 0 9 0 0 0 1 0 0 8 0 6 1 1 9 0 0 1 0 0 0 0 0 0 0 8 2 0 0 0 0 6 39 4 12
22 31 50 29 15 28 24 30 33 39 43 13 7 0 11 2 0 0 0 0 4 2 2 0 0 1 0 0 2 0 0 0 0 0 0 0 0 2 3 3 0 5 1 19 14 11 22
35 20 21 23 27 18 20 30 36 39 43 3 2 1 5 0 0 0 0 0 0 0 6 0 0 0 1 1 4 4 1 0 1 0 0 5 1 2 0 1 0 4 0 7 15 8 14
23 24 18 16 12 18 28 41 49 38 54 14 5 2 5 3 0 0 0 0 0 0 1 1 1 11 28 5 7 13 0 0 1 0 0 17 16 3 28 16 12 11 10 12 12 14 14

GFSGBSN_con_sbcape_090.txt.gz
CAPE
15 10 8 9 7 0 0 0 0 6 13 10 5 4 5 3 4 3 0 0 0 0 0 0 3 4 0 0 0 0 0 0 0 0 0 0 0 0 0 0 0 0 0 0 0 0 0
7 3 2 1 0 0 0 0 1 0 0 0 0 0 1 2 2 1 0 0 0 0 0 0 3 1 0 0 0 0 0 0 0 0 0 0 0 0 0 0 0 0 0 0 0 0 0
1 1 1 0 0 0 0 0 0 0 0 0 0 0 0 0 0 0 0 0 0 0 0 0 1 0 0 0 0 0 0 0 0 0 0 0 0 0 0 0 0 0 0 0 0 0 0
6 2 1 0 1 0 0 0 0 2 0 0 0 0 0 0 0 0 0 0 0 0 0 0 0 0 0 0 0 0 0 0 0 0 0 0 0 0 0 0 0 0 0 0 0 0 0
25 13 7 14 13 4 3 13 11 2 0 0 0 0 0 0 0 0 0 0 0 0 0 0 3 0 0 0 0 0 0 0 0 0 0 0 0 0 0 0 0 0 0 0 0 0 0
24 17 29 16 6 0 0 23 9 0 0 0 0 0 0 1 0 0 0 0 0 0 0 0 0 0 0 0 0 0 0 0 0 0 0 0 0 0 0 0 0 0 0 0 0 0 0
31 30 13 6 0 0 7 12 1 0 0 0 0 0 1 0 0 0 0 0 0 0 0 0 0 0 0 0 0 0 0 0 0 0 0 0 0 0 0 0 0 0 0 0 0 0 0
17 7 2 0 1 10 17 11 1 0 0 1 0 0 0 0 0 0 0 0 0 0 0 0 0 0 0 0 0 0 0 0 0 0 0 0 0 0 0 0 0 0 0 0 0 0 0
7 10 9 2 1 0 2 1 0 4 1 0 0 1 0 0 0 0 0 0 1 1 3 0 0 0 0 0 0 0 0 0 0 0 0 0 0 0 0 0 0 0 0 0 0 0 0
33 20 11 1 1 2 3 4 0 0 0 0 0 0 0 0 0 0 0 0 0 0 1 0 0 0 0 0 0 0 0 0 0 0 4 5 0 0 0 0 0 0 0 0 0 0 0
38 18 9 3 0 0 0 1 1 0 0 0 0 0 0 0 0 0 0 0 0 11 0 0 0 0 0 0 0 0 0 0 0 0 20 6 0 0 0 0 0 0 0 0 1 2 0
34 27 19 7 1 0 0 7 0 0 0 0 0 0 0 0 0 0 0 0 1 8 0 0 0 0 0 0 0 0 0 0 0 0 15 24 21 0 3 0 2 16 6 4 1 1 0
36 17 8 9 7 5 9 10 0 0 0 0 0 0 0 0 0 0 0 0 2 0 0 0 0 0 0 0 0 20 1 27 9 3 26 31 51 43 21 29 11 27 12 9 25 15 0
21 12 10 0 8 12 7 4 0 0 0 0 0 0 0 0 0 0 0 0 0 0 0 0 0 0 0 12 0 17 19 11 11 29 45 79 53 35 15 11 7 8 15 15 0 0 3
12 24 8 8 13 6 9 0 0 0 0 0 0 0 0 1 2 0 1 0 0 0 1 2 0 0 10 29 0 0 0 0 9 50 33 37 33 4 5 8 14 42 49 18 25 1 8
9 30 18 7 1 12 4 0 0 0 0 0 0 0 3 0 1 12 10 0 0 0 2 2 1 7 28 23 1 2 0 8 44 39 95 69 53 33 32 34 65 79 53 24 55 19 6
21 33 8 2 0 9 6 7 0 0 0 0 0 0 9 0 36 15 7 1 0 0 5 8 12 11 11 7 2 1 1 0 2 5 0 12 73 90 71 84 69 72 63 47 43 41 39
2 7 3 4 8 12 10 7 0 0 0 0 0 3 2 6 16 7 11 2 0 0 5 19 7 20 22 31 48 30 20 17 3 10 3 84 81 129 75 52 77 49 46 52 64 43 25
1 6 8 2 2 14 15 12 0 0 0 0 1 0 0 12 12 13 9 5 2 6 21 21 26 22 28 20 25 10 2 0 1 16 18 151 111 104 87 40 63 38 41 8 0 1 19
9 16 6 1 0 23 18 3 0 0 0 0 9 9 1 8 7 5 11 3 12 6 14 12 30 51 42 39 33 0 0 0 1 10 16 18 53 33 61 40 25 12 1 3 9 13 16
10 17 9 2 12 29 8 0 0 0 0 2 8 5 5 11 24 15 15 10 14 20 17 19 55 43 57 37 12 2 10 14 3 10 7 16 48 23 0 0 0 0 0 0 1 0 0
14 6 0 13 34 14 0 0 6 7 0 10 14 7 12 6 8 10 5 13 18 20 30 16 60 43 26 54 25 1 15 4 61 10 2 1 0 0 0 0 0 0 0 0 0 0 0
9 15 27 23 16 6 8 16 19 17 1 25 19 12 9 2 5 11 13 10 13 32 4 9 56 31 15 10 24 11 9 23 28 36 27 47 31 0 0 0 0 0 0 0 0 6 20
19 30 21 13 29 29 31 25 12 19 3 15 10 12 10 6 3 5 0 2 5 11 31 15 48 22 14 7 50 40 68 73 43 53 47 60 1 5 3 0 0 11 4 15 4 19 3
23 15 10 40 8 13 15 10 16 26 20 41 9 27 19 12 7 1 1 3 0 10 33 30 17 14 11 10 117 35 19 24 0 4 9 40 33 15 10 0 0 17 22 19 21 16 6
22 11 10 22 12 15 14 22 24 20 46 36 0 11 25 35 5 0 2 0 5 6 2 0 1 5 9 56 81 12 15 19 10 48 19 18 5 22 5 0 0 3 0 24 53 40 2
19 21 36 38 23 20 27 20 24 22 36 43 23 1 33 31 9 0 11 10 9 7 3 1 1 5 8 105 36 45 41 5 18 6 22 15 5 16 7 3 8 3 2 1 56 20 19
35 38 34 53 41 27 25 23 17 14 40 62 31 9 26 10 15 4 1 5 5 7 10 0 10 17 12 38 67 23 33 33 38 37 34 30 29 36 7 14 22 5 0 4 19 23 28
16 41 42 47 54 26 20 17 15 27 47 40 39 7 6 18 13 6 0 0 0 2 8 6 12 21 37 25 19 25 16 45 12 65 3 36 7 15 8 9 12 11 14 15 14 9 18

GFSGBSN_con_sbcape_093.txt.gz
CAPE
21 18 8 4 1 8 3 0 0 0 0 0 0 0 0 0 1 0 0 0 0 0 0 0 0 0 0 0 0 0 0 0 0 0 0 0 0 0 0 0 0 0 0 0 0 0 0
25 17 14 16 9 4 0 0 0 0 0 0 0 0 0 0 0 0 0 0 0 0 0 0 0 0 0 0 0 0 0 0 0 0 0 0 0 0 0 0 0 0 0 0 0 0 0
29 16 11 8 5 0 0 0 0 0 0 0 0 0 0 0 0 0 0 0 0 0 0 0 0 0 0 0 0 0 0 0 0 0 0 0 0 0 0 0 0 0 0 0 0 0 0
26 11 8 3 0 0 0 0 0 0 0 0 0 0 0 0 0 0 0 0 0 0 0 0 0 0 0 0 0 0 0 0 0 0 0 0 0 0 0 0 0 0 0 0 0 0 0
49 18 17 5 2 1 0 4 0 0 0 0 0 0 0 0 0 0 0 0 0 0 0 0 0 0 0 0 0 0 0 0 0 0 0 0 0 0 0 0 0 0 0 0 0 0 0
57 60 19 20 17 0 0 16 13 0 0 0 0 0 0 0 0 0 0 0 0 0 0 0 0 0 0 0 0 0 0 0 0 0 0 0 0 0 0 0 0 0 0 0 0 0 0
70 69 41 32 5 0 8 13 0 0 0 0 0 0 1 0 0 0 0 0 0 0 0 0 0 0 0 0 0 0 0 0 0 0 0 0 0 0 0 0 0 0 0 0 0 0 0
76 72 53 19 6 4 18 16 0 0 0 0 0 0 0 0 0 0 0 0 0 0 0 0 0 0 0 0 0 0 0 0 0 0 0 0 0 0 0 0 0 0 0 0 0 0 0
84 50 25 19 21 21 19 2 0 0 0 0 0 0 0 0 0 0 0 0 0 0 0 0 0 0 0 0 0 0 0 0 0 0 0 4 0 0 0 0 0 0 1 0 0 0 0
56 33 22 19 11 6 1 2 0 0 0 0 0 0 0 0 0 0 0 0 0 1 0 0 0 0 0 0 0 0 0 0 1 0 0 3 14 18 44 0 0 0 0 0 0 0 0
43 19 12 22 19 5 1 0 0 0 0 0 0 0 0 0 0 0 0 0 0 11 0 0 0 0 0 0 0 0 3 0 4 12 46 0 0 57 86 28 0 0 4 3 0 0 0
40 26 20 20 19 8 5 7 0 0 0 0 0 0 0 0 0 0 0 0 4 21 0 0 0 0 0 0 0 0 0 56 8 15 36 37 2 79 90 107 15 5 26 55 34 32 27
36 23 23 16 17 12 8 3 0 0 0 0 0 0 0 0 0 0 0 0 5 0 0 0 0 0 0 0 0 5 96 92 82 111 99 85 26 60 77 66 55 27 81 72 61 35 1
44 39 25 24 22 19 18 4 0 0 0 0 0 0 0 0 0 0 0 4 0 0 0 0 0 0 0 0 3 64 63 62 104 71 137 81 50 103 83 100 73 47 56 59 39 37 36
15 13 17 15 25 16 12 0 0 0 0 0 0 0 6 0 2 2 12 2 0 0 0 0 0 0 0 28 38 25 45 47 40 53 119 155 81 60 136 78 77 73 102 31 44 24 56
20 21 10 27 20 15 13 0 0 0 0 0 1 3 3 4 3 26 7 0 0 0 0 2 4 3 6 13 17 12 7 51 52 13 4 254 91 86 63 53 67 43 56 81 89 22 25
14 32 22 14 8 20 6 0 0 0 0 0 7 4 3 0 4 14 12 0 0 1 3 9 22 21 16 15 25 24 9 15 21 24 4 10 291 154 103 70 38 44 82 67 87 88 82
23 31 16 1 3 18 3 0 0 0 0 0 2 15 0 0 28 10 10 0 0 8 19 36 51 40 34 40 32 27 27 35 8 2 5 0 201 158 41 47 31 65 80 122 79 43 56
23 20 8 8 20 20 10 0 0 0 0 10 7 3 0 23 19 9 6 4 3 21 25 39 52 70 62 59 31 38 19 19 2 5 22 27 152 210 78 122 129 88 93 83 59 46 66
8 15 6 0 7 24 13 0 0 0 0 3 25 22 16 19 2 3 3 11 17 18 22 28 57 90 69 54 75 18 15 0 1 12 27 29 14 60 37 99 118 40 40 55 64 86 30
19 8 6 3 2 22 10 0 0 0 0 2 41 14 3 19 33 11 11 9 15 16 22 23 63 75 90 76 55 30 20 17 6 6 18 10 237 39 56 40 86 85 59 65 37 16 0
11 12 13 11 7 27 5 0 0 0 0 36 27 23 1 3 2 4 11 12 11 17 23 19 41 66 83 79 44 9 4 3 47 44 15 4 29 6 0 0 0 1 0 2 6 4 0
10 0 0 11 38 17 0 0 7 0 0 19 17 2 15 1 8 24 16 2 10 52 10 22 42 53 60 56 70 36 26 0 19 47 46 2 4 6 0 0 0 0 0 0 1 23 9
15 0 16 28 18 9 7 13 8 1 0 37 18 12 12 12 6 1 0 3 1 5 38 29 37 28 15 9 1 11 3 9 46 45 19 44 0 2 0 1 32 7 27 18 38 4 1
29 8 18 13 15 33 29 21 1 17 11 39 19 8 9 16 8 1 1 4 8 5 42 55 14 14 20 11 9 37 24 47 42 56 10 26 18 1 33 31 1 41 16 20 30 9 8
7 14 7 8 25 12 24 6 27 34 29 57 24 24 40 26 30 0 3 9 9 3 1 0 12 7 6 28 76 34 28 14 15 22 21 5 3 24 7 4 7 6 0 7 19 10 11
19 27 16 32 25 10 15 20 30 27 33 62 50 14 27 50 19 9 21 15 13 11 17 3 6 10 23 78 110 55 27 12 32 18 8 25 0 28 10 22 22 4 0 0 47 13 4
29 21 47 36 44 30 35 30 33 25 16 84 48 42 44 50 17 10 19 17 16 15 20 2 50 25 22 55 42 68 55 17 46 40 20 21 20 37 26 27 39 4 0 5 15 29 27
45 40 38 46 49 56 38 35 21 26 21 35 48 48 22 29 11 2 2 5 8 8 18 14 12 31 60 25 21 27 93 133 48 115 4 29 7 18 7 11 18 11 16 13 13 13 21

GFSGBSN_con_sbcape_096.txt.gz
CAPE
18 21 19 15 7 2 2 7 4 0 0 0 0 0 0 0 0 0 0 0 0 0 0 0 0 0 0 0 0 0 0 0 0 0 0 0 0 0 0 0 0 0 0 0 0 0 0
21 22 29 9 6 5 8 3 0 1 0 0 0 0 0 0 0 0 0 0 0 0 0 0 0 3 0 0 0 0 0 0 0 0 0 0 0 0 0 0 0 0 0 0 0 0 0
23 35 30 21 15 11 2 0 0 0 0 0 0 0 0 0 0 0 0 0 0 0 0 0 0 2 0 0 0 0 0 0 0 0 0 0 0 0 0 0 0 0 0 0 0 0 0
40 38 40 42 21 5 0 1 0 0 1 0 0 0 0 0 0 0 0 0 0 0 0 0 0 0 0 0 0 0 0 0 0 0 0 0 0 0 0 0 0 0 0 0 0 0 0
34 36 40 47 37 5 0 0 0 5 4 0 0 0 0 0 0 0 0 0 0 0 0 0 0 0 0 0 0 0 0 0 0 0 0 0 0 0 0 0 0 0 0 0 0 0 0
38 40 46 41 13 14 0 0 12 13 1 0 0 0 0 0 0 0 0 0 0 0 0 0 0 0 0 0 0 0 0 0 0 0 0 0 0 0 0 0 0 0 0 0 0 0 0
38 40 50 47 23 24 2 18 23 0 0 0 0 0 0 0 0 0 0 0 0 0 0 0 0 0 0 0 0 0 0 0 0 0 0 0 0 0 0 0 0 0 0 0 0 0 0
32 33 44 50 49 22 5 25 12 0 0 0 0 0 0 0 0 0 0 0 0 0 0 0 0 0 0 0 0 0 0 0 0 0 0 0 0 0 0 0 0 0 0 0 0 0 0
28 39 46 66 39 14 14 31 1 0 0 0 0 0 0 0 0 0 0 0 0 0 0 0 0 0 0 0 0 0 0 0 0 0 0 0 0 0 0 0 0 1 2 0 0 0 0
15 59 63 41 24 23 33 10 0 0 0 0 0 0 0 0 0 0 0 0 0 0 0 0 0 0 0 0 0 0 0 0 0 0 2 5 0 0 0 18 1 0 0 6 1 0 0
47 62 33 40 24 18 11 15 5 0 0 0 0 0 0 0 0 0 0 0 0 2 1 0 0 0 0 0 0 0 0 0 0 0 12 0 8 15 0 1 48 19 24 13 10 2 10
37 30 24 13 7 13 11 7 2 0 0 0 0 0 0 0 0 0 0 0 0 5 1 0 0 0 0 0 0 0 0 0 0 3 38 11 0 10 11 0 19 68 9 11 9 9 5
32 20 14 13 5 15 20 18 4 0 0 0 0 0 0 0 0 0 0 0 2 0 0 0 0 0 0 0 0 0 0 0 0 30 52 24 24 26 61 0 38 108 93 40 46 36 10
34 29 21 9 7 16 17 20 3 0 0 0 0 0 0 0 0 0 0 1 0 0 0 0 0 0 0 0 0 0 0 0 1 60 57 72 50 24 57 74 24 128 102 67 13 22 12
58 41 23 21 18 19 25 14 0 0 0 0 0 0 3 0 0 0 1 3 0 0 0 0 0 0 0 0 1 14 15 1 14 71 65 36 3 86 80 49 3 71 109 57 51 0 11
62 28 28 35 27 25 19 0 0 0 0 0 0 0 0 0 0 0 20 0 0 0 0 0 0 0 3 1 2 6 7 8 12 61 13 5 14 85 47 30 0 94 84 98 55 88 30
24 23 16 27 23 17 5 0 0 0 0 0 0 2 0 0 0 14 15 0 0 0 0 0 2 9 15 26 44 48 29 11 51 34 0 0 18 1 39 0 24 95 86 17 28 33 1
40 21 23 26 12 14 3 4 0 0 0 0 0 19 0 0 20 4 8 0 0 0 0 1 3 22 50 42 33 42 27 17 43 11 0 0 128 10 150 57 79 40 83 84 37 20 37
19 40 18 4 13 33 5 0 0 0 0 0 10 3 0 0 32 9 0 0 0 0 0 11 26 31 48 52 28 28 28 11 13 0 0 19 17 46 19 73 116 24 8 21 39 39 33
38 31 7 9 26 25 7 0 0 0 0 0 28 24 5 17 0 1 0 1 0 1 9 28 19 29 48 71 55 18 47 27 10 9 6 16 11 4 1 38 66 36 47 58 38 15 6
32 14 6 13 19 30 6 0 0 0 0 0 37 32 2 33 16 2 0 0 3 9 8 10 18 28 36 35 30 12 15 4 1 0 18 17 13 5 2 2 125 53 21 3 0 0 0
17 27 27 6 22 21 4 0 0 0 0 3 2 22 0 1 0 0 4 6 4 12 14 12 30 17 15 40 33 27 13 1 16 25 31 23 10 0 1 0 15 0 0 13 0 2 1
27 20 15 8 16 23 0 0 0 0 0 14 9 0 3 1 4 10 27 0 2 15 2 11 17 16 16 34 8 3 1 1 20 19 38 27 6 50 2 0 0 0 7 15 6 0 0
27 16 14 14 30 11 0 0 0 0 0 5 11 13 17 22 2 2 0 2 1 1 0 1 15 20 3 0 0 0 0 0 1 19 11 17 4 5 0 0 17 8 13 18 1 5 1
27 2 13 24 8 6 6 0 0 0 0 6 17 13 8 15 13 4 0 2 6 0 7 4 4 5 10 5 3 3 5 37 35 8 2 1 20 1 0 31 0 4 0 2 19 9 9
41 35 13 10 12 30 32 13 0 0 0 3 43 37 23 22 26 4 0 4 8 11 11 8 18 19 1 14 38 56 8 7 11 17 1 1 0 3 7 0 9 3 0 0 1 3 11
40 35 37 17 33 9 15 9 7 0 0 25 97 46 20 28 11 10 5 3 9 8 8 5 2 12 30 17 159 34 26 3 15 19 42 60 16 30 2 61 6 4 0 0 3 11 10
52 41 34 39 34 11 8 22 19 2 1 34 67 25 26 26 2 11 12 12 7 5 11 0 16 14 11 18 10 5 40 48 46 7 10 1 5 2 7 7 1 2 0 2 22 20 15
46 44 49 34 47 36 35 31 13 3 2 22 56 16 16 9 0 0 0 0 0 1 8 1 12 32 32 16 13 14 26 73 31 28 0 8 5 11 2 13 8 7 14 12 6 7 12

GFSGBSN_con_sbcape_102.txt.gz
CAPE
3 5 6 8 6 8 2 4 11 7 0 0 0 0 0 0 0 0 0 0 0 0 0 0 0 0 0 0 0 0 0 0 0 0 0 0 0 0 0 0 0 0 0 0 0 0 0
0 1 0 9 12 12 5 15 10 9 1 0 0 0 0 0 0 0 0 0 0 0 0 0 0 1 0 0 0 0 0 0 0 0 0 0 0 0 0 0 0 0 0 0 0 0 0
4 1 3 6 13 9 20 19 16 12 0 0 0 0 0 0 0 0 0 0 0 0 0 0 0 1 0 0 0 0 0 0 0 0 0 0 0 0 0 0 0 0 0 0 0 0 0
2 4 7 10 7 9 21 19 12 7 0 0 0 0 0 0 0 0 0 0 0 0 0 0 0 0 0 0 0 0 0 0 0 0 0 0 0 0 0 0 0 0 0 0 0 0 0
2 5 9 11 5 5 21 23 11 13 0 0 0 0 0 0 0 0 0 0 0 0 0 0 0 0 0 0 0 0 0 0 0 0 0 0 0 0 0 0 0 0 0 0 0 0 0
2 5 6 10 12 16 19 12 12 13 8 5 0 0 0 0 0 0 0 0 0 0 0 0 0 0 0 0 0 0 0 0 0 0 0 0 0 0 0 0 0 0 0 0 0 0 0
2 4 6 11 17 24 15 16 14 4 13 7 0 0 0 0 0 0 0 0 0 0 0 0 0 0 0 0 0 0 0 0 0 0 0 0 0 0 0 0 0 0 0 0 0 0 0
4 1 7 16 27 23 24 14 2 10 24 7 0 0 0 0 0 0 0 0 0 0 0 0 0 0 0 0 0 0 0 0 0 0 0 0 0 0 0 0 0 0 0 0 0 0 0
15 0 7 19 26 31 18 5 14 17 18 0 0 0 0 0 0 0 0 0 0 0 0 0 0 0 0 0 0 0 0 0 0 0 0 0 0 0 0 0 0 0 0 0 0 0 0
0 0 4 20 28 28 10 10 27 17 3 0 0 0 0 0 0 0 0 0 0 0 0 0 0 0 0 0 0 0 0 0 0 0 0 0 0 0 0 0 0 0 0 0 0 0 0
4 0 5 20 30 24 30 34 30 7 0 0 0 0 0 0 0 0 0 0 0 0 0 0 0 0 0 0 0 0 0 0 0 0 0 0 0 0 0 0 0 0 0 0 0 0 5
0 3 12 13 23 26 30 51 17 3 0 0 0 0 0 0 0 0 0 0 0 0 0 0 0 0 0 0 0 0 0 0 0 0 0 0 0 0 0 0 0 0 0 3 35 40 0
0 4 11 20 36 36 50 17 1 0 0 0 0 0 0 0 0 0 0 0 0 0 0 0 0 0 0 0 0 0 0 0 0 0 0 0 0 0 0 0 0 0 4 17 16 23 0
4 7 16 38 37 51 12 0 0 0 0 0 0 0 0 0 0 0 0 0 0 0 0 0 0 0 0 0 0 0 0 0 0 0 0 0 0 0 0 0 0 0 9 27 14 20 8
10 22 36 26 25 7 3 1 0 0 0 0 0 0 0 0 0 0 0 0 0 0 0 0 0 0 0 0 0 0 0 0 0 26 32 25 0 0 0 0 34 18 20 0 6 6 14
32 22 30 21 12 12 19 15 6 5 0 0 0 0 0 0 0 0 0 0 0 0 0 0 0 0 0 0 0 0 0 0 0 6 27 23 1 0 0 0 0 25 55 1 14 0 11
42 41 21 9 11 21 29 18 8 0 0 0 0 0 0 0 0 0 0 0 0 0 0 0 0 0 0 0 0 0 0 0 0 27 23 3 0 0 0 1 4 69 12 7 14 43 28
31 17 21 26 22 41 6 7 2 1 0 0 0 0 0 0 0 0 0 0 0 0 0 0 0 0 0 0 0 0 0 1 10 1 0 0 0 2 0 0 0 12 11 13 6 0 33
43 39 28 32 29 13 5 8 4 0 0 0 0 0 0 0 0 0 0 0 0 0 0 0 0 0 0 0 3 0 0 26 4 6 0 6 0 1 0 1 1 8 8 4 26 2 30
42 42 34 32 16 14 13 5 0 0 0 0 0 0 0 0 0 0 0 0 0 0 0 0 0 0 0 0 1 0 0 0 1 0 7 5 0 0 0 0 0 3 0 1 9 1 3
63 51 39 23 15 15 8 0 0 0 0 0 0 0 0 0 0 0 0 0 0 0 0 0 0 0 0 2 0 0 0 0 0 0 1 7 23 8 0 0 0 0 9 8 12 8 2
31 49 56 41 19 10 1 0 0 0 0 0 0 0 0 0 0 0 0 0 0 0 0 0 0 0 0 0 0 0 0 0 0 0 13 1 17 11 2 2 1 1 19 1 0 4 15
37 29 40 44 32 9 0 0 0 0 0 0 0 0 0 0 0 0 0 0 0 0 0 0 0 0 1 0 0 0 0 0 0 0 0 9 13 13 12 8 13 0 12 3 5 3 1
49 40 36 41 23 1 0 0 0 0 0 0 0 0 0 0 0 0 0 0 0 0 0 0 0 0 0 0 0 0 0 1 1 0 1 5 15 14 4 0 0 16 8 0 6 7 4
38 16 21 26 15 0 0 0 0 0 0 0 0 0 0 0 0 0 0 0 0 0 0 0 0 0 0 0 3 0 0 0 0 0 4 11 13 1 6 1 7 3 0 5 5 5 6
39 32 35 27 15 12 3 0 0 0 0 0 0 0 0 0 0 0 0 0 0 0 0 0 0 0 0 2 2 0 22 21 6 3 0 0 8 3 0 0 0 2 0 0 0 0 6
51 54 47 31 40 29 6 0 0 0 0 0 0 0 0 0 0 0 0 0 0 0 0 0 0 0 0 0 0 0 16 4 0 9 0 0 0 0 0 0 1 4 0 0 0 1 5
47 49 43 48 56 50 8 0 0 0 0 0 0 0 0 0 0 0 0 0 0 0 0 0 0 0 0 0 0 0 2 8 2 1 5 2 2 1 0 0 0 1 0 0 4 6 3
40 39 52 66 57 49 12 0 0 0 0 0 0 0 0 0 0 0 0 0 0 0 0 0 0 0 0 0 0 0 0 0 0 1 0 0 10 0 3 2 5 2 5 2 1 1 5

GFSGBSN_con_sbcape_105.txt.gz
CAPE
1 1 0 0 2 5 1 4 0 0 3 0 0 0 0 0 0 0 0 0 0 0 0 0 0 0 0 0 0 0 0 0 0 0 0 0 0 0 0 0 0 0 0 0 0 0 0
1 0 0 0 0 4 3 1 0 1 0 0 0 0 0 0 0 0 0 0 0 0 0 0 0 1 0 0 0 0 0 0 0 0 0 0 0 0 0 0 0 0 0 0 0 0 0
0 1 0 0 3 0 5 0 2 12 1 0 0 0 0 0 0 0 0 0 0 0 0 0 0 2 3 0 0 0 0 0 0 0 0 0 0 0 0 0 0 0 0 0 0 0 0
0 2 1 0 1 1 0 0 3 11 9 0 0 0 0 0 0 0 0 0 0 0 0 0 0 1 0 0 0 0 0 0 0 0 0 0 0 0 0 0 0 0 0 0 0 0 0
0 0 1 1 1 1 0 3 5 3 9 0 0 1 0 0 0 0 0 0 0 0 0 0 0 0 0 0 0 0 0 0 0 0 0 0 0 0 0 0 0 0 0 0 0 0 0
8 2 0 1 1 3 4 4 2 6 10 4 0 2 0 0 0 0 0 0 0 0 0 0 0 0 0 0 0 0 0 0 0 0 0 0 0 0 0 0 0 0 0 0 0 0 0
28 9 14 2 1 3 8 9 9 9 14 15 9 1 0 0 0 0 0 0 0 0 0 0 0 0 0 0 0 0 0 0 0 0 0 0 0 0 0 0 0 0 0 0 0 0 0
26 24 20 3 0 1 10 19 11 10 8 6 22 0 0 0 0 0 0 0 0 0 0 0 0 0 0 0 0 0 0 0 0 0 0 0 0 0 0 0 0 0 0 0 0 0 0
14 4 42 32 0 4 14 22 14 12 4 3 22 0 0 0 0 0 0 0 0 0 0 0 0 0 0 0 0 0 0 0 0 0 0 0 0 0 0 0 0 0 0 0 0 0 0
33 25 26 34 4 3 11 21 16 6 6 27 0 0 0 0 0 0 0 0 0 0 0 0 0 0 0 0 0 0 0 0 0 0 0 0 0 0 0 0 0 0 0 0 0 0 0
30 26 9 14 3 1 9 11 14 13 21 2 0 0 0 0 0 0 0 0 0 0 0 0 0 0 0 0 0 0 0 0 0 0 0 0 0 0 0 0 0 0 0 0 0 0 0
21 27 27 28 0 2 4 15 22 13 8 0 0 0 0 0 0 0 0 0 0 0 0 0 0 0 0 0 0 0 0 0 0 0 0 0 0 0 0 0 0 0 0 0 0 0 1
18 41 31 2 1 3 13 25 20 10 1 0 0 0 0 0 0 0 0 0 0 0 0 0 0 0 0 0 0 0 0 0 0 0 0 0 0 0 0 0 0 0 0 0 0 0 0
24 50 1 1 4 11 21 22 12 1 0 0 0 0 0 0 0 0 0 0 0 0 0 0 0 0 0 0 0 0 0 0 0 0 0 0 0 0 0 0 0 0 0 0 2 0 0
26 13 0 0 8 19 20 16 6 1 0 0 0 0 0 0 0 0 0 0 0 0 0 0 0 0 0 0 0 0 0 0 0 0 0 0 0 0 0 0 0 0 0 0 4 0 0
13 1 3 8 15 20 14 14 2 0 0 0 0 0 0 0 0 0 0 0 0 0 0 0 0 0 0 0 0 0 0 0 0 0 10 3 0 0 0 0 0 0 0 24 15 17 2
5 3 11 17 14 18 21 11 1 0 0 0 0 0 0 0 0 0 0 0 0 0 0 0 0 0 0 0 0 0 0 0 0 0 1 0 0 0 0 0 0 14 35 5 2 6 17
4 7 13 21 27 32 13 0 0 0 0 0 0 0 0 0 0 0 0 0 0 0 0 0 0 0 0 0 0 0 0 0 0 0 0 0 0 0 0 0 0 0 0 36 17 0 5
23 30 39 46 32 7 2 2 2 0 0 0 0 0 0 0 0 0 0 0 0 0 0 0 0 0 0 0 0 0 0 0 0 0 0 1 0 0 0 0 0 17 22 23 97 39 0
47 46 42 20 18 22 15 10 3 0 0 0 0 0 0 0 0 0 0 0 0 0 0 0 0 0 0 0 0 0 0 0 0 0 0 18 0 0 0 0 0 3 3 5 12 5 1
20 29 49 46 27 31 11 6 0 0 0 0 0 0 0 0 0 0 0 0 0 0 0 0 0 0 0 0 0 0 0 0 0 0 1 18 15 0 0 0 0 9 16 8 4 3 0
55 51 41 29 29 14 6 1 0 0 0 0 0 0 0 0 0 0 0 0 0 0 0 0 0 0 0 0 0 0 0 0 0 0 17 9 0 7 2 2 12 4 3 0 4 8 10
34 27 36 38 21 9 1 0 0 0 0 0 0 0 0 0 0 0 0 0 0 0 0 0 0 0 0 0 0 0 0 0 0 0 1 5 1 4 4 3 0 0 4 3 4 2 0
81 65 39 22 12 4 0 0 0 0 0 0 0 0 0 0 0 0 0 0 0 0 0 0 0 0 0 0 0 0 0 0 2 4 5 1 7 8 12 9 0 9 11 2 1 6 0
57 41 35 16 4 0 0 0 0 0 0 0 0 0 0 0 0 0 0 0 0 0 0 0 0 0 0 0 3 0 0 0 0 3 12 4 9 6 4 1 5 11 0 2 8 2 4
54 53 50 3 2 1 0 0 0 0 0 0 0 0 0 0 0 0 0 0 0 0 0 0 0 0 0 0 1 0 7 1 4 5 0 0 4 9 0 0 0 0 0 0 0 0 2
48 51 34 10 8 0 0 0 0 0 0 0 0 0 0 0 0 0 0 0 0 0 0 0 0 0 0 0 0 0 6 2 0 0 7 1 3 0 0 1 2 2 0 0 0 0 0
58 47 32 39 31 2 0 0 0 0 0 0 0 0 0 0 0 0 0 0 0 0 0 0 0 0 0 0 0 0 0 0 0 1 5 2 2 2 0 0 0 1 0 0 1 4 1
41 51 53 53 36 18 7 0 0 0 0 0 0 0 0 0 0 0 0 0 0 0 0 0 0 0 0 0 0 0 0 0 0 0 0 0 2 0 2 0 2 4 4 3 0 1 2

GFSGBSN_con_sbcape_108.txt.gz
CAPE
1 1 2 0 0 0 2 2 0 0 0 0 0 0 0 0 0 0 0 0 0 0 0 0 0 0 0 0 0 0 0 0 0 0 0 0 0 0 0 0 0 0 0 0 0 0 0
0 0 0 0 0 0 3 4 0 0 0 0 0 0 0 0 0 0 0 0 0 0 0 0 0 1 0 0 0 0 0 0 0 0 0 0 0 0 0 0 0 0 0 0 0 0 0
0 0 0 0 0 0 0 0 0 0 0 0 0 0 0 0 0 0 0 0 0 0 0 0 0 2 0 0 0 0 0 0 0 0 0 0 0 0 0 0 0 0 0 0 0 0 0
0 0 0 0 0 0 0 0 0 0 0 0 0 0 0 0 0 0 0 0 0 0 0 0 0 1 0 0 0 0 0 0 0 0 0 0 0 0 0 0 0 0 0 0 0 0 0
24 2 0 0 0 0 0 0 0 0 4 3 0 0 0 0 0 0 0 0 0 0 0 0 0 0 0 0 0 0 0 0 0 0 0 0 0 0 0 0 0 0 0 0 0 0 0
38 40 22 1 0 0 0 1 0 2 6 5 3 0 0 0 0 0 0 0 0 0 0 0 0 0 0 0 0 0 0 0 0 0 0 0 0 0 0 0 0 0 0 0 0 0 0
23 20 60 45 24 1 2 2 1 1 4 3 4 0 3 0 0 0 0 0 0 0 0 0 0 0 0 0 0 0 0 0 0 0 0 0 0 0 0 0 0 0 0 0 0 0 0
33 37 38 32 48 41 11 2 1 1 4 5 0 7 3 0 0 0 0 0 0 0 0 0 0 0 0 0 0 0 0 0 0 0 0 0 0 0 0 0 0 0 0 0 0 0 0
36 28 37 48 47 58 42 6 1 1 4 7 6 8 4 0 0 0 0 0 0 0 0 0 0 0 0 0 0 0 0 0 0 0 0 0 0 0 0 0 0 0 0 0 0 0 0
33 29 26 34 41 41 35 1 1 2 5 10 3 10 0 0 0 0 0 0 0 0 0 0 0 0 0 0 0 0 0 0 0 0 0 0 0 0 0 0 0 0 0 0 0 0 0
26 28 22 22 36 16 35 20 1 5 9 4 10 3 0 0 0 0 0 0 0 0 0 0 0 0 0 0 0 0 0 0 0 0 0 0 0 0 0 0 0 0 0 0 0 0 0
1 20 28 25 23 33 17 0 1 6 10 10 3 0 0 0 0 0 0 0 0 0 0 0 0 0 0 0 0 0 0 0 0 0 0 0 0 0 0 0 0 0 0 0 0 0 0
0 1 28 23 21 28 31 0 3 7 14 7 1 0 0 0 0 0 0 0 0 0 0 0 0 0 0 0 0 0 0 0 0 0 0 0 0 0 0 0 0 0 0 0 0 0 0
0 1 10 29 16 18 0 1 5 16 13 3 1 0 0 0 0 0 0 0 0 0 0 0 0 0 0 0 0 0 0 0 0 0 0 0 0 0 0 0 0 0 0 0 0 0 0
1 0 6 31 15 3 1 7 15 15 7 2 3 0 0 0 0 0 0 0 0 0 0 0 0 0 0 0 0 0 0 0 0 0 0 0 0 0 0 0 0 0 0 0 0 0 0
0 2 12 36 3 0 3 13 12 9 8 2 0 0 0 0 0 0 0 0 0 0 0 0 0 0 0 0 0 0 0 0 0 0 0 0 0 0 0 0 0 0 0 8 4 5 1
3 4 33 15 0 3 11 12 12 12 2 0 0 1 0 0 0 0 0 0 0 0 0 0 0 0 0 0 0 0 0 0 0 0 0 0 2 0 0 0 0 0 0 0 0 0 1
2 15 10 0 3 10 12 15 11 9 0 0 0 0 0 0 0 0 0 0 0 0 0 0 0 0 0 0 0 0 0 0 0 0 0 0 0 2 0 0 0 0 0 0 0 2 1
8 29 0 5 9 15 18 19 14 0 0 0 0 0 0 0 0 0 0 0 0 0 0 0 0 0 0 0 0 0 0 0 0 0 0 0 0 0 0 0 10 6 18 44 17 3 23
1 1 7 17 23 26 25 16 5 3 1 0 0 0 0 0 0 0 0 0 0 0 0 0 0 0 0 0 0 0 0 0 0 0 0 1 0 0 0 0 0 0 1 10 12 5 0
7 12 21 30 34 38 21 6 15 25 1 0 0 0 0 0 0 0 0 0 0 0 0 0 0 0 0 0 0 0 0 0 0 0 0 0 1 0 0 0 0 9 4 2 6 2 1
38 37 39 31 24 13 10 24 20 4 0 0 0 0 0 0 0 0 0 0 0 0 0 0 0 0 0 0 0 0 0 0 0 0 1 38 0 1 0 0 12 3 2 1 0 3 2
53 33 21 20 28 28 38 52 25 0 0 0 0 0 0 0 0 0 0 0 0 0 0 0 0 0 0 0 0 0 0 0 0 0 1 2 0 1 0 1 0 0 3 3 1 1 0
46 49 51 41 32 18 14 8 0 0 0 0 0 0 0 0 0 0 0 0 0 0 0 0 0 0 0 0 0 0 0 0 0 0 6 1 2 5 6 2 0 1 12 0 1 2 1
54 60 60 40 18 6 11 2 0 0 0 0 0 0 0 0 0 0 0 0 0 0 0 0 0 0 0 0 0 0 0 1 1 10 12 3 6 3 5 1 1 11 0 0 4 2 1
47 60 36 18 19 19 5 0 0 0 0 0 0 0 0 0 0 0 0 0 0 0 0 0 0 0 0 0 0 0 0 0 2 11 1 13 9 3 8 0 0 0 0 0 0 0 2
78 47 21 9 14 3 0 0 0 0 0 0 0 0 0 0 0 0 0 0 0 0 0 0 0 0 0 0 0 0 0 0 0 0 3 5 5 2 0 0 2 0 0 0 1 0 1
50 50 41 25 15 4 0 0 0 0 0 0 0 0 0 0 0 0 0 0 0 0 0 0 0 0 0 0 0 0 0 0 1 0 2 1 1 0 0 0 0 0 0 0 0 2 0
61 55 47 34 25 5 0 0 0 0 0 0 0 0 0 0 0 0 0 0 0 0 0 0 0 0 0 0 0 0 0 0 0 0 0 0 0 0 2 0 1 3 4 1 0 0 1

GFSGBSN_con_sbcape_111.txt.gz
CAPE
0 0 0 0 0 0 0 0 0 0 0 0 0 0 0 0 0 0 0 0 0 0 0 0 0 0 0 0 0 0 0 0 0 0 0 0 0 0 0 0 0 0 0 0 0 0 0
0 0 0 0 0 0 0 0 0 0 0 0 0 0 0 0 0 0 0 0 0 0 0 0 0 0 0 0 0 0 0 0 0 0 0 0 0 0 0 0 0 0 0 0 0 0 0
20 0 0 0 0 0 0 0 0 0 0 0 0 0 0 0 0 0 0 0 0 0 0 0 0 0 0 0 0 0 0 0 0 0 0 0 0 0 0 0 0 0 0 0 0 0 0
2 7 13 0 0 0 0 0 0 0 0 0 0 0 0 0 0 0 0 0 0 0 0 0 0 0 0 0 0 0 0 0 0 0 0 0 0 0 0 0 0 0 0 0 0 0 0
32 11 17 16 0 0 0 0 0 0 0 0 0 0 0 0 0 0 0 0 0 0 0 0 0 0 0 0 0 0 0 0 0 0 0 0 0 0 0 0 0 0 0 0 0 0 0
12 34 21 24 22 1 0 0 0 0 0 1 3 2 0 0 0 0 0 0 0 0 0 0 0 0 0 0 0 0 0 0 0 0 0 0 0 0 0 0 0 0 0 0 0 0 0
19 15 25 33 27 30 3 1 0 0 0 1 3 6 0 0 0 0 0 0 0 0 0 0 0 0 0 0 0 0 0 0 0 0 0 0 0 0 0 0 0 0 0 0 0 0 0
18 17 30 32 30 32 46 19 1 0 0 1 3 4 3 0 0 0 0 0 0 0 0 0 0 0 0 0 0 0 0 0 0 0 0 0 0 0 0 0 0 0 0 0 0 0 0
17 19 25 40 40 38 32 37 17 0 0 1 2 6 3 0 0 0 0 0 0 0 0 0 0 0 0 0 0 0 0 0 0 0 0 0 0 0 0 0 0 0 0 0 0 0 0
0 0 26 40 43 39 44 46 28 4 0 1 3 8 0 0 0 0 0 0 0 0 0 0 0 0 0 0 0 0 0 0 0 0 0 0 0 0 0 0 0 0 0 0 0 0 0
1 2 0 0 27 24 23 37 50 27 0 2 4 5 0 0 0 0 0 0 0 0 0 0 0 0 0 0 0 0 0 0 0 0 0 0 0 0 0 0 0 0 0 0 0 0 0
44 12 1 0 0 20 9 18 46 12 1 3 8 3 0 0 0 0 0 0 0 0 0 0 0 0 0 0 0 0 0 0 0 0 0 0 0 0 0 0 0 0 0 0 0 0 0
62 26 6 2 0 15 20 10 16 3 2 7 12 4 0 0 0 0 0 0 1 0 0 0 0 0 0 0 0 0 0 0 0 0 0 0 0 0 0 0 0 0 0 0 0 0 0
56 42 14 3 1 1 19 18 14 0 6 13 9 1 0 0 0 0 0 0 0 0 0 0 0 0 0 0 0 0 0 0 0 0 0 0 0 0 0 0 0 0 0 0 0 0 0
68 56 38 10 1 7 10 20 0 5 10 14 3 0 0 0 0 0 6 0 0 0 0 0 0 0 0 0 0 0 0 0 0 0 0 0 0 0 0 0 0 0 0 0 0 0 0
63 64 39 22 4 12 11 6 3 10 13 4 0 2 0 0 0 1 2 0 0 0 0 0 0 0 0 0 0 0 0 0 0 0 0 0 0 0 0 0 0 0 0 9 5 5 4
45 49 27 16 7 19 28 1 8 12 8 0 0 1 21 0 0 2 0 0 0 0 0 0 0 0 0 0 0 0 0 0 0 0 0 0 0 0 0 0 0 0 0 0 1 0 25
24 19 11 4 6 26 36 2 11 11 0 0 0 2 8 0 26 1 0 0 0 0 0 0 0 0 0 0 0 0 0 0 0 0 0 0 0 2 0 0 0 0 0 1 5 6 7
28 20 4 3 8 14 2 5 14 2 0 0 1 4 0 0 0 0 0 0 0 0 0 0 0 0 0 0 0 0 0 0 0 0 0 0 4 0 0 2 13 1 3 4 59 7 1
11 3 0 9 23 3 3 3 7 0 0 0 0 3 6 27 0 0 0 0 0 0 0 0 0 0 0 0 0 0 0 0 0 0 0 0 0 0 0 0 0 0 3 10 20 17 1
0 2 39 29 3 6 14 12 6 0 0 0 0 0 2 21 0 0 0 0 0 0 0 0 0 0 0 0 0 0 0 0 0 0 0 12 4 0 0 0 0 8 4 2 2 5 2
11 20 21 0 6 14 17 11 5 0 0 0 0 0 0 0 0 0 1 0 0 0 0 0 0 0 0 0 0 0 0 0 0 0 2 4 3 0 0 0 6 1 2 2 1 8 2
0 2 5 11 18 23 21 18 29 16 0 0 0 0 0 1 0 0 0 0 0 0 0 0 0 0 0 0 0 0 0 0 3 0 17 4 2 2 2 2 1 1 3 2 4 3 4
16 19 20 23 36 40 36 46 30 8 0 0 0 0 0 0 0 0 0 0 0 0 0 0 0 0 0 0 0 0 0 0 0 0 8 14 7 8 6 7 1 5 5 0 1 3 3
54 53 59 45 25 17 27 34 11 0 0 0 0 0 0 0 0 0 0 0 0 0 0 0 0 0 0 0 1 1 1 2 1 5 16 2 16 4 38 3 3 7 0 3 4 2 2
51 53 50 45 42 41 45 32 5 13 0 0 0 0 0 0 0 0 0 0 0 0 0 0 0 0 0 0 1 1 0 0 5 36 21 14 4 3 4 0 0 0 0 0 1 0 2
63 73 82 82 88 88 81 56 8 0 0 0 0 0 0 0 0 0 0 0 0 0 0 0 0 0 0 0 0 0 3 0 0 0 2 3 6 6 5 0 0 0 0 1 4 1 2
120 121 113 105 75 52 26 2 0 0 0 0 0 0 0 0 0 0 0 0 0 0 0 0 0 0 0 0 0 1 0 2 3 0 3 2 1 1 1 0 0 1 0 2 2 4 0
102 80 57 45 26 3 0 0 0 0 0 0 0 0 0 0 0 0 0 0 0 0 0 0 0 0 0 0 0 3 3 0 0 1 0 2 1 1 1 1 4 5 5 3 0 1 2

GFSGBSN_con_sbcape_114.txt.gz
CAPE
1 1 0 0 0 0 0 0 0 0 0 0 0 0 0 0 0 0 0 0 0 0 0 0 0 0 0 0 0 0 0 0 0 0 0 0 0 0 0 0 0 0 0 0 0 0 0
0 8 0 0 0 0 0 0 0 0 0 0 0 0 0 0 0 0 0 0 0 0 0 0 0 0 0 0 0 0 0 0 0 0 0 0 0 0 0 0 0 0 0 0 0 0 0
9 1 5 0 0 0 0 0 0 0 0 0 0 0 0 0 0 0 0 0 0 0 0 0 0 0 0 0 0 0 0 0 0 0 0 0 0 0 0 0 0 0 0 0 0 0 0
1 9 2 0 0 0 0 0 0 0 0 0 0 0 0 0 0 0 0 0 0 0 0 0 0 0 0 0 0 0 0 0 0 0 0 0 0 0 0 0 0 0 0 0 0 0 0
19 9 5 10 2 0 0 0 0 0 0 0 0 0 0 0 0 0 0 0 0 0 0 0 0 0 0 0 0 0 0 0 0 0 0 0 0 0 0 0 0 0 0 0 0 0 0
35 22 9 21 19 18 1 0 0 0 0 0 0 1 1 0 0 0 0 0 0 0 0 0 0 0 0 0 0 0 0 0 0 0 0 0 0 0 0 0 0 0 0 0 0 0 0
41 44 26 5 12 26 30 16 1 0 0 0 0 1 3 1 0 0 0 0 0 0 0 0 0 0 0 0 0 0 0 0 0 0 0 0 0 0 0 0 0 0 0 0 0 0 0
16 22 42 34 28 32 42 37 29 3 0 0 0 1 5 1 0 0 0 0 0 0 0 0 0 0 0 0 0 0 0 0 0 0 0 0 0 0 0 0 0 0 0 0 0 0 0
14 3 0 9 37 39 47 37 44 29 4 0 0 2 6 0 0 0 0 0 0 0 0 0 0 0 0 0 0 0 0 0 0 0 0 0 0 0 0 0 0 0 0 0 0 0 0
37 14 6 0 3 11 13 37 43 29 11 0 1 3 4 0 0 0 0 0 0 0 0 0 0 0 0 0 0 0 0 0 0 0 0 0 0 0 0 0 0 0 0 0 0 0 0
36 32 20 5 0 0 0 0 22 47 21 0 1 5 0 0 0 0 0 0 0 0 1 0 0 0 0 0 0 0 0 0 0 0 0 0 0 0 0 0 0 0 0 0 0 0 0
40 37 46 25 0 0 0 0 8 26 14 0 3 4 0 0 0 0 0 0 0 0 0 0 0 0 0 0 0 0 0 0 0 0 0 0 0 0 0 0 0 0 0 0 0 0 0
39 35 40 46 16 0 0 0 15 14 5 1 5 3 0 0 0 0 0 0 0 1 0 0 0 0 0 0 0 0 0 0 0 0 0 0 0 0 0 0 0 0 0 0 0 4 0
53 40 36 51 45 9 0 0 10 18 0 4 9 4 0 0 0 0 0 0 1 0 0 0 0 0 0 0 0 0 0 0 0 0 0 0 0 0 0 0 0 0 0 0 0 0 0
73 56 49 42 51 31 10 5 0 22 1 12 6 1 0 0 0 0 0 6 2 0 0 0 0 0 0 0 0 0 0 0 0 0 0 0 0 0 0 0 0 0 0 0 0 0 1
95 83 68 58 73 66 27 18 12 8 8 5 0 0 3 0 0 12 4 0 0 0 0 0 0 0 0 0 0 0 0 0 0 0 0 0 0 0 0 0 0 0 1 14 15 10 14
74 79 78 81 72 71 38 37 41 5 8 0 0 2 0 0 32 23 3 0 0 0 0 0 0 0 0 0 0 0 0 0 0 0 0 0 0 0 0 0 0 10 7 11 34 49 45
81 79 71 75 74 78 43 51 43 3 0 0 5 1 0 5 15 27 7 0 0 0 0 0 0 0 0 0 0 0 0 0 0 0 0 0 5 0 1 2 1 0 18 37 61 35 40
98 85 84 80 62 67 54 50 12 6 0 0 10 21 27 18 10 15 1 0 0 0 0 0 0 0 0 0 0 0 0 0 0 0 0 10 20 8 11 26 24 39 14 21 33 44 32
115 110 98 84 72 73 55 57 5 4 0 0 9 24 12 15 37 11 2 0 0 0 0 0 0 0 0 0 0 0 0 0 0 0 0 30 2 0 16 0 0 1 13 28 36 73 48
105 103 107 91 86 66 57 57 6 1 0 0 15 5 7 45 31 9 1 0 0 0 0 0 0 0 0 0 0 0 0 0 0 0 3 29 7 11 2 0 0 4 10 13 8 9 20
81 103 79 92 83 64 64 74 5 4 0 0 12 0 6 9 10 6 5 0 0 0 0 0 0 0 0 0 0 0 0 0 2 1 8 20 8 13 8 2 10 17 4 16 6 1 10
28 32 57 52 59 42 35 4 10 5 0 4 0 0 0 0 10 16 10 0 0 1 0 0 0 0 0 0 0 0 0 4 9 16 32 55 21 28 28 5 17 16 7 7 8 5 13
14 19 24 23 21 35 8 10 6 1 0 0 0 0 0 5 3 0 0 0 0 0 17 0 0 0 0 0 0 0 4 8 13 10 17 31 24 44 26 20 31 11 8 1 3 7 8
3 12 14 24 48 4 11 18 16 0 0 0 0 0 0 2 0 1 0 1 1 0 0 0 0 0 0 0 4 13 22 7 5 8 15 23 38 46 53 42 5 15 10 7 13 5 2
5 19 17 4 10 26 31 35 22 0 0 0 0 0 0 9 10 0 5 0 0 0 0 0 0 0 0 12 10 23 20 23 30 18 13 32 30 48 41 21 17 4 0 0 1 12 3
28 14 21 29 40 41 51 58 39 1 0 0 0 0 2 7 0 3 0 0 0 0 0 0 0 2 1 24 24 40 18 9 18 13 22 34 42 20 24 43 0 0 0 0 6 9 3
50 47 49 51 49 48 44 42 11 0 0 0 1 0 0 2 0 0 0 0 0 0 0 0 0 0 2 11 31 17 6 8 9 3 8 10 16 30 14 18 1 2 3 8 5 5 5
44 42 41 41 26 17 10 0 0 0 0 0 0 0 0 0 0 0 0 0 0 0 0 0 0 0 3 8 1 7 3 4 10 12 1 13 8 9 4 6 6 8 8 7 4 4 7

GFSGBSN_con_sbcape_117.txt.gz
CAPE
10 8 0 0 0 0 0 0 0 0 0 0 0 0 0 0 0 0 0 0 0 0 0 0 0 0 0 0 0 0 0 0 0 0 0 0 0 0 0 0 0 0 0 0 0 0 0
3 6 5 5 1 1 3 0 0 0 0 0 0 0 0 0 0 0 0 0 0 0 0 0 0 0 0 0 0 0 0 0 0 0 0 0 0 0 0 0 0 0 0 0 0 0 0
14 6 13 8 0 5 1 0 0 0 0 0 0 0 0 0 0 0 0 0 0 0 0 0 0 0 0 0 0 0 0 0 0 0 0 0 0 0 0 0 0 0 0 0 0 0 0
32 20 11 6 8 3 1 0 0 0 0 0 0 0 0 0 0 0 0 0 0 0 0 0 0 0 0 0 0 0 0 0 0 0 0 0 0 0 0 0 0 0 0 0 0 0 0
31 30 23 5 3 8 1 0 0 0 0 0 0 0 0 0 0 0 0 0 0 0 0 0 0 0 0 0 0 0 0 0 0 0 0 0 0 0 0 0 0 0 0 0 0 0 0
18 17 18 16 0 3 15 9 0 0 0 0 0 0 0 0 0 0 0 0 0 0 0 0 0 0 0 0 0 0 0 0 0 0 0 0 0 0 0 0 0 0 0 0 0 0 0
15 18 10 18 16 8 13 31 16 3 0 0 0 0 1 1 0 0 0 0 0 0 0 0 0 0 0 0 0 0 0 0 0 0 0 0 0 0 0 0 0 0 0 0 0 0 0
38 16 0 0 6 34 30 26 34 16 4 0 0 0 1 2 0 0 0 0 0 0 0 0 0 0 0 0 0 0 0 0 0 0 0 0 0 0 0 0 0 0 0 0 0 0 0
26 38 19 0 0 0 14 31 24 20 4 0 0 0 3 2 0 0 0 0 0 0 0 0 0 0 0 0 0 0 0 0 0 0 0 0 0 0 0 0 0 0 0 0 0 0 0
31 30 38 24 7 0 3 1 2 15 2 0 0 1 3 2 0 0 0 0 0 0 0 0 0 0 0 0 0 0 0 0 0 0 0 0 0 0 0 0 0 0 0 0 0 0 0
28 32 34 34 39 17 0 0 0 1 10 0 0 4 1 0 0 0 0 0 0 0 33 0 0 0 0 0 0 0 0 0 0 0 0 0 0 0 0 0 0 0 0 0 0 0 0
42 36 39 36 30 38 16 0 0 0 3 2 1 3 0 0 0 0 0 0 0 1 36 0 0 0 0 0 0 0 0 0 0 0 0 0 0 0 0 0 0 0 0 0 0 0 0
35 50 39 40 30 31 33 9 0 0 4 0 3 4 0 0 0 0 0 0 6 26 0 0 0 0 0 0 0 0 0 0 0 0 0 0 0 0 0 0 0 0 0 0 3 8 0
57 43 43 43 41 34 37 12 0 0 4 0 2 3 0 0 0 0 0 0 9 0 3 0 0 0 0 0 0 0 0 0 0 0 0 0 0 0 0 0 0 0 3 15 1 8 5
71 60 56 45 54 35 31 25 8 0 10 1 5 3 4 0 0 0 0 9 3 5 4 0 0 0 0 0 0 0 0 0 0 0 0 0 0 0 0 0 0 0 0 0 1 0 1
82 72 75 62 56 51 38 33 22 18 25 4 0 4 7 4 0 0 5 3 19 3 0 0 0 0 1 0 0 0 0 0 0 0 0 0 0 0 0 0 0 0 0 3 13 6 11
73 81 72 74 74 64 65 60 42 39 2 1 0 2 12 12 13 12 18 7 1 0 0 0 0 1 0 3 0 1 0 0 0 0 0 0 0 0 0 0 0 2 3 0 14 43 61
80 62 71 70 64 82 84 72 65 59 4 0 5 1 12 17 6 11 18 9 0 0 0 0 0 0 0 0 0 0 0 0 0 0 0 0 0 0 0 0 0 2 19 26 68 32 54
94 88 84 84 87 76 71 63 60 52 3 0 2 9 11 18 10 22 6 14 0 0 0 0 0 0 0 0 0 0 0 0 0 0 0 1 0 0 2 1 9 38 31 17 46 70 48
113 117 106 105 99 95 91 57 62 50 2 0 2 6 5 8 11 12 19 4 5 0 0 0 0 0 0 0 0 0 0 0 0 0 0 2 4 22 7 4 6 16 27 36 48 57 60
147 142 139 133 122 105 94 63 57 57 3 0 6 8 3 8 9 11 13 10 9 0 0 0 0 0 0 1 5 2 0 0 0 0 0 3 16 39 1 4 2 8 14 20 38 38 51
197 163 158 145 136 124 107 91 54 62 6 26 1 1 10 9 9 10 25 13 8 0 0 0 0 0 0 3 11 1 0 0 1 0 1 32 14 30 3 0 11 39 21 19 30 14 1
150 170 171 179 175 163 142 81 74 89 3 3 0 12 19 2 17 28 24 14 7 5 0 0 0 1 6 1 0 0 0 2 18 16 16 46 59 32 30 10 2 27 9 1 11 2 18
96 113 153 171 173 185 148 101 92 62 5 0 8 0 36 1 21 6 12 9 5 0 2 0 3 13 9 0 0 0 1 20 16 19 30 71 47 56 56 11 30 7 4 6 15 13 7
46 58 122 134 88 168 143 113 66 38 18 0 0 1 34 4 15 12 13 6 0 0 0 23 0 9 0 0 12 24 21 18 11 13 9 41 46 68 58 57 4 9 11 7 6 7 14
33 45 81 67 164 117 96 92 74 68 20 0 0 10 10 37 10 4 2 0 3 27 22 30 4 2 0 20 28 26 54 19 33 10 12 15 33 44 50 31 26 3 3 1 3 15 2
16 9 51 54 77 97 91 97 64 12 0 0 0 0 2 4 0 0 2 1 22 16 11 23 10 9 11 38 15 65 62 41 76 44 33 41 48 38 20 48 4 1 0 0 13 8 5
4 17 30 42 48 57 85 43 4 0 1 0 0 1 31 16 10 0 5 23 13 17 9 11 16 13 17 25 57 57 51 37 42 13 16 41 52 53 29 61 24 1 1 5 3 6 7
6 11 13 10 8 13 14 9 8 1 6 0 4 12 12 4 20 1 0 0 1 7 7 5 1 0 9 39 57 32 8 6 31 30 1 17 6 19 2 9 5 3 6 2 6 8 10

GFSGBSN_con_sbcape_120.txt.gz
CAPE
3 6 14 5 0 0 0 0 0 0 0 0 0 0 0 0 0 0 0 0 0 0 0 0 0 0 0 0 0 0 0 0 0 0 0 0 0 0 0 0 0 0 0 0 0 0 0
9 2 2 12 3 8 1 0 0 0 0 0 0 0 0 0 0 0 0 0 0 0 0 0 0 0 0 0 0 0 0 0 0 0 0 0 0 0 0 0 0 0 0 0 0 0 0
0 22 11 0 0 9 10 1 1 0 0 0 1 0 0 0 0 0 0 0 0 0 0 0 0 0 0 0 0 0 0 0 0 0 0 0 0 0 0 0 0 0 0 0 0 0 0
15 34 36 25 5 0 0 0 1 1 1 1 1 1 1 0 0 0 0 0 0 0 0 0 0 0 0 0 0 0 0 0 0 0 0 0 0 0 0 0 0 0 0 0 0 0 0
15 41 49 33 21 8 2 0 0 0 0 0 0 1 0 0 0 0 0 0 0 0 0 0 0 0 0 0 0 0 0 0 0 0 0 0 0 0 0 0 0 0 0 0 0 0 0
13 18 33 32 28 18 2 0 0 0 0 0 0 0 0 0 0 0 0 0 0 0 0 0 0 0 0 0 0 0 0 0 0 0 0 0 0 0 0 0 0 0 0 0 0 0 0
22 25 26 18 18 31 30 24 17 3 2 0 0 0 0 0 0 0 0 0 0 0 0 0 0 0 0 0 0 0 0 0 0 0 0 0 0 0 0 0 0 0 0 0 0 0 0
11 4 26 6 0 0 2 32 22 19 5 0 0 0 0 1 1 0 0 0 0 0 0 0 0 0 0 0 0 0 0 0 0 0 0 0 0 0 0 0 0 0 0 0 0 0 0
26 18 6 16 11 0 0 0 0 0 1 0 0 0 1 2 1 0 0 0 0 0 0 0 0 0 0 0 0 0 0 0 0 0 0 0 0 0 0 0 0 0 0 0 0 0 0
29 20 28 16 1 11 11 0 0 0 0 3 0 0 1 4 0 0 0 0 0 0 0 0 0 0 0 0 0 0 0 0 0 0 0 0 0 0 0 0 0 0 0 0 0 0 0
45 35 31 34 28 24 22 0 0 0 0 4 0 2 2 0 0 0 0 0 0 0 0 0 0 0 0 0 0 0 0 0 0 0 0 0 0 0 0 0 0 0 0 0 0 0 0
44 40 48 38 41 38 33 22 0 0 0 0 0 1 1 0 0 0 0 0 0 9 1 0 0 0 0 0 0 0 0 0 0 0 0 0 0 0 0 0 0 0 0 0 0 0 0
61 51 54 49 45 45 34 44 23 0 0 0 1 3 1 0 0 0 0 0 11 15 0 0 0 0 0 0 0 0 0 0 0 0 0 0 0 0 0 0 0 0 0 0 0 10 2
60 71 55 46 49 58 45 39 43 4 0 0 0 1 0 0 0 0 0 0 27 0 0 0 0 0 0 0 0 0 0 0 0 0 0 0 0 0 0 0 0 0 0 9 0 9 5
70 78 80 65 55 53 54 41 38 32 1 4 0 1 1 0 0 0 0 6 1 0 0 30 0 0 0 0 0 0 0 0 0 0 0 0 0 0 0 0 0 0 0 0 5 0 1
76 87 88 73 67 63 61 59 47 54 41 31 0 1 2 0 0 0 0 0 0 0 9 14 0 0 0 0 0 0 0 0 0 0 0 0 0 0 0 0 0 0 0 0 4 0 3
74 72 86 84 81 73 83 67 53 64 54 10 1 0 7 0 3 4 0 3 8 12 86 0 8 0 0 3 29 0 0 0 0 0 0 0 0 0 0 0 0 0 14 0 0 0 3
91 83 72 67 77 89 87 77 77 58 47 2 3 0 10 2 2 3 2 1 2 33 60 0 0 0 0 0 15 26 0 0 0 0 0 0 0 0 0 0 0 0 0 6 47 0 9
132 104 76 74 73 58 68 69 75 61 34 4 1 6 6 1 0 6 0 12 30 14 6 0 0 0 0 0 0 0 0 0 0 0 0 0 0 0 0 0 0 0 1 12 47 47 7
156 145 125 104 86 79 74 83 64 75 73 0 1 2 2 3 8 4 6 24 50 28 9 0 0 0 0 0 0 0 0 0 0 0 0 0 0 0 0 0 0 15 25 26 51 62 20
192 171 156 146 117 97 97 97 72 70 96 1 0 1 1 2 10 6 9 3 12 55 0 0 0 0 0 0 0 0 0 0 0 0 0 0 0 2 1 1 0 2 0 0 43 18 54
219 220 199 192 154 120 121 129 70 79 91 32 2 32 1 0 3 6 4 16 15 26 0 0 0 0 0 0 0 0 2 5 0 0 0 1 0 16 0 0 0 0 0 0 5 13 9
197 215 218 211 180 181 167 118 87 91 113 24 65 64 39 1 6 13 1 0 8 77 7 0 0 0 0 0 0 0 0 0 0 0 7 11 39 1 0 6 7 8 0 5 23 3 3
60 111 225 231 213 218 206 187 113 106 80 62 99 199 55 48 3 10 3 17 6 45 1 0 0 0 0 0 0 0 0 0 0 19 12 33 16 10 16 28 17 0 0 0 4 2 11
38 43 166 232 236 218 223 203 129 112 76 71 175 109 99 110 40 14 0 11 26 17 0 0 0 0 3 0 0 0 2 5 7 14 12 18 32 40 40 22 2 2 0 1 1 6 8
34 43 100 87 182 195 206 198 144 97 72 61 203 112 395 145 51 0 21 40 53 4 0 0 20 4 30 0 24 14 11 0 8 4 10 34 33 26 14 45 25 0 0 1 3 7 10
72 69 76 86 137 177 188 188 138 94 82 59 0 0 327 251 66 63 61 93 29 3 1 22 5 4 17 40 58 10 14 9 36 4 12 18 26 31 14 18 6 0 1 1 5 2 4
53 70 72 57 95 142 164 162 142 123 91 88 0 26 29 135 34 76 58 14 1 9 20 19 8 20 21 29 20 4 72 60 31 36 1 7 16 16 9 18 25 0 0 1 0 3 5
19 69 68 58 75 99 127 152 134 104 95 61 1 18 5 12 0 0 0 0 0 5 33 17 1 3 26 0 16 92 57 2 25 29 13 35 5 7 1 5 1 0 1 0 2 4 3